GFSMA_prec_cthk_000.txt.gz
RH
31 33 36 35 37 38 37 37 38 39 39 40 39 39 38 38 38 36 34 31 29 27 26 24 23 21 19 17 17 17 18 18 24 26 26 27 25 22 21 22 23 27 28
34 34 35 36 37 39 38 39 40 39 39 41 40 42 42 43 43 43 44 42 40 39 38 35 32 32 29 26 23 21 21 22 23 27 30 32 32 31 27 24 26 29 29
39 40 41 42 45 45 44 47 48 48 48 48 47 46 46 46 45 45 45 44 42 39 39 39 38 37 37 36 36 33 29 26 25 26 28 31 37 44 46 40 37 34 32
41 42 43 46 46 47 48 48 47 45 43 43 42 41 42 40 38 38 38 38 39 38 37 38 41 43 42 42 42 42 41 40 37 36 35 34 36 39 46 47 49 52 49
42 43 43 42 40 38 37 35 36 37 36 39 39 38 36 35 34 33 34 35 36 36 36 37 38 41 44 46 46 46 48 48 47 46 44 44 42 40 44 50 51 47 48
43 40 35 33 32 32 33 35 38 38 37 39 36 35 32 32 33 37 38 39 40 41 41 40 42 43 42 46 48 50 49 50 52 56 59 55 52 52 49 46 48 50 51
35 34 34 34 35 36 36 35 34 31 30 30 29 30 28 30 33 34 41 37 34 40 43 44 45 47 53 55 53 55 58 57 55 60 61 58 60 60 57 54 52 53 48
36 36 37 38 36 32 30 29 29 30 31 31 31 29 29 29 31 30 27 30 33 32 39 42 53 54 57 57 56 63 67 68 70 62 63 68 67 62 59 56 56 57 58
40 38 33 29 28 28 28 27 26 26 26 25 25 28 30 30 29 29 28 30 34 33 34 37 38 39 42 48 46 46 52 68 73 74 71 67 68 70 69 65 60 55 55
32 30 29 29 28 26 23 20 19 18 21 21 21 21 22 28 30 29 31 29 31 32 29 31 33 33 36 40 48 53 48 44 47 62 74 78 73 74 76 76 74 72 67
32 30 27 22 19 18 18 18 16 16 20 21 21 22 27 29 28 28 23 26 25 28 27 27 30 34 32 33 46 55 58 65 71 74 75 80 87 85 86 86 83 80 83
27 26 24 23 19 18 17 17 17 17 17 18 20 22 28 28 28 26 24 22 23 22 23 24 29 38 43 46 49 57 67 75 80 83 91 96 94 98 98 93 85 92 99
29 25 22 19 18 17 17 18 18 18 19 19 21 23 23 23 25 26 27 28 29 26 30 30 36 42 48 50 50 52 48 58 68 88 95 94 94 95 96 96 96 91 91
25 22 20 19 18 18 18 18 19 19 20 21 19 21 20 17 19 21 25 28 29 29 21 23 31 40 45 43 46 52 54 46 49 59 76 81 84 83 84 89 89 88 88
25 22 21 20 19 19 19 19 19 18 16 15 14 15 15 15 20 22 23 22 26 34 28 17 19 19 26 32 37 54 57 48 42 39 45 52 61 73 76 78 78 75 71
26 23 21 20 20 20 19 17 15 13 13 14 15 15 18 20 22 21 21 20 24 33 36 24 19 23 23 30 41 47 52 47 49 49 38 28 51 48 48 57 57 62 69
25 23 22 21 21 19 16 14 13 14 15 15 15 17 19 21 23 22 22 23 29 34 42 28 36 23 24 26 28 36 44 51 50 45 43 44 43 33 30 32 41 47 54
25 23 23 21 18 15 15 14 14 15 16 16 16 18 20 22 23 23 25 29 34 37 47 49 39 35 34 38 44 42 37 45 46 41 39 42 39 33 35 30 35 36 44
26 24 21 18 16 17 16 14 15 15 16 17 19 22 23 25 24 25 28 34 37 40 47 47 44 43 44 43 45 44 47 44 43 50 49 37 37 39 36 41 38 28 30
24 21 19 18 19 17 15 15 14 16 18 19 21 26 27 27 26 28 33 37 42 46 43 49 52 52 47 39 43 41 40 38 45 48 45 45 48 50 48 46 42 38 35
22 20 20 20 18 16 16 16 15 19 21 22 27 27 28 28 28 35 39 41 43 48 51 56 58 50 42 40 43 48 48 43 43 51 55 58 51 53 49 40 39 42 47
22 22 22 20 18 17 17 16 17 23 23 27 30 29 28 30 37 40 43 47 48 57 60 70 60 53 44 49 45 44 54 53 49 42 60 50 47 43 39 42 42 47 48
24 24 21 19 18 18 17 18 21 25 26 33 32 30 31 36 41 43 42 44 54 57 65 67 68 52 47 49 52 50 53 53 49 48 61 46 52 54 53 53 53 46 51
27 24 20 18 19 20 20 25 26 27 34 33 33 37 38 42 44 43 45 53 55 52 58 58 55 56 56 50 51 52 56 59 62 67 79 76 79 73 66 71 66 66 65
26 22 20 20 20 21 25 28 29 36 35 33 34 40 45 47 48 52 59 57 53 47 46 55 54 56 45 45 54 62 65 76 82 93 97 89 82 81 86 74 64 72 68
23 22 21 20 22 25 28 31 39 39 36 36 40 45 48 49 50 62 62 60 52 43 53 43 48 41 48 56 65 74 80 91 93 94 97 97 95 95 80 87 83 79 76

GFSMA_prec_cthk_003.txt.gz
RH
37 38 39 39 39 39 40 42 41 42 44 43 43 42 42 43 42 43 41 39 39 39 39 39 40 40 38 35 31 29 25 19 18 19 19 22 23 23 22 20 19 19 19
41 42 45 47 47 47 46 46 47 48 48 46 45 46 44 44 45 45 43 40 38 36 35 34 34 35 37 38 37 33 30 30 28 22 18 19 26 27 27 27 26 24 22
46 48 49 49 48 48 49 49 47 42 39 37 39 38 38 39 39 39 39 38 36 35 33 32 32 32 35 37 40 43 43 41 38 35 33 28 24 28 29 30 30 31 31
45 48 49 49 47 44 41 37 34 32 33 36 41 41 39 36 34 32 31 33 36 34 33 32 33 35 37 38 39 41 47 50 49 46 45 42 38 32 28 30 31 34 39
45 46 44 40 38 36 35 34 35 37 38 36 35 33 29 29 28 28 32 38 40 41 46 38 35 35 35 36 41 44 45 46 50 55 58 58 57 51 46 41 39 40 40
40 38 37 35 34 35 38 38 38 36 33 31 29 27 28 25 26 30 36 34 37 40 38 30 39 52 35 43 39 45 52 58 56 52 52 54 56 61 64 64 59 51 48
36 34 35 37 39 39 37 32 29 26 26 26 24 24 20 24 23 30 31 34 31 25 30 29 40 51 66 37 54 69 73 71 68 71 68 65 69 70 69 69 71 73 70
36 40 41 37 33 27 25 23 23 21 22 21 21 20 23 21 22 19 20 20 24 30 29 31 30 29 28 33 34 46 54 59 60 60 63 71 74 79 78 77 75 73 72
42 37 32 27 24 22 20 18 19 19 20 20 20 23 24 24 24 24 21 26 23 19 24 24 21 20 20 19 19 20 24 32 39 55 60 62 64 75 73 76 79 82 81
34 30 26 24 22 20 19 17 18 18 20 20 19 20 20 24 26 24 23 21 19 18 16 18 18 16 16 21 23 24 28 35 43 47 51 54 69 74 86 93 85 77 86
27 25 23 21 20 19 18 18 18 17 19 21 20 21 22 25 23 21 18 16 15 15 15 15 22 17 18 35 33 48 43 43 44 46 54 62 65 79 86 81 83 98 90
27 28 26 22 20 19 19 18 18 18 19 21 20 20 17 17 19 18 17 17 18 18 21 18 19 26 28 33 42 48 56 55 53 52 53 64 70 79 83 84 82 95 97
32 32 27 23 21 20 19 18 18 19 20 18 16 16 14 14 16 17 19 19 20 20 18 15 16 24 22 24 29 31 38 34 45 51 52 54 61 63 75 82 86 93 92
35 32 27 23 21 20 20 20 19 18 17 17 16 15 14 15 15 19 19 23 21 20 16 16 19 15 21 24 21 21 19 24 28 31 38 45 50 54 51 61 82 92 94
36 32 26 24 22 21 21 19 17 17 18 16 15 15 16 16 17 19 21 23 26 26 19 16 19 17 30 25 35 30 23 22 28 29 21 34 49 50 49 43 59 73 80
36 30 27 25 23 22 19 18 19 19 18 17 17 17 17 18 20 22 22 25 27 29 30 23 23 25 28 32 35 32 35 30 30 37 34 31 40 46 55 51 50 52 57
33 30 28 26 22 20 20 21 21 19 18 17 17 18 19 20 22 23 24 25 28 34 42 28 32 29 28 31 30 34 38 42 37 37 36 42 36 43 51 50 43 32 31
32 30 28 23 22 22 23 23 20 19 18 17 18 20 22 23 24 26 27 30 35 34 39 43 33 33 33 34 39 45 40 36 36 39 41 46 45 44 58 61 56 61 46
33 30 25 24 24 25 24 21 19 18 17 18 19 21 24 27 29 31 34 36 34 37 43 48 40 39 43 47 48 49 42 33 36 36 41 46 47 56 47 61 66 69 72
31 27 25 26 27 27 23 19 16 15 16 19 21 25 30 32 34 35 36 39 43 41 42 51 50 50 52 46 58 58 42 37 33 35 38 39 44 52 65 70 73 66 70
29 28 27 28 28 24 19 16 16 18 19 22 24 32 34 36 38 43 43 45 47 49 47 51 51 54 51 45 49 48 48 42 38 46 46 43 50 71 70 62 64 62 59
30 29 29 29 24 20 18 20 21 22 24 26 32 35 37 39 41 43 44 46 56 57 57 60 61 59 51 49 51 52 53 52 44 42 55 47 60 58 54 55 59 68 58
30 30 29 26 22 20 21 21 23 25 27 34 38 39 40 42 45 43 43 46 56 59 63 67 63 57 53 56 53 53 51 46 46 49 66 58 74 69 72 64 59 64 63
30 29 26 23 22 21 22 23 26 29 36 40 42 47 48 46 45 47 49 55 59 57 57 61 61 55 59 57 61 56 53 54 58 66 76 89 94 93 84 80 67 65 62
30 27 24 23 22 22 25 28 32 39 41 44 48 51 52 53 50 52 59 60 49 47 54 58 57 58 59 60 58 59 57 61 71 84 91 96 95 94 87 83 73 69 68
27 25 24 23 24 26 30 35 43 45 46 47 48 50 53 54 52 57 62 56 56 54 56 54 51 51 53 55 63 71 76 76 82 84 88 94 95 97 96 90 84 78 69

GFSMA_prec_cthk_006.txt.gz
RH
40 40 42 45 51 50 50 49 47 46 46 45 43 40 38 38 41 43 43 43 41 40 40 40 39 39 39 40 42 44 44 43 40 36 31 25 21 25 26 26 24 23 23
43 44 49 50 50 50 50 49 46 41 35 33 32 33 35 36 38 38 39 37 36 36 36 35 33 32 33 35 38 38 43 48 50 45 43 40 37 30 29 28 27 26 25
44 47 50 50 49 46 44 39 33 31 30 31 33 36 39 38 35 32 31 28 31 35 36 36 36 41 39 34 33 36 37 39 46 54 56 52 48 47 45 41 37 30 28
46 46 45 41 38 37 34 33 33 33 34 34 33 32 28 26 25 24 27 32 35 39 41 41 46 39 41 41 40 46 43 38 40 45 52 59 62 62 60 56 52 50 51
45 40 34 34 34 33 34 34 35 33 30 26 25 22 21 21 20 25 25 26 29 33 33 33 41 33 35 39 58 58 60 60 55 55 54 57 58 61 68 72 73 70 62
37 34 33 32 33 35 35 33 28 24 20 19 17 17 16 19 18 19 22 24 25 27 28 28 26 25 29 34 42 38 60 58 54 61 69 72 79 76 69 69 71 75 80
34 31 31 35 37 34 29 24 19 17 17 16 17 15 15 15 16 16 15 15 14 15 18 21 24 25 26 23 23 17 23 34 35 36 48 58 63 71 77 80 74 79 74
34 36 37 36 30 25 21 18 18 17 16 16 17 16 17 15 16 15 18 14 17 18 15 12 10 12 14 14 13 12 11 10 13 21 28 41 55 59 65 77 82 81 74
36 35 33 28 22 19 18 17 17 16 16 16 17 18 19 20 16 15 12 14 10 11 9 9 10 11 10 13 13 9 12 17 19 23 26 31 36 53 64 65 73 78 85
34 33 26 24 21 19 18 17 17 17 17 16 17 16 15 16 17 18 15 13 12 12 12 14 13 19 18 11 13 20 35 36 35 35 36 37 46 54 53 53 61 73 82
29 26 25 25 24 21 20 18 18 18 18 18 17 16 16 16 14 16 17 16 15 14 15 15 18 13 11 18 17 16 24 26 29 43 48 46 51 54 52 52 60 68 77
27 29 30 28 25 22 21 20 20 20 19 17 17 17 17 17 17 17 18 16 17 16 18 16 17 14 18 21 25 19 16 12 16 31 41 50 66 64 58 50 53 61 67
33 35 34 30 26 24 23 22 21 19 17 18 19 18 17 17 17 19 21 18 20 17 16 15 15 19 18 17 25 24 20 25 20 13 17 28 40 50 58 44 56 55 55
36 36 34 28 27 26 24 22 20 18 19 20 19 18 17 17 17 18 18 22 21 18 15 18 20 18 19 31 26 27 27 26 30 29 28 23 23 27 30 31 30 44 41
39 37 31 29 28 26 24 22 20 21 21 20 18 17 16 15 16 16 19 21 26 24 22 18 20 20 24 25 29 37 33 28 30 28 32 35 35 36 35 38 36 34 43
39 34 31 30 29 27 24 22 22 22 21 20 17 15 14 14 16 17 20 25 28 33 30 20 24 24 22 27 28 35 34 32 32 39 39 40 39 41 43 44 47 44 41
38 35 32 31 28 26 24 24 24 23 21 17 14 13 14 15 17 21 25 27 31 37 42 27 26 25 26 29 27 30 38 43 41 45 47 44 40 40 41 41 39 42 48
39 35 32 29 27 26 25 25 24 21 17 16 15 14 14 17 20 24 29 34 37 39 41 38 33 34 35 32 35 35 36 43 45 45 48 44 35 38 41 41 38 38 48
39 34 30 28 27 27 26 23 20 18 18 17 15 15 17 21 24 32 37 39 41 44 48 51 41 39 42 45 42 42 42 40 38 39 39 40 47 47 45 44 42 41 52
36 32 29 28 27 24 23 20 19 19 18 18 18 19 22 28 36 39 42 47 51 52 52 52 53 51 50 48 61 59 45 38 35 41 38 45 45 38 42 48 48 49 61
33 30 28 25 24 23 21 21 20 21 21 21 21 24 30 38 42 49 53 55 56 55 60 59 59 61 61 57 57 53 48 40 37 45 46 32 39 38 38 42 48 49 61
32 29 26 25 22 21 21 22 23 23 24 26 26 29 37 41 45 53 55 56 59 65 61 61 62 60 54 57 60 58 52 54 48 52 46 42 54 50 56 63 64 65 77
30 26 25 23 21 21 21 23 25 27 28 29 31 37 41 46 50 50 50 56 62 61 60 64 63 58 62 61 60 57 58 58 52 50 58 56 72 74 79 81 88 86 76
27 27 24 23 22 22 24 25 27 29 31 34 40 44 47 48 52 57 59 63 58 56 52 56 62 66 66 63 64 63 63 62 60 65 77 79 85 86 90 95 97 96 87
29 26 25 23 23 23 24 26 31 35 38 40 44 50 55 55 56 61 64 61 58 49 51 57 62 62 60 60 65 69 72 75 71 76 82 84 87 91 94 95 96 96 89
29 27 25 25 25 24 26 31 40 42 42 45 50 54 56 56 54 62 62 58 54 53 57 56 53 54 60 68 79 87 92 88 83 75 83 84 86 86 86 90 97 97 91

GFSMA_prec_cthk_009.txt.gz
RH
42 45 45 43 44 43 44 44 44 43 36 31 29 28 30 32 34 36 38 39 40 38 38 39 43 43 46 45 48 43 39 37 41 46 51 51 47 42 39 34 34 29 25
47 50 49 47 46 46 45 42 38 33 30 29 29 30 32 34 34 33 30 29 28 28 33 34 36 43 50 49 50 51 52 47 47 48 48 51 56 58 56 51 47 42 42
50 50 49 49 46 41 38 33 30 30 31 32 32 31 28 25 23 21 21 22 26 29 31 29 37 37 42 47 49 48 51 60 57 53 52 54 58 58 64 65 65 63 57
51 50 49 44 36 32 29 29 31 32 30 26 22 18 15 16 17 19 21 24 26 26 29 31 33 33 33 31 38 34 41 53 56 59 60 54 58 62 64 63 72 75 75
51 45 38 36 33 30 31 32 31 26 22 18 16 15 15 15 18 15 15 17 19 20 21 24 29 29 27 28 25 25 24 29 36 45 49 49 44 54 58 68 70 72 79
40 38 36 33 32 33 32 29 23 20 18 17 17 16 15 14 13 14 13 13 12 13 14 16 17 18 17 17 20 22 25 21 24 28 27 29 44 48 50 57 64 67 68
36 35 35 35 32 28 25 21 19 18 17 16 15 14 12 12 13 10 10 9 10 10 10 12 11 9 9 8 8 10 10 9 10 17 19 20 25 37 44 53 57 65 70
38 36 34 31 28 24 22 20 18 17 17 16 15 14 14 12 14 13 13 12 13 13 11 10 10 11 11 12 12 12 11 13 13 17 20 26 26 26 29 32 46 59 67
35 33 31 28 25 23 20 19 18 17 16 16 16 17 18 18 16 16 13 16 13 14 13 13 13 13 15 15 12 10 12 14 16 22 24 28 30 34 34 37 34 36 52
35 31 27 27 26 24 21 20 19 19 19 19 18 16 18 19 19 20 16 14 15 13 13 13 13 15 14 13 12 13 11 13 17 21 30 35 33 38 38 41 48 49 50
33 29 29 29 27 24 23 23 22 22 21 20 18 18 18 18 18 19 19 17 16 15 13 14 14 13 13 12 15 14 10 17 18 17 22 29 36 36 37 47 51 56 55
33 34 33 32 28 26 26 25 25 24 22 19 19 20 20 19 19 19 18 16 17 16 15 15 15 16 17 20 15 13 19 18 17 19 21 27 34 34 45 47 45 56 59
39 36 35 33 28 27 27 26 26 24 21 21 21 21 20 19 18 17 17 17 16 14 14 14 18 21 22 20 21 25 22 20 24 26 29 35 37 43 45 46 47 45 47
40 38 36 34 29 27 28 26 25 23 22 22 22 21 20 18 16 14 15 16 16 15 14 16 18 21 22 26 24 24 24 27 24 26 30 37 39 48 48 47 47 45 40
42 40 38 34 29 27 26 25 24 23 23 23 20 18 16 14 13 12 14 16 20 23 19 16 20 21 25 26 26 29 28 25 26 31 36 38 46 49 47 49 45 47 47
44 42 38 32 28 27 26 25 24 24 22 18 15 14 13 13 12 12 15 19 23 26 27 21 23 26 26 28 29 33 34 34 32 36 43 41 50 47 45 43 52 46 44
46 42 36 30 28 27 27 26 25 21 16 15 14 15 15 14 14 15 18 21 27 35 38 23 29 30 30 31 30 36 40 41 41 46 51 48 44 42 42 41 42 44 45
45 40 34 29 28 29 28 26 20 16 15 16 17 17 16 16 16 20 25 30 34 35 45 48 35 38 39 42 44 43 42 43 50 48 49 49 49 44 41 44 45 47 47
44 38 32 30 31 30 27 21 17 17 18 19 20 20 20 19 22 26 31 36 39 45 52 55 51 45 51 54 51 46 43 46 48 50 53 50 48 44 50 48 44 43 45
40 34 33 33 32 28 23 19 18 19 20 21 21 22 22 23 27 34 38 45 52 54 53 52 55 60 60 54 51 48 43 48 49 47 49 49 52 52 42 42 40 40 41
36 34 34 34 30 25 20 19 20 22 22 22 23 24 26 29 35 40 51 49 49 52 56 62 63 60 51 45 50 49 54 52 46 55 54 49 47 45 46 48 49 51 51
36 36 35 32 26 22 20 22 24 23 23 25 27 28 31 34 38 43 46 53 56 61 64 64 61 56 51 52 53 55 60 58 55 61 62 57 61 56 60 65 71 73 67
37 36 34 27 24 22 22 24 23 24 26 29 32 33 34 38 42 43 43 53 54 58 62 62 58 56 58 58 63 65 62 65 69 71 79 70 73 66 70 77 83 89 91
36 34 29 26 24 23 22 24 25 28 31 33 34 37 39 40 45 50 51 51 56 57 56 58 59 62 64 69 74 72 73 81 88 89 88 78 73 71 73 81 90 94 97
34 30 28 26 24 23 24 27 28 32 31 32 36 38 42 45 45 46 54 57 55 53 50 57 62 63 70 74 82 91 92 93 89 90 83 80 72 75 78 79 81 90 97
31 30 28 25 25 25 25 29 34 35 34 32 30 34 37 45 46 55 63 62 56 53 61 60 61 68 79 93 98 98 96 95 95 91 86 83 75 77 78 78 81 87 92

GFSMA_prec_cthk_012.txt.gz
RH
45 47 49 48 48 46 44 44 44 43 37 31 30 30 31 32 33 33 31 29 27 28 28 29 30 31 34 40 48 49 51 56 58 54 53 50 49 51 53 54 51 46 44
48 47 47 50 50 48 46 45 38 30 28 30 31 31 30 27 25 23 22 22 23 24 26 29 32 32 33 37 40 44 46 49 51 49 53 54 54 55 55 59 66 67 65
48 50 52 54 50 48 41 33 29 30 30 29 25 20 18 16 16 17 18 21 23 25 27 29 30 30 31 33 35 35 38 44 44 41 46 50 53 53 51 54 58 62 66
52 53 54 52 42 36 33 33 32 29 25 21 17 17 17 17 17 19 19 20 21 21 21 22 24 27 29 32 30 30 29 25 30 33 25 40 46 47 50 49 49 54 58
56 56 46 39 36 35 34 31 26 21 18 18 19 19 18 17 17 15 16 14 14 13 14 16 18 18 19 19 20 21 20 19 20 22 24 28 30 35 43 49 47 49 52
46 42 38 37 37 34 29 25 19 18 18 19 18 16 15 16 13 14 11 11 10 11 11 11 10 10 11 10 10 10 10 10 14 22 23 25 24 22 28 33 39 45 48
38 38 40 38 34 29 24 19 17 17 18 18 17 15 14 13 13 14 13 13 13 13 12 12 12 12 12 12 12 12 11 11 11 16 19 19 20 20 23 27 30 29 44
40 40 38 35 32 25 20 18 19 20 20 19 18 17 16 15 16 15 16 15 16 15 15 14 14 13 13 13 12 11 10 10 13 15 17 18 19 23 28 28 30 31 34
41 40 37 32 26 23 20 22 23 21 21 21 19 18 18 19 18 18 17 17 17 16 15 14 13 12 12 12 11 10 10 11 11 13 15 17 19 26 27 34 39 39 41
40 38 33 28 26 26 25 24 24 23 22 22 21 20 19 20 20 19 18 17 17 16 14 13 11 10 10 10 10 11 10 12 13 16 17 25 25 25 26 35 37 36 37
37 34 32 30 32 29 27 26 25 24 23 23 21 20 20 20 21 22 20 18 14 12 10 9 9 9 9 11 12 12 13 16 18 25 27 26 27 30 36 35 35 43 48
37 35 35 37 35 31 28 26 26 24 23 23 22 22 22 22 21 20 18 16 15 13 13 11 9 10 12 14 14 14 16 18 18 19 27 30 30 33 38 38 47 45 47
38 40 41 40 36 31 28 26 25 24 23 24 24 23 23 21 18 16 15 13 13 13 13 13 14 17 18 19 19 19 20 20 21 24 30 31 33 34 39 38 43 50 49
44 44 43 40 36 31 28 26 25 24 25 25 25 24 20 17 15 14 14 15 14 13 14 15 17 19 21 24 23 25 24 25 27 33 35 37 38 41 40 38 45 49 50
48 46 44 41 37 31 28 27 26 26 27 27 24 21 18 15 14 14 14 14 18 20 17 16 19 23 25 25 26 29 31 33 37 39 41 43 44 43 44 52 51 52 51
49 46 45 42 36 31 29 28 28 29 28 25 22 19 17 16 16 16 16 17 20 24 27 20 21 25 27 32 31 34 42 44 42 43 46 47 45 46 54 55 52 52 53
50 49 44 40 34 30 30 30 30 29 26 23 20 18 18 19 19 18 18 21 25 32 37 24 25 26 28 31 32 40 50 53 52 45 46 45 45 51 52 51 54 54 53
50 44 41 37 32 32 32 31 31 27 23 20 19 20 21 21 20 20 22 26 31 34 43 42 31 32 34 33 42 50 47 44 43 40 39 47 50 49 50 50 50 51 56
43 41 39 32 34 34 33 32 28 23 20 20 22 22 22 23 23 24 28 31 36 40 44 48 40 39 38 51 52 47 41 36 32 37 47 49 51 53 53 52 57 58 54
42 37 33 36 36 35 34 29 23 20 21 22 22 23 24 27 28 30 33 38 44 41 41 47 53 50 54 58 52 48 36 35 40 48 49 46 46 48 50 50 47 45 46
36 35 37 37 38 36 30 23 22 24 23 22 23 25 28 30 29 35 42 44 44 45 49 54 49 53 56 49 47 44 46 47 53 59 51 56 60 61 59 56 51 47 48
38 37 39 41 37 30 25 22 26 25 24 25 25 28 29 29 32 35 36 43 45 52 54 56 60 56 51 53 50 57 57 65 61 67 78 80 83 76 75 71 64 60 67
37 41 43 38 31 26 24 23 25 25 26 26 27 28 29 31 33 32 34 43 43 51 59 63 57 57 57 61 61 67 71 80 85 84 86 77 82 81 76 71 65 70 76
41 43 38 32 28 25 24 23 23 26 25 25 28 30 33 31 33 41 44 49 56 55 53 55 61 64 65 69 79 91 92 89 88 86 85 82 78 77 69 66 67 71 78
43 37 33 29 27 26 24 23 28 27 27 28 30 34 38 35 38 48 58 56 52 50 51 59 61 69 84 96 99 96 92 93 89 89 85 88 86 81 69 67 67 70 79
36 33 30 29 28 25 24 25 30 34 34 31 32 32 34 43 50 58 56 54 51 51 59 68 83 90 93 96 99 99 97 96 95 90 89 96 93 89 72 70 70 74 80

GFSMA_prec_cthk_015.txt.gz
RH
48 45 48 50 47 47 49 48 45 44 40 32 29 29 29 28 26 26 26 26 25 25 26 27 28 27 29 33 36 39 42 47 49 51 52 51 50 52 53 52 52 57 60
52 48 50 48 49 51 51 48 42 35 32 32 30 26 23 20 19 18 18 19 20 21 22 23 25 27 29 31 32 34 35 38 41 43 44 45 45 47 52 52 51 53 57
53 52 50 50 53 52 47 37 34 35 33 29 23 19 17 17 17 18 20 20 21 22 23 24 25 26 28 29 29 28 30 33 34 36 36 39 39 38 40 44 45 47 49
53 54 53 53 50 39 36 37 35 32 25 19 17 17 16 18 19 21 20 19 17 17 17 18 19 20 21 23 25 28 27 27 26 24 25 22 25 27 32 31 37 43 47
56 56 54 41 36 37 36 34 29 23 19 18 17 16 17 18 18 18 16 14 13 13 13 15 13 13 13 13 14 14 14 14 15 15 15 17 19 20 24 22 25 36 37
56 42 38 37 38 37 35 31 22 17 16 16 16 16 18 17 17 15 17 14 13 13 14 14 13 13 13 13 13 12 12 12 12 12 15 19 18 20 21 21 21 21 22
37 34 37 39 38 37 30 21 17 18 17 18 20 20 19 18 16 16 17 15 15 15 16 15 15 15 15 15 14 13 12 12 11 15 15 18 19 19 20 20 20 21 29
37 40 40 39 36 29 22 19 19 19 21 23 22 21 20 19 18 19 18 18 18 18 18 17 17 16 15 15 13 12 11 10 10 14 16 16 16 17 18 18 20 25 27
42 44 44 39 31 25 22 20 20 24 25 24 23 23 21 21 20 20 20 20 20 20 19 18 17 14 12 10 8 7 7 7 10 12 16 17 18 20 19 21 27 26 26
48 47 40 35 30 28 25 23 27 27 25 24 23 22 22 23 23 22 21 21 21 19 17 14 11 9 8 8 8 9 9 10 12 16 17 18 18 19 25 28 28 29 30
50 45 39 35 33 31 29 30 29 27 25 24 23 23 24 24 24 26 25 22 19 15 12 10 9 8 8 9 10 12 13 15 16 17 17 18 24 29 29 30 31 33 36
50 44 41 38 36 35 35 34 29 27 26 25 25 26 25 26 27 27 25 21 18 14 12 10 10 10 11 12 13 13 15 18 18 19 20 28 31 31 32 33 34 34 38
52 49 47 42 40 39 37 33 29 28 27 27 27 27 27 28 28 26 23 19 18 15 15 16 15 15 16 15 15 16 17 20 21 21 24 32 34 37 37 36 38 43 43
52 53 51 48 44 40 36 33 31 29 29 28 27 28 30 29 27 23 21 19 18 17 16 17 17 18 21 23 23 25 24 22 23 24 33 36 39 43 41 42 45 44 44
52 54 59 52 44 38 37 34 30 30 29 29 30 31 30 26 23 20 19 20 21 22 19 20 21 20 22 24 27 30 29 29 34 38 44 46 47 46 45 43 43 43 45
56 59 65 55 43 37 34 31 31 31 29 31 32 31 26 22 20 21 21 20 21 25 26 19 19 22 26 30 30 32 34 40 41 46 49 50 48 46 45 44 45 45 47
65 63 65 55 40 32 31 33 32 31 33 34 32 26 22 22 22 22 22 22 24 27 29 18 21 20 19 21 30 37 40 47 51 51 53 48 44 46 46 49 55 55 53
69 64 63 43 33 33 36 32 32 35 36 33 26 22 23 24 24 24 24 24 25 28 35 33 25 22 24 29 30 33 40 47 53 48 40 41 47 48 48 50 50 50 54
68 67 54 38 37 37 35 36 38 38 33 26 24 24 25 25 25 24 26 27 30 34 37 39 34 32 32 32 37 43 47 47 43 42 41 44 48 53 52 51 51 53 55
73 66 49 39 38 39 38 39 39 33 26 25 25 25 25 25 25 27 30 34 36 36 35 40 41 40 44 48 54 55 43 44 46 48 51 50 53 58 60 62 62 60 58
71 56 39 39 39 39 41 40 33 27 26 25 25 24 23 23 26 30 34 33 34 40 43 45 45 53 54 52 54 52 53 53 54 63 75 79 79 77 77 76 75 73 69
58 41 38 39 41 42 40 32 27 26 25 25 24 22 22 24 26 30 30 35 44 49 52 59 57 55 51 54 60 70 78 86 83 87 89 80 84 77 75 74 74 75 76
40 38 41 41 43 39 31 27 26 29 26 25 23 24 25 28 29 29 31 40 50 51 57 56 51 51 62 72 87 90 93 94 92 91 92 83 83 79 77 78 78 70 64
40 40 41 43 38 31 28 26 28 26 25 25 26 29 31 30 32 37 45 49 48 46 46 49 57 71 87 93 95 95 93 93 92 92 92 87 88 86 87 86 75 61 65
39 42 43 37 32 29 27 25 27 26 26 28 29 33 34 35 37 46 51 52 48 44 45 65 86 92 92 95 97 93 92 94 88 89 91 93 89 89 88 86 73 64 65
42 41 37 34 31 27 25 24 29 29 29 30 32 30 33 38 41 51 53 48 46 53 80 84 85 87 91 93 97 97 96 94 93 86 93 95 92 93 89 87 76 66 69

GFSMA_prec_cthk_018.txt.gz
RH
53 52 49 52 51 50 48 49 49 46 40 35 32 31 30 26 22 20 19 19 19 21 22 22 23 23 26 29 32 33 33 34 36 42 45 47 51 51 51 52 51 50 50
57 54 54 53 52 50 49 50 45 36 34 34 33 29 22 18 16 16 17 18 20 21 22 23 23 25 27 27 29 30 31 31 32 32 33 37 40 43 45 46 46 49 49
58 56 56 55 55 52 50 38 35 36 34 31 25 20 18 18 18 17 18 19 21 22 22 22 23 24 25 26 27 28 27 27 28 28 29 32 34 35 37 37 38 38 39
59 56 56 57 55 44 37 36 36 33 29 23 20 18 16 16 16 17 18 18 17 16 16 16 17 17 16 17 17 18 20 21 22 23 22 22 23 21 21 24 25 24 29
59 57 58 53 37 35 38 35 34 29 22 18 16 16 16 15 16 19 20 19 17 15 15 15 15 14 15 15 15 14 14 14 13 13 13 14 13 14 14 16 17 17 19
59 59 51 36 33 36 35 34 29 21 17 16 17 17 17 20 21 21 19 18 18 17 16 17 17 16 16 16 16 16 16 16 15 14 15 16 17 18 18 22 21 21 20
60 47 37 35 37 39 35 28 20 17 17 18 19 21 22 22 21 20 19 20 19 19 19 18 19 18 18 18 17 16 16 15 13 12 13 16 13 14 18 18 19 18 19
46 41 40 42 42 38 32 24 19 19 21 21 22 24 23 22 21 20 21 21 21 21 21 22 22 21 20 19 17 15 12 10 9 11 17 17 18 19 19 20 22 20 19
43 42 44 45 43 38 31 25 23 23 23 23 25 25 24 22 22 22 22 22 23 24 24 24 23 22 19 16 13 11 9 9 9 15 17 18 18 19 22 24 26 28 28
45 46 46 45 44 40 33 29 27 26 25 26 27 27 26 26 25 23 23 25 25 25 25 24 21 18 15 13 12 11 11 11 15 18 19 20 20 24 29 30 31 34 32
47 48 49 52 49 43 37 34 30 29 28 29 29 28 28 27 26 27 26 25 25 26 23 20 17 15 13 13 12 12 13 19 19 20 20 25 30 30 31 32 35 40 40
51 53 55 55 52 47 44 38 33 32 31 30 31 30 29 27 27 29 29 28 27 23 19 16 14 14 14 14 14 14 13 19 19 22 29 30 31 32 34 41 42 42 42
53 56 57 55 50 51 51 42 36 32 31 33 32 29 28 29 31 30 31 28 25 20 19 19 18 17 16 14 14 14 14 19 20 21 29 30 32 36 43 43 43 44 44
57 59 59 55 52 52 56 49 37 31 32 31 28 29 32 31 30 33 31 27 22 21 20 21 20 19 18 18 19 22 19 18 19 20 27 30 33 40 44 45 46 45 46
59 61 59 57 58 57 57 46 37 33 29 30 33 35 31 34 34 30 27 25 26 26 21 21 21 19 19 21 21 24 26 27 33 35 35 35 37 38 41 44 45 46 44
63 62 60 64 66 62 54 41 32 31 35 37 35 33 35 34 30 26 25 27 28 27 26 19 19 21 23 22 21 24 25 29 29 30 39 42 42 45 48 44 42 44 48
65 63 68 72 69 61 51 42 38 38 38 37 35 36 34 29 25 26 28 28 27 28 28 18 20 18 17 23 23 28 33 39 40 41 43 48 54 54 52 47 46 47 53
65 70 74 73 66 61 51 41 40 39 36 36 37 34 28 26 27 27 26 27 28 28 32 28 18 19 23 25 27 33 38 45 46 46 48 53 53 52 54 52 58 57 56
71 74 74 72 67 57 42 42 37 38 38 38 33 28 26 26 24 25 26 27 28 31 32 33 29 27 30 40 40 39 41 42 48 55 62 66 69 70 64 61 57 56 56
76 76 76 73 61 44 39 38 39 39 38 32 27 26 24 24 24 27 28 32 34 31 32 37 41 46 47 43 42 41 48 60 69 79 79 80 86 84 83 84 81 78 76
77 79 75 62 44 38 39 39 40 37 31 28 26 24 26 25 27 30 33 32 34 37 42 48 49 46 43 40 49 63 74 77 79 85 82 82 84 84 84 80 78 76 75
82 74 63 42 38 39 40 42 36 32 30 27 26 27 27 27 27 27 28 33 39 46 48 49 45 42 47 63 75 79 81 81 77 88 88 81 87 84 84 85 86 85 85
71 58 40 39 39 42 42 35 31 29 28 28 28 27 27 27 26 26 27 32 44 45 45 44 46 61 75 80 83 83 83 85 87 89 88 79 85 84 87 86 88 88 90
51 40 41 40 44 41 35 31 27 27 29 29 28 28 28 26 29 34 35 42 39 37 38 58 76 79 83 86 88 88 86 85 86 89 90 85 87 84 86 84 83 86 88
42 39 41 44 39 35 31 28 26 30 30 29 29 29 29 32 33 38 44 41 37 40 67 77 81 85 85 87 91 88 86 87 83 86 89 92 89 88 90 87 85 87 78
39 43 44 39 35 32 29 27 31 32 30 29 31 29 29 33 36 40 43 41 51 68 76 79 80 82 83 83 86 89 88 89 88 84 90 92 88 83 86 88 94 91 78

GFSMA_prec_cthk_021.txt.gz
RH
56 56 54 55 53 51 50 50 49 47 39 35 33 33 31 27 23 19 17 17 18 18 19 20 20 22 24 25 27 29 30 32 33 34 34 35 40 44 47 50 51 51 52
61 57 56 56 53 52 52 51 45 35 35 34 32 28 24 21 19 18 17 18 19 19 20 22 23 24 24 25 27 28 28 28 29 29 29 29 30 32 35 40 43 46 47
63 61 57 56 54 54 53 40 37 36 35 31 27 23 21 18 17 16 17 17 18 18 18 18 18 19 19 19 20 20 21 22 22 24 25 26 27 27 26 30 33 36 38
67 65 58 57 56 54 38 36 34 36 33 27 22 20 16 15 15 16 17 18 19 19 18 17 17 16 16 15 15 15 15 15 15 15 15 16 16 17 17 17 17 19 20
70 65 59 58 52 38 37 35 31 31 26 22 19 17 16 17 17 18 21 22 22 20 19 18 17 17 17 17 17 17 17 17 17 17 17 17 18 17 17 16 15 17 20
71 64 60 54 39 39 36 33 30 26 23 20 17 17 19 19 19 21 24 21 20 21 20 19 19 19 19 19 19 19 19 19 18 18 17 19 22 25 24 23 24 23 23
69 64 57 42 41 41 39 36 31 27 24 19 19 19 20 20 20 22 22 21 21 21 21 20 20 21 21 21 21 21 21 21 19 18 16 18 23 22 20 20 20 20 21
69 61 45 44 45 43 41 38 36 32 26 21 20 21 22 23 24 25 25 23 23 22 22 22 23 24 24 23 23 23 21 20 17 15 16 21 21 20 20 20 24 28 28
65 49 46 48 47 46 45 44 41 35 28 22 21 23 23 25 25 26 26 26 25 24 24 25 26 26 26 25 23 21 18 16 15 15 22 22 22 22 25 30 30 31 30
55 47 48 51 52 52 52 51 47 40 30 25 24 24 24 26 27 26 26 26 25 24 25 26 26 25 23 20 18 17 16 15 15 22 22 23 24 29 32 32 32 33 36
47 47 52 54 54 55 54 52 49 45 34 27 25 26 27 26 26 26 26 26 26 28 27 25 24 22 19 18 16 15 15 18 22 23 23 24 30 32 32 34 38 41 41
47 50 54 55 57 58 57 54 50 44 36 30 30 29 29 28 28 28 30 31 31 28 26 23 21 19 17 17 17 16 16 16 22 22 29 31 31 40 41 41 41 42 43
49 53 56 58 60 61 59 56 53 48 35 31 32 30 28 29 32 33 32 31 30 28 26 24 23 22 21 19 18 14 14 17 18 20 23 29 30 39 39 39 40 45 50
51 55 59 61 62 63 61 60 57 48 39 36 32 32 36 37 35 33 32 32 27 25 25 25 25 22 21 21 19 18 19 20 20 25 27 27 28 32 37 37 38 41 44
52 56 59 62 66 64 63 63 59 47 43 39 38 39 38 35 33 33 31 29 29 27 24 22 22 21 21 21 20 21 22 23 27 30 31 31 30 35 40 41 41 40 48
55 59 63 68 67 65 65 66 55 48 46 41 40 39 34 33 33 31 28 28 28 28 24 20 18 21 21 23 24 27 27 28 27 28 34 41 42 43 43 45 46 46 48
61 65 70 70 68 68 68 63 56 53 43 42 35 34 35 34 29 26 26 25 25 25 24 15 20 18 22 26 29 34 38 38 35 33 36 38 41 53 56 58 59 58 58
67 71 72 72 71 71 70 64 57 45 39 34 36 36 33 28 26 25 24 24 24 26 27 22 19 21 26 29 33 35 36 35 36 43 56 63 67 68 71 74 74 73 75
72 73 74 75 75 76 69 59 45 38 36 37 37 32 27 27 26 25 25 26 27 29 29 31 26 27 30 35 34 33 38 54 64 66 68 69 74 77 77 77 77 78 78
74 76 78 79 79 73 60 44 37 37 39 37 31 28 27 28 27 26 29 33 34 33 32 33 38 38 35 32 39 52 58 65 72 74 72 76 78 79 78 78 77 77 78
77 80 81 82 75 62 44 38 39 40 36 30 28 28 28 28 27 31 34 34 34 33 33 43 42 38 34 49 60 65 68 71 73 77 73 78 78 76 77 78 79 80 80
82 82 83 75 62 42 40 41 42 35 29 29 29 29 28 27 27 28 31 34 34 37 45 42 41 41 58 66 69 73 75 75 69 78 78 76 81 78 81 81 82 82 85
84 83 74 59 41 41 42 42 34 29 30 30 29 28 28 28 27 26 24 31 34 37 43 41 49 65 71 74 76 76 75 75 73 75 79 74 80 82 81 78 75 77 86
81 71 50 42 42 45 41 33 30 30 30 30 28 27 28 27 26 30 32 33 34 35 39 59 73 74 78 79 79 77 76 74 72 76 83 79 80 77 73 75 80 88 94
63 44 41 43 46 39 33 32 31 31 30 28 27 26 27 29 30 32 34 35 38 38 59 73 77 79 79 78 79 78 75 74 73 78 80 84 77 73 76 78 88 94 94
43 40 46 44 37 34 33 32 30 30 30 28 28 27 26 27 32 35 37 39 41 61 74 78 79 77 78 77 76 80 79 73 79 75 83 86 73 74 74 74 82 91 93

GFSMA_prec_cthk_024.txt.gz
RH
60 57 56 54 55 55 52 51 49 47 40 32 33 32 30 27 23 22 21 19 19 18 18 19 19 20 20 21 22 24 24 26 27 29 30 31 32 33 34 37 43 49 53
64 62 61 59 56 56 54 53 49 38 34 34 31 29 26 23 22 20 18 17 17 17 17 18 18 18 18 20 21 22 22 22 23 24 26 27 27 27 28 29 30 33 37
71 67 64 61 58 57 56 51 37 35 34 31 28 26 24 21 20 17 16 17 18 17 17 16 16 17 17 17 17 17 17 16 16 16 16 17 18 20 22 23 25 27 27
75 72 69 63 60 59 53 38 36 35 31 26 21 23 21 20 18 17 18 20 19 18 18 18 18 18 18 17 17 17 16 16 16 16 17 17 17 17 17 16 16 15 15
80 77 72 67 63 54 40 38 37 33 26 21 20 21 21 20 19 19 21 21 21 21 20 20 20 20 19 19 18 19 19 19 19 19 18 18 18 19 21 23 21 18 17
79 79 74 70 61 43 40 41 37 33 29 25 24 23 22 20 19 21 22 23 20 20 21 22 22 21 20 20 20 20 20 20 20 20 20 20 21 29 30 29 29 27 26
76 78 74 71 50 44 45 42 39 37 33 29 28 27 24 21 20 22 22 22 22 22 23 23 22 21 21 21 20 21 22 22 22 22 22 23 27 30 29 28 26 25 26
74 78 74 60 49 49 47 46 47 45 41 37 31 28 27 25 22 23 24 23 24 25 25 24 24 23 22 22 23 23 23 22 22 21 20 23 27 27 26 26 26 26 31
76 73 67 52 51 50 52 53 52 50 46 43 37 31 28 27 24 25 25 26 26 27 27 26 25 24 24 24 24 23 21 20 19 18 21 26 26 25 26 33 34 35 35
75 68 56 49 51 53 54 54 54 53 50 46 38 31 29 27 27 26 27 29 29 29 28 26 26 26 26 24 22 21 19 18 17 17 26 26 25 27 34 34 34 36 41
71 63 49 49 52 54 54 56 57 56 55 50 42 34 30 28 28 29 29 29 27 29 30 32 31 29 28 26 24 24 22 24 26 26 25 27 31 33 32 32 38 42 43
65 56 48 52 55 56 58 59 59 60 57 51 42 37 34 32 31 30 30 32 34 34 33 31 29 27 25 25 24 23 18 15 20 19 19 23 29 29 34 39 40 40 41
60 52 52 55 57 59 60 61 62 61 56 51 44 39 35 33 33 36 35 35 32 30 29 28 28 27 25 24 21 19 13 12 14 17 17 22 27 28 31 38 38 39 39
58 52 55 58 59 61 62 62 64 61 58 52 44 39 36 37 38 38 35 32 29 27 27 29 28 27 24 25 22 19 21 23 24 26 27 28 28 29 32 38 38 39 40
59 57 59 60 61 62 64 67 67 64 59 51 44 42 41 39 36 33 32 31 28 26 27 27 26 27 25 25 23 24 27 28 28 29 30 33 37 36 38 39 40 39 41
58 59 62 66 66 68 72 72 68 63 57 51 49 43 39 36 32 31 31 30 29 27 25 25 26 26 26 26 27 28 29 29 29 30 31 33 37 43 47 51 53 54 53
62 66 69 69 71 75 76 72 67 64 59 54 44 39 35 32 32 31 31 29 28 28 25 21 23 26 27 28 31 34 32 31 28 33 41 45 54 55 59 60 63 67 67
68 70 71 72 78 78 75 72 69 66 59 47 39 36 34 33 30 29 30 30 29 28 27 23 24 23 28 30 32 33 35 32 39 49 53 55 60 63 65 67 69 69 68
72 72 73 78 79 78 76 75 70 61 50 40 37 35 34 31 30 32 32 31 30 33 32 30 25 27 29 34 33 31 37 49 58 60 60 61 65 64 68 71 70 69 69
75 75 79 82 81 79 78 72 63 52 41 38 37 34 31 31 33 33 31 33 34 32 31 31 30 29 37 33 34 43 52 63 65 66 64 64 64 66 70 70 70 71 73
77 79 86 83 83 81 74 65 50 41 39 40 35 33 34 33 29 29 30 34 33 32 32 33 39 42 34 35 49 62 65 66 68 69 64 63 65 69 68 70 73 71 68
79 87 84 86 82 73 65 47 41 39 39 36 34 35 35 32 29 29 31 32 33 34 35 42 44 41 40 57 66 69 69 69 66 69 70 63 73 70 71 71 63 65 71
87 86 87 82 71 62 44 41 40 36 33 34 37 35 30 29 29 29 31 33 33 35 39 38 40 48 60 71 73 72 73 72 71 68 71 66 73 72 74 63 65 72 80
89 87 78 69 54 43 41 40 34 31 37 39 34 30 29 29 31 32 32 32 36 36 38 44 56 68 76 78 80 77 73 67 61 65 76 70 71 75 74 66 67 72 81
84 73 62 45 43 42 39 33 33 36 37 32 30 25 28 31 32 32 32 32 34 36 46 64 77 80 82 82 81 76 70 67 60 56 63 69 74 77 71 65 70 76 84
68 47 43 43 43 38 34 35 33 32 30 27 26 31 31 31 31 32 34 35 36 49 67 77 81 79 77 75 72 75 73 67 66 58 63 66 76 83 65 71 74 77 82

GFSMA_prec_cthk_027.txt.gz
RH
60 64 66 60 56 55 54 53 51 49 43 34 33 31 29 27 26 25 25 22 20 18 17 16 17 16 17 17 18 19 19 19 20 22 23 24 26 27 28 29 30 30 32
67 67 64 63 61 59 56 54 52 46 36 33 31 29 26 24 24 23 24 21 19 16 17 17 17 16 15 16 16 16 16 16 16 16 17 18 19 20 22 24 25 27 27
59 65 69 69 67 64 60 56 47 38 35 32 29 25 23 21 20 22 22 22 19 17 18 17 16 15 15 15 16 16 16 17 17 17 17 17 16 16 16 16 15 16 18
60 60 70 72 70 67 64 54 41 38 35 31 26 24 20 18 21 22 22 21 19 19 19 20 19 17 17 17 18 18 19 18 18 18 18 18 18 18 18 18 18 18 17
57 58 64 75 73 69 64 47 42 39 35 32 27 25 22 22 24 25 25 24 21 20 20 20 19 19 19 19 20 20 20 20 19 20 20 20 20 20 20 21 27 27 23
56 59 65 70 74 71 54 49 45 39 37 36 33 29 26 24 25 26 27 26 25 21 20 21 21 21 21 21 22 21 21 21 21 20 20 20 20 22 28 31 31 31 31
57 60 63 65 73 65 53 52 47 45 45 45 42 37 33 29 28 28 28 26 25 24 22 24 22 21 21 21 21 21 21 20 19 20 20 21 22 27 29 29 29 29 31
62 62 70 70 69 57 56 53 51 51 50 49 46 42 38 34 32 28 28 26 26 24 24 24 22 22 22 22 21 20 20 21 21 21 21 21 27 28 27 27 27 32 35
68 69 70 71 63 53 55 54 53 53 52 52 51 46 41 38 34 31 29 28 26 27 27 27 26 24 22 21 22 23 23 23 22 21 20 23 26 26 25 26 31 34 35
73 73 71 72 64 52 52 54 53 55 55 54 52 51 45 40 38 35 33 31 31 29 28 28 27 27 27 26 26 24 23 22 19 18 22 27 27 27 31 33 33 33 33
76 73 77 75 58 52 53 53 55 56 57 56 55 52 47 43 40 37 34 33 31 30 31 32 32 31 29 27 26 26 26 26 27 27 25 24 28 32 33 32 31 35 38
78 77 74 73 56 54 55 56 57 59 59 58 57 54 47 43 41 37 35 33 33 34 33 31 28 26 27 27 26 26 26 25 24 24 24 29 32 32 31 36 40 40 40
76 76 74 62 52 55 57 58 60 61 60 58 57 52 47 47 43 38 35 35 33 32 30 28 28 27 27 27 25 24 23 24 23 21 20 26 28 28 28 35 39 38 38
76 79 66 58 56 59 60 61 61 61 61 61 59 56 52 47 41 39 38 35 33 31 29 27 27 26 26 25 25 24 22 20 18 18 25 27 27 27 28 32 36 37 38
78 67 65 59 60 63 63 63 65 66 67 67 64 56 51 48 44 39 36 34 34 32 28 28 28 28 27 25 25 23 19 19 25 26 28 28 28 30 31 32 34 37 40
77 67 65 61 64 65 68 70 70 71 72 69 61 55 54 48 41 36 34 34 31 30 30 29 28 28 28 27 24 23 24 27 26 27 29 31 34 36 39 43 47 50 51
81 71 66 64 68 72 73 73 74 76 73 66 60 60 53 42 37 35 31 30 32 31 30 29 29 29 27 24 25 27 28 27 25 29 35 39 43 47 51 54 55 57 58
75 74 66 69 73 74 74 75 80 77 71 66 64 56 44 38 34 32 33 32 32 31 32 31 30 26 27 28 29 32 31 30 29 37 44 52 56 58 59 59 60 62 63
85 73 70 74 76 77 77 83 83 75 70 67 59 45 39 35 35 34 34 33 32 31 30 29 27 28 28 30 34 35 31 34 41 47 55 59 58 57 61 62 62 65 66
78 71 75 78 79 80 84 86 78 73 69 59 46 39 37 36 35 35 34 31 30 29 30 29 27 26 30 36 39 34 37 45 53 61 61 60 61 59 60 60 64 65 67
75 77 80 82 82 86 87 81 75 68 56 44 38 37 37 37 35 34 32 31 31 31 29 28 30 32 35 33 36 44 51 59 61 67 65 58 61 59 57 62 67 67 68
78 82 83 84 88 88 83 75 66 53 40 36 37 36 37 36 31 29 33 32 31 31 32 33 36 39 34 41 51 60 66 70 66 69 64 57 59 57 59 63 68 71 68
83 83 84 88 89 81 72 62 48 38 35 36 37 38 34 29 27 28 30 30 30 31 34 35 36 41 49 59 66 69 73 73 66 62 64 60 54 51 54 59 68 74 66
80 83 92 87 77 68 57 42 37 35 35 37 37 32 28 26 27 30 29 30 28 29 31 36 46 58 67 72 74 73 69 62 53 55 64 64 54 49 50 58 68 71 60
91 92 81 74 61 46 40 37 35 36 35 34 30 26 24 27 29 30 30 29 30 29 32 53 67 71 71 71 71 68 65 65 59 55 64 63 57 55 51 55 66 73 63
84 77 64 49 43 39 37 37 36 33 32 28 24 22 23 29 29 30 33 32 29 33 55 64 63 63 64 64 69 72 71 68 64 55 66 66 60 63 50 57 71 73 64

GFSMA_prec_cthk_030.txt.gz
RH
51 51 56 61 59 59 58 55 52 50 46 37 34 31 29 27 27 25 23 22 22 22 21 20 17 17 17 16 15 14 15 15 15 15 14 15 16 18 21 24 25 26 26
60 59 59 57 60 64 61 59 57 52 41 36 33 30 28 26 23 22 21 19 20 21 21 19 18 16 16 16 15 14 14 14 14 14 15 15 15 16 16 16 16 17 19
59 57 58 59 58 65 66 63 61 50 41 36 33 30 27 24 22 21 19 18 21 22 21 20 18 16 17 18 17 17 15 15 16 16 17 17 17 17 17 17 17 17 17
57 56 58 59 59 59 65 67 61 49 45 38 33 31 28 26 23 23 22 23 24 25 24 24 23 20 19 19 20 19 18 17 17 18 18 18 19 19 19 19 19 20 22
56 55 55 56 57 57 59 65 54 52 47 42 38 34 32 30 28 26 25 25 25 25 25 24 23 22 21 20 21 21 20 19 19 19 19 20 20 20 20 21 21 24 28
55 54 55 53 53 57 58 48 50 54 51 48 46 42 39 36 34 32 30 29 28 26 26 24 24 23 22 21 22 21 19 19 19 19 19 19 19 20 23 28 29 30 30
61 63 66 66 55 57 54 44 47 52 54 53 49 46 44 43 42 37 34 31 29 28 26 26 26 25 24 23 23 21 21 20 19 18 18 19 22 24 30 31 30 30 28
63 64 69 75 65 60 54 45 48 51 54 53 51 49 47 46 44 42 39 37 34 31 29 28 27 26 25 24 22 20 20 20 21 21 22 23 23 27 29 28 26 26 28
66 67 69 72 71 66 57 47 48 51 54 52 52 51 48 47 45 42 41 39 37 34 32 30 28 28 26 24 24 24 24 24 24 23 27 28 29 28 26 28 32 34 35
71 70 70 75 76 66 63 54 55 55 54 52 53 52 50 47 45 44 43 41 36 33 32 32 32 29 28 27 26 25 24 23 25 29 29 28 27 29 33 36 35 35 34
71 72 75 77 75 73 69 59 57 57 56 56 56 53 51 49 47 45 43 40 38 35 33 32 29 28 27 26 25 26 25 24 23 26 28 27 29 35 36 36 38 38 39
70 75 78 76 77 77 68 59 57 56 57 58 57 55 53 49 47 45 42 40 37 35 32 30 28 27 27 28 29 28 27 27 28 28 30 34 36 35 37 40 41 41 41
68 73 76 80 78 75 70 57 57 58 60 62 62 59 57 56 55 51 46 43 38 34 31 30 28 28 28 28 27 26 25 27 27 26 27 33 33 31 31 34 39 39 39
70 78 81 75 79 75 60 58 60 62 64 63 65 67 65 61 58 53 47 42 36 33 30 30 28 26 27 27 26 26 26 24 23 21 23 30 29 29 29 31 39 40 39
78 81 74 79 76 73 60 62 63 64 65 69 70 69 66 63 58 51 47 42 37 34 32 29 28 28 26 25 23 22 21 19 19 20 24 26 26 28 30 31 33 35 36
80 75 75 76 74 67 62 64 65 68 71 72 71 70 66 61 56 52 45 37 34 33 30 30 29 28 26 25 22 20 18 19 18 21 21 26 30 33 36 38 40 42 44
75 80 78 77 73 65 65 68 70 73 75 74 73 70 67 60 56 47 38 34 30 33 34 31 29 27 27 24 20 20 20 21 22 20 25 32 37 41 43 45 48 52 55
85 77 77 78 73 70 70 72 75 77 77 76 73 71 64 58 48 38 33 32 36 35 33 29 27 25 24 22 21 22 23 24 22 23 34 39 45 49 52 55 58 58 59
82 82 83 78 80 73 74 76 78 82 80 76 74 67 58 48 38 32 35 36 34 30 27 27 25 24 21 21 23 25 25 24 29 36 41 47 53 53 58 60 62 62 61
84 83 82 81 84 75 76 82 85 84 79 75 69 58 48 37 34 38 38 34 30 26 27 28 26 25 26 24 30 31 30 35 39 48 54 57 60 58 57 58 58 58 59
85 83 82 87 80 80 87 89 86 80 76 71 57 44 34 36 39 39 35 31 30 31 30 30 29 28 30 32 35 41 45 48 54 60 60 60 57 54 53 52 54 54 58
89 83 81 86 89 89 91 86 79 79 67 53 40 33 37 38 35 31 28 28 32 31 30 29 30 31 31 40 50 56 58 56 50 56 54 47 49 46 50 53 54 57 56
84 91 92 88 88 89 83 83 75 62 48 34 34 38 38 34 28 25 27 30 29 27 29 32 32 33 44 54 58 57 56 55 53 53 55 48 48 47 50 51 54 56 58
91 83 84 89 86 87 79 67 54 39 33 36 38 36 32 27 25 27 29 29 27 25 27 28 36 48 58 58 57 57 57 56 53 52 58 50 50 49 50 51 52 53 56
81 86 92 88 82 69 56 42 34 35 38 35 32 27 24 24 26 29 29 27 26 26 26 33 51 59 57 57 60 61 59 59 53 57 69 63 57 54 52 51 53 55 57
92 86 84 67 54 42 36 36 38 37 33 26 21 21 21 23 27 29 29 30 30 26 31 51 58 54 54 57 62 66 67 67 67 62 74 66 64 67 55 57 59 59 57

GFSMA_prec_cthk_033.txt.gz
RH
61 53 52 52 50 51 52 54 55 54 53 44 38 35 32 30 28 26 24 23 22 21 20 21 22 22 20 17 14 14 15 15 15 14 13 13 14 14 14 15 16 19 21
52 53 57 58 53 53 52 52 54 56 53 43 40 36 31 28 27 25 24 23 22 20 20 20 22 21 19 17 15 16 17 17 17 16 15 14 15 15 15 15 15 15 16
53 56 55 54 54 52 53 53 53 55 47 44 42 39 33 29 28 27 26 24 23 22 21 23 23 24 23 22 21 21 20 20 19 19 18 17 16 16 16 16 16 16 17
53 53 54 55 52 52 53 53 53 49 43 45 44 42 38 35 32 30 29 28 26 25 25 25 25 24 24 23 23 22 22 22 21 21 20 19 18 18 18 18 18 19 21
52 51 53 54 51 51 51 50 51 41 40 41 44 46 45 43 39 37 35 33 32 30 28 27 26 25 24 24 23 23 23 22 21 21 20 18 18 18 18 19 20 23 27
55 55 57 56 57 59 61 57 47 40 41 41 44 47 47 46 44 42 41 39 38 37 34 31 28 27 26 26 25 25 24 23 22 21 20 19 20 23 24 25 27 28 29
57 58 58 59 60 65 67 66 48 43 44 45 46 47 48 48 47 45 43 43 42 40 37 35 33 32 30 28 27 26 24 23 22 20 19 20 26 28 30 31 31 31 31
60 63 62 62 62 63 65 65 54 48 46 47 48 47 49 49 46 45 44 43 42 41 38 36 36 33 31 29 27 25 25 24 23 23 25 28 31 32 31 31 30 32 34
58 61 65 68 68 67 67 66 61 56 51 52 54 54 53 50 46 44 42 42 42 42 40 38 35 31 28 27 27 26 25 24 23 27 30 30 31 30 31 34 37 37 37
60 64 65 70 72 71 72 68 63 63 56 56 57 57 57 54 50 46 44 43 43 41 39 37 34 32 30 29 28 25 24 24 25 30 32 32 31 32 35 38 37 37 38
63 65 67 72 72 75 75 69 65 69 60 57 58 57 55 53 51 50 48 47 47 47 44 39 35 32 29 26 25 26 26 27 30 30 29 29 30 33 38 38 38 38 38
60 65 70 75 76 79 78 72 71 71 66 59 56 58 59 57 54 51 51 51 50 50 45 40 35 30 27 27 27 28 29 28 30 30 31 33 38 37 37 40 41 41 40
61 60 66 72 77 80 77 74 73 67 66 60 60 62 61 59 60 58 54 52 51 48 43 40 34 30 28 28 29 28 27 26 26 28 27 29 33 32 31 33 38 39 40
60 61 63 72 79 80 82 73 70 69 64 63 63 64 64 65 64 61 58 55 51 45 40 38 33 31 30 29 27 25 24 23 20 21 21 25 29 28 28 28 35 38 38
64 64 66 76 82 86 80 80 72 74 66 65 67 67 69 69 66 64 61 56 51 42 37 35 32 30 28 27 26 24 23 19 18 19 18 20 26 28 28 30 34 38 40
66 66 71 77 81 87 83 75 79 70 68 70 69 71 73 72 69 65 61 55 46 41 35 32 31 30 29 25 21 20 18 16 14 13 19 24 26 29 30 32 37 39 42
69 73 76 81 92 84 76 82 75 70 72 72 73 75 76 75 71 65 59 52 44 36 34 32 32 30 24 20 17 16 15 15 15 14 19 21 27 33 35 37 40 44 46
76 78 82 95 79 84 82 80 74 73 75 76 76 80 80 76 70 62 55 45 37 34 35 34 30 25 22 19 18 18 18 17 17 17 24 31 34 37 43 47 52 54 53
80 89 84 89 95 78 81 81 82 77 79 79 85 83 79 73 66 56 45 37 35 38 36 31 26 23 21 18 18 18 20 18 22 27 34 37 42 45 51 54 56 56 58
84 87 94 90 80 81 84 84 84 83 88 89 84 81 76 66 56 44 37 38 40 36 30 28 27 24 21 19 21 22 22 27 32 38 42 43 42 42 44 44 46 47 49
90 92 85 89 87 87 89 94 96 92 90 85 82 74 64 50 40 37 40 40 35 30 29 30 28 26 24 23 23 26 33 37 38 39 37 37 38 39 39 40 42 44 46
88 85 87 90 93 93 97 97 91 86 87 80 70 58 42 35 37 38 35 32 30 30 31 31 30 29 26 24 30 39 44 42 37 42 43 41 42 39 40 42 42 47 52
94 94 96 95 98 97 92 85 89 81 72 62 45 35 35 38 37 32 27 26 27 27 30 30 29 27 26 35 44 48 48 48 48 46 48 43 47 45 48 47 48 50 50
95 97 98 91 90 89 87 81 74 62 45 35 35 37 36 31 27 24 26 30 30 29 27 27 27 27 38 50 56 53 52 50 50 51 58 52 55 54 54 53 54 54 55
96 89 91 89 86 84 73 57 42 35 36 39 37 29 25 23 22 24 29 30 29 27 26 25 25 41 53 58 56 55 56 55 51 56 68 63 58 57 59 56 59 61 62
85 84 81 83 62 44 38 36 38 39 37 29 25 22 19 20 22 29 31 31 31 26 23 25 41 54 57 55 60 63 64 65 65 60 71 66 66 71 57 60 63 66 68

GFSMA_prec_cthk_036.txt.gz
RH
47 48 54 56 50 53 52 49 49 48 51 51 44 39 39 35 31 28 27 26 25 25 24 23 21 21 22 21 20 19 17 14 15 16 17 17 16 15 15 13 13 14 16
49 50 54 53 54 55 53 50 50 51 50 47 42 40 38 36 33 30 28 27 27 27 25 24 23 20 20 21 22 20 19 17 17 19 19 19 18 18 17 16 15 15 14
49 51 51 52 55 54 53 51 50 50 51 41 37 39 38 39 37 35 33 30 30 29 28 26 25 25 25 24 24 24 24 23 23 22 21 21 21 20 19 18 17 17 17
53 54 52 52 53 54 52 51 49 49 47 36 35 36 36 40 43 42 40 38 36 34 33 32 31 29 27 25 25 25 25 24 24 23 23 23 22 21 21 21 24 24 25
53 52 52 52 52 53 53 53 56 57 52 39 37 36 37 37 39 42 43 43 42 41 39 38 36 35 34 31 29 27 26 26 25 24 23 22 21 20 20 20 22 25 27
52 56 57 57 55 57 57 60 62 63 51 46 43 41 40 40 41 43 44 44 44 44 42 41 40 38 36 34 33 32 30 28 26 25 25 23 23 26 27 28 28 28 28
53 58 57 59 61 63 63 62 62 60 50 49 47 46 43 43 43 44 45 46 43 41 40 40 38 37 36 34 32 31 31 29 27 26 26 24 28 31 30 30 30 31 31
61 61 60 60 64 67 67 67 66 60 55 53 52 51 49 48 49 50 50 48 46 44 43 41 39 37 35 34 31 30 28 25 24 24 28 30 32 32 31 31 32 35 37
69 67 68 65 65 64 68 71 69 63 60 58 56 55 53 52 53 53 52 48 46 45 43 40 39 38 36 34 32 30 28 26 25 27 31 31 31 31 32 34 37 41 40
70 66 65 67 69 68 68 71 69 66 64 60 62 59 58 57 57 53 52 50 50 48 46 46 44 41 39 37 33 30 29 27 27 29 30 31 33 37 38 40 40 39 38
68 73 74 73 71 71 73 76 73 72 69 66 65 65 61 59 58 56 56 55 53 53 52 49 46 44 39 35 32 29 27 26 28 31 32 33 34 36 38 39 38 38 38
63 68 70 73 74 73 75 80 77 76 71 69 68 68 64 60 60 59 58 57 58 59 58 55 51 46 39 35 31 28 26 28 28 28 32 32 31 34 36 38 36 35 35
58 63 70 72 74 76 77 76 77 77 76 75 71 66 66 62 61 60 60 59 58 58 58 59 54 47 39 33 30 29 29 27 26 25 29 29 29 30 32 33 32 31 34
56 60 68 74 78 81 76 75 78 76 75 74 69 69 65 64 63 64 62 62 59 58 57 57 54 46 38 34 32 29 27 26 24 23 25 25 22 21 25 29 29 28 31
65 68 73 79 83 79 74 78 79 72 90 79 71 76 68 66 66 66 65 64 63 59 55 55 50 43 37 33 31 29 27 25 22 20 19 20 20 21 28 28 28 28 31
66 73 79 81 81 79 75 77 77 82 84 82 72 71 68 68 69 69 69 69 66 61 55 50 44 38 34 32 30 29 25 21 18 16 16 20 20 23 26 28 29 30 32
68 71 79 79 77 74 75 79 88 92 86 76 76 74 71 72 74 75 75 74 70 62 55 46 39 35 33 31 28 23 20 17 15 14 13 20 20 23 31 32 33 35 37
75 75 80 77 74 75 79 86 96 85 78 78 75 73 74 77 81 82 80 76 68 60 50 40 37 35 34 29 24 20 17 15 14 13 15 22 26 29 32 35 39 43 45
77 78 76 75 78 77 85 91 84 91 82 80 79 80 88 88 90 83 76 68 60 49 42 40 39 37 31 25 21 18 17 13 14 17 21 25 30 33 38 38 38 40 37
76 75 76 81 80 86 87 88 90 80 84 88 92 97 96 90 81 73 66 54 45 42 42 41 35 31 27 22 20 20 17 15 21 25 29 33 35 34 34 35 35 33 33
76 80 84 85 91 91 91 90 88 92 98 98 97 91 84 77 68 56 45 40 42 43 38 31 30 28 24 23 21 19 21 25 27 34 35 35 36 35 37 39 39 38 37
82 83 83 91 90 91 98 99 99 98 97 94 86 75 67 54 43 36 39 44 39 32 30 29 29 30 25 23 21 23 30 34 35 40 40 37 41 38 41 44 46 45 45
82 87 92 95 98 99 99 98 94 88 83 76 67 51 39 35 37 38 33 27 26 26 25 31 31 28 25 22 27 33 40 45 44 42 45 38 44 42 45 48 51 50 51
94 94 99 97 98 98 92 92 88 79 65 46 36 35 38 37 30 25 24 25 25 25 28 28 26 22 23 29 39 46 50 48 46 48 54 45 51 47 48 48 53 56 60
97 97 97 98 97 93 89 76 56 39 34 37 39 35 29 25 20 22 24 27 31 27 25 22 22 25 35 44 53 54 52 55 52 54 63 55 51 49 48 48 56 66 71
98 97 95 88 83 58 42 36 35 38 38 32 28 25 20 17 19 23 30 31 27 21 22 21 24 34 47 54 57 60 62 63 63 58 65 61 57 62 51 50 59 71 74

GFSMA_prec_cthk_039.txt.gz
RH
48 48 49 49 48 52 55 54 53 49 47 47 46 39 39 39 37 33 31 29 28 27 26 26 26 25 24 22 20 20 21 21 20 19 16 15 16 17 17 17 17 16 15
46 48 53 54 50 53 55 55 52 50 48 47 44 37 34 34 35 34 33 33 33 31 29 29 29 28 26 24 24 23 22 23 22 21 20 19 20 20 20 19 19 19 18
43 48 58 58 54 55 57 54 53 53 50 47 40 35 32 31 30 32 35 38 38 37 36 35 33 32 31 30 29 27 25 25 25 25 25 25 24 23 22 22 22 21 20
44 51 55 57 56 59 58 57 54 53 51 52 46 42 37 34 33 33 32 34 37 39 40 39 39 38 37 36 35 34 33 31 28 27 26 25 24 24 23 23 24 25 26
48 51 55 56 55 57 58 57 56 56 59 60 49 46 42 40 38 35 35 37 39 41 41 41 40 39 38 37 37 36 36 34 32 32 31 29 27 25 25 25 27 29 29
49 56 54 53 57 62 62 61 60 61 61 58 48 46 44 44 42 41 40 41 42 43 44 43 40 37 35 35 34 33 33 32 31 30 30 30 29 29 31 33 33 32 31
58 62 62 57 58 60 64 65 64 65 64 57 50 48 48 47 46 45 46 46 47 49 47 46 43 40 38 36 34 33 32 30 28 27 27 32 32 32 33 32 32 32 31
54 64 62 63 63 61 64 66 66 68 68 59 54 53 51 50 50 50 51 50 51 50 47 44 43 42 40 39 39 37 35 32 29 28 30 32 33 32 32 33 34 35 35
63 67 66 70 75 73 69 68 67 65 67 60 56 53 52 53 53 52 53 54 54 51 49 48 46 45 46 45 43 41 38 35 32 30 34 33 33 33 35 38 39 41 42
61 64 71 81 82 79 75 75 77 74 71 65 60 59 58 58 55 55 55 55 55 55 53 51 50 50 49 47 44 41 39 35 32 34 36 35 35 36 38 40 42 42 41
65 64 64 76 79 80 84 86 86 84 77 72 69 65 61 62 61 60 57 56 58 58 56 55 54 53 51 47 44 41 38 34 31 30 33 35 34 34 35 38 41 42 41
56 59 60 65 71 80 84 85 86 85 81 78 73 69 65 67 65 68 62 59 59 59 59 58 57 56 53 49 45 42 39 34 30 28 28 35 35 34 34 36 37 39 36
55 59 60 61 64 72 78 83 85 87 87 82 73 71 71 71 76 68 68 62 60 61 64 65 62 59 56 52 47 42 38 33 29 29 28 33 35 33 31 29 30 32 34
66 64 63 62 64 67 74 82 85 89 89 88 75 74 72 73 75 73 72 66 63 63 66 70 69 66 61 56 51 44 38 33 30 27 25 25 29 28 27 26 29 33 32
49 62 67 72 72 73 77 84 87 89 91 82 76 79 79 89 82 73 78 72 67 65 66 71 71 69 63 57 50 44 37 32 30 28 26 23 22 26 25 24 25 31 30
43 54 66 74 79 78 82 87 86 88 83 78 79 80 86 79 79 74 77 77 74 72 69 70 71 66 58 51 45 38 34 32 30 27 24 22 24 24 23 23 28 30 31
44 52 66 73 78 81 83 85 84 82 79 82 80 84 93 83 77 77 83 82 81 79 74 69 65 60 52 46 40 33 31 29 26 23 19 16 21 23 25 30 31 33 33
57 64 70 81 82 82 81 79 80 85 79 83 87 96 91 86 84 84 88 87 86 81 73 64 62 55 47 40 35 34 32 26 21 17 15 15 22 24 27 29 33 35 35
63 80 82 85 82 78 77 80 82 82 80 82 92 90 92 91 93 96 96 91 82 77 70 61 50 42 39 39 35 29 23 19 16 14 15 18 22 24 30 32 35 36 36
75 82 85 84 82 81 83 81 80 81 84 85 94 94 93 96 98 94 87 79 71 61 50 44 40 40 37 30 26 23 20 18 16 17 17 22 26 30 32 33 34 32 32
79 84 90 86 85 84 82 82 83 87 94 98 98 98 98 95 87 79 70 59 51 44 43 41 36 31 27 25 24 23 21 18 20 22 23 27 32 34 36 37 37 37 35
83 90 89 88 85 87 80 89 91 95 98 98 98 93 86 80 69 56 45 38 41 41 35 31 28 27 27 27 25 23 22 27 27 29 33 32 38 37 41 40 40 40 41
94 91 89 85 86 89 91 98 98 98 97 93 85 79 68 52 40 36 36 33 28 26 27 29 28 27 27 24 25 25 30 34 37 40 45 35 43 42 46 46 49 49 49
95 94 89 91 97 90 98 96 97 95 87 78 66 52 42 37 35 30 25 26 25 25 26 26 26 23 24 25 30 34 39 42 42 44 55 44 50 48 49 49 52 53 55
99 92 92 95 97 98 97 91 81 69 48 42 36 35 34 29 23 21 23 26 27 25 25 24 21 22 24 29 39 43 46 48 47 51 63 58 53 52 50 49 54 61 66
98 98 98 97 93 84 71 57 46 43 37 35 29 26 24 21 18 25 28 29 27 24 22 21 20 21 31 41 50 54 57 60 62 56 63 64 61 64 53 50 53 65 71

GFSMA_prec_cthk_042.txt.gz
RH
47 48 50 49 48 47 48 52 53 52 51 49 47 43 37 34 31 30 30 30 30 31 31 30 28 27 27 27 27 25 24 23 22 21 21 21 20 18 16 16 18 18 18
46 45 47 49 51 48 50 52 55 54 51 50 49 45 36 33 29 28 27 27 29 32 34 35 34 32 32 31 30 29 29 28 27 25 25 25 24 24 22 20 21 21 20
43 44 46 49 53 52 53 55 56 56 53 51 50 44 39 38 35 32 30 30 29 30 32 35 37 37 36 37 38 37 36 35 34 32 30 29 27 26 25 26 25 24 23
41 43 45 50 55 55 57 59 59 56 54 53 52 51 46 43 40 37 35 34 33 32 34 37 38 38 38 37 37 38 38 38 37 36 35 33 32 30 29 27 27 27 27
44 43 46 52 56 57 57 58 59 58 56 57 57 53 46 44 41 40 38 38 38 38 39 39 39 39 39 39 37 34 33 33 33 32 32 31 30 29 30 34 36 36 35
48 46 47 53 57 55 53 57 60 62 60 61 60 52 47 46 44 43 42 41 40 41 43 44 44 43 42 41 39 37 35 33 31 30 29 28 27 26 28 35 36 36 36
51 51 52 58 61 59 58 59 60 62 62 64 63 54 49 49 48 46 43 43 43 45 47 47 47 44 42 42 41 39 38 37 36 35 33 32 32 33 34 34 33 32 32
59 58 58 64 73 69 67 65 66 64 64 64 64 56 50 50 49 46 45 45 46 46 47 48 48 47 47 46 45 45 43 41 39 37 35 35 37 37 36 35 35 35 35
65 69 66 63 67 72 70 73 77 78 71 70 69 62 53 51 51 50 51 50 49 50 49 49 49 49 49 49 48 47 46 43 40 37 37 41 39 37 36 37 39 42 44
58 67 68 69 75 80 79 81 86 86 89 84 81 74 65 59 57 57 56 54 54 55 53 51 52 52 51 51 50 49 49 45 42 38 37 40 39 37 36 37 40 43 44
51 62 68 76 76 77 77 81 85 85 88 90 92 88 78 71 66 62 59 60 60 62 61 57 56 55 54 53 52 51 50 47 45 42 38 36 38 36 35 37 38 40 41
48 53 63 74 79 78 75 79 82 85 86 89 91 89 82 79 74 67 64 64 68 66 63 62 60 57 56 55 55 53 51 49 45 43 41 36 39 38 36 36 36 37 36
56 59 62 64 67 69 68 69 78 83 85 86 88 88 86 87 80 77 76 68 70 69 67 69 66 61 60 60 59 57 54 50 47 44 40 36 34 34 35 35 34 33 34
52 59 65 66 66 68 71 71 77 78 85 86 87 88 90 83 88 82 73 73 74 79 79 75 72 70 66 64 64 61 57 53 48 43 39 33 31 27 29 33 33 32 33
46 50 54 61 66 77 77 77 75 78 83 84 86 89 87 93 89 86 82 82 85 79 82 80 80 80 74 71 69 63 58 52 46 42 38 36 32 29 32 33 31 30 32
33 38 45 49 60 71 77 86 86 87 88 87 85 86 93 85 80 84 80 82 87 83 77 81 86 86 79 73 69 64 58 50 46 41 36 32 29 30 33 31 29 32 33
31 35 41 45 53 64 79 84 88 92 91 88 87 85 91 82 80 90 93 93 92 90 87 89 89 83 77 71 66 59 48 39 36 33 29 27 23 27 27 28 30 30 32
35 35 43 48 53 59 69 84 94 93 90 90 90 92 89 91 89 83 96 95 98 97 97 88 86 78 70 63 50 41 38 34 33 28 22 17 19 23 24 26 27 29 29
46 45 48 55 57 69 78 85 86 87 87 87 96 91 86 95 85 96 99 98 98 96 89 80 72 64 53 45 40 36 34 29 23 19 16 17 20 21 20 26 28 32 32
52 50 55 61 66 74 82 84 92 86 87 88 98 96 87 87 95 94 98 97 90 83 75 66 55 47 41 38 34 29 26 23 21 18 16 20 23 25 26 29 30 31 31
63 67 68 69 79 83 85 85 87 94 91 98 95 88 87 97 98 97 90 82 74 66 56 48 47 41 32 27 27 28 26 22 22 20 19 23 28 28 31 34 36 36 36
78 78 81 78 76 82 86 89 91 90 95 94 88 96 98 95 88 80 72 61 53 48 42 35 29 28 28 28 29 28 26 25 24 26 28 27 34 33 38 39 42 45 45
80 92 80 77 77 81 85 91 91 97 95 90 96 96 88 79 69 55 45 39 33 27 27 28 27 28 29 30 29 25 24 26 31 34 39 30 40 39 44 46 52 53 54
87 78 82 87 85 86 92 97 90 96 98 93 82 71 57 46 40 35 29 24 24 22 24 26 26 24 23 23 24 27 32 35 37 42 51 42 48 46 48 50 56 59 61
91 98 93 94 97 97 97 96 95 85 71 58 52 47 39 31 25 22 20 24 28 27 25 22 18 18 19 21 30 35 40 45 46 51 58 55 52 49 48 50 56 63 68
98 97 97 97 98 91 83 67 58 44 39 36 30 26 24 21 18 24 27 26 24 21 18 15 14 16 26 35 44 50 53 54 55 53 60 58 54 58 48 51 57 63 64

GFSMA_prec_cthk_045.txt.gz
RH
45 47 46 45 45 44 44 47 49 51 53 51 49 47 41 35 31 28 27 26 25 27 28 30 30 31 30 29 28 27 27 28 28 27 26 25 24 23 23 22 20 17 16
45 46 47 46 46 45 45 48 52 53 52 52 50 49 44 35 33 32 29 28 28 28 29 28 30 33 34 35 34 33 33 34 34 34 33 32 30 28 28 26 25 25 23
47 47 46 45 45 47 46 49 53 54 54 53 51 49 46 40 39 38 35 33 32 31 30 30 30 32 34 36 36 36 36 35 35 35 36 35 35 34 32 30 29 27 26
51 51 46 42 44 47 48 51 54 56 55 54 53 51 50 44 42 39 37 36 33 33 34 34 34 36 36 36 36 37 38 36 34 33 33 33 33 32 32 32 31 30 29
53 54 53 46 44 45 50 54 55 56 56 57 56 56 54 46 42 41 39 38 37 37 35 35 36 38 40 40 40 40 39 38 37 35 33 31 29 28 27 27 29 31 32
53 56 58 52 47 46 49 53 56 56 58 58 58 61 59 48 44 42 41 40 39 38 37 38 39 41 42 43 42 40 39 39 37 36 35 34 33 32 30 29 35 34 32
53 60 60 59 53 51 51 55 57 60 63 62 62 62 61 53 48 46 44 41 40 38 40 42 41 41 43 43 43 42 42 41 40 40 38 37 37 36 39 39 37 35 34
47 54 61 65 63 61 59 61 62 67 70 70 68 67 62 57 51 49 45 43 42 42 43 44 45 46 45 45 44 44 43 42 42 40 38 38 40 42 40 38 36 35 37
44 51 59 64 68 71 69 66 68 71 74 77 81 79 70 65 60 56 52 50 48 48 48 47 48 50 50 48 47 47 46 45 44 43 42 43 47 45 43 41 40 42 41
45 50 57 62 67 72 78 77 71 74 82 82 86 87 88 85 81 70 66 62 58 55 54 52 53 53 53 52 50 50 50 49 48 45 44 43 46 48 45 43 42 41 43
41 45 54 59 60 67 76 77 80 81 85 87 85 88 86 85 87 83 77 75 71 67 63 60 57 60 60 59 57 53 53 52 51 50 49 47 44 46 47 45 44 42 42
39 42 51 55 60 64 70 75 78 84 86 89 91 89 89 88 86 82 78 79 79 75 69 70 68 66 64 62 62 63 60 56 54 53 52 50 47 48 48 45 42 39 37
44 42 46 53 57 60 69 77 81 82 85 88 88 90 91 90 85 83 75 79 77 83 82 75 72 70 66 71 68 66 67 64 60 56 53 50 46 43 38 36 39 40 38
44 49 54 54 61 67 72 75 81 83 85 86 86 90 89 85 83 81 76 82 84 95 87 75 75 80 75 77 75 71 75 69 65 60 54 49 47 42 36 34 37 40 38
37 42 48 54 62 69 74 79 78 83 86 87 88 90 89 84 82 82 83 84 88 85 84 82 86 83 81 86 86 82 77 69 65 60 54 49 44 40 35 33 34 35 33
31 31 36 43 52 61 68 74 75 81 92 95 94 92 93 89 85 89 88 86 89 91 86 80 84 92 93 96 95 88 81 70 63 56 51 46 41 34 35 35 34 33 33
37 35 35 37 43 49 56 64 66 73 84 91 94 94 91 87 87 95 92 88 91 94 89 89 86 94 98 96 90 85 76 64 54 48 42 37 32 29 32 30 28 27 29
54 48 42 42 42 45 50 55 59 66 72 82 92 89 89 92 96 90 97 91 98 94 96 96 94 97 95 88 80 72 63 55 46 39 36 29 21 20 20 20 25 26 29
71 65 56 52 48 49 57 62 65 68 70 70 71 79 96 92 92 92 91 99 98 96 96 96 97 90 83 75 67 55 47 42 38 29 20 18 18 18 19 20 28 29 29
84 78 66 59 57 56 61 68 71 74 74 83 82 87 98 98 94 93 98 98 96 91 94 90 83 75 64 55 48 40 32 26 24 20 19 20 21 22 23 25 25 26 27
84 79 78 72 62 60 65 69 69 71 78 84 95 95 91 97 98 97 98 96 94 88 80 73 60 50 42 33 28 29 29 26 24 19 19 20 22 24 27 29 30 32 33
85 87 81 79 77 71 70 74 83 85 87 99 91 89 93 97 93 96 85 81 76 64 48 44 40 33 29 27 28 26 25 24 22 22 24 27 31 30 32 35 40 42 44
93 92 90 88 88 91 92 83 89 84 89 89 97 98 95 93 86 77 65 53 48 40 33 30 27 27 28 25 21 20 21 24 29 32 33 32 39 37 41 43 47 48 49
97 90 87 97 98 89 85 89 87 91 92 98 95 87 74 62 54 46 36 26 22 20 22 25 25 22 18 18 21 22 28 35 38 40 42 39 41 41 42 41 44 46 48
96 96 91 91 85 94 98 98 96 92 83 71 57 50 45 37 29 22 20 21 22 23 20 17 13 13 15 16 26 35 40 43 42 43 48 48 49 45 40 39 41 46 49
98 98 98 98 98 97 90 71 59 51 46 40 32 26 21 17 15 18 22 21 19 15 12 11 11 13 22 35 40 43 44 44 48 51 56 58 60 59 52 50 50 51 52

GFSMA_prec_cthk_048.txt.gz
RH
50 51 51 49 47 47 47 47 45 45 46 47 47 47 46 41 36 37 37 29 27 26 26 27 28 28 29 30 31 31 30 29 28 28 29 30 29 28 27 26 25 24 23
46 49 51 51 51 50 47 45 44 46 47 49 49 49 47 43 38 36 39 37 31 31 30 29 28 28 29 31 32 33 34 35 34 34 34 34 36 35 34 33 31 29 27
48 47 47 52 52 51 47 43 44 46 48 51 51 50 48 46 40 38 38 43 37 33 31 30 31 31 33 33 34 34 35 35 34 34 35 34 34 34 34 33 33 32 31
52 50 48 51 56 54 46 41 43 46 48 52 52 50 50 48 43 40 39 38 37 39 34 34 33 33 33 34 35 37 38 38 38 37 36 35 33 31 29 28 28 28 29
69 58 54 56 53 56 55 46 44 46 49 54 53 52 52 51 47 41 40 39 38 36 37 36 36 35 35 36 37 38 40 40 38 37 35 34 32 31 30 29 29 29 29
59 61 60 60 60 56 56 52 48 50 50 54 55 54 55 55 52 45 42 41 40 38 37 37 36 37 39 39 39 39 39 39 38 39 38 38 37 36 35 34 35 40 38
54 54 57 59 60 57 60 59 57 54 52 55 60 59 59 58 56 49 45 44 43 41 38 38 38 39 41 42 43 44 42 40 39 39 39 38 38 37 37 39 43 41 39
46 53 54 57 60 60 61 63 62 61 60 58 64 65 66 64 64 61 51 48 47 45 43 42 43 44 45 44 45 47 47 46 43 41 41 40 39 42 45 46 45 43 41
42 44 46 53 54 59 62 64 66 68 71 68 67 73 72 71 69 72 67 61 60 55 53 52 51 51 50 48 48 49 49 48 47 45 45 43 43 43 47 48 47 46 45
39 42 44 52 52 54 61 64 68 70 78 76 76 75 75 77 76 74 78 79 75 73 69 65 62 61 58 54 53 53 56 55 54 50 49 48 46 45 48 51 50 48 48
31 37 42 49 56 58 57 65 66 72 77 83 80 81 82 86 84 83 81 82 81 80 75 74 69 67 66 65 63 62 62 61 59 57 56 54 51 50 53 55 53 52 50
36 35 36 42 47 50 61 66 68 73 73 81 84 86 87 90 91 91 86 84 84 83 78 76 75 74 75 77 73 67 66 64 63 63 62 63 59 57 55 53 51 50 48
37 38 42 44 45 49 55 64 71 73 75 83 85 86 88 90 93 95 91 89 85 84 81 80 73 77 83 88 80 73 69 71 72 69 72 70 65 59 53 50 48 47 47
40 37 39 45 50 53 56 59 65 75 73 82 92 89 87 90 94 93 91 89 87 82 79 80 80 90 90 81 78 70 73 80 78 82 80 73 68 62 55 51 46 42 41
37 38 40 45 51 53 60 63 65 71 73 78 89 90 91 92 92 92 91 85 86 83 81 92 90 88 83 88 84 82 78 86 92 91 86 79 70 62 56 51 45 38 35
47 48 45 43 45 51 55 61 67 77 82 87 89 91 93 94 91 92 94 90 85 92 89 91 91 91 88 90 92 92 92 89 90 88 86 78 69 60 55 48 40 37 40
52 52 54 56 52 46 49 55 61 67 73 78 89 93 94 96 93 91 92 92 88 90 91 95 95 97 97 98 99 96 96 90 86 82 77 72 65 56 47 41 39 40 36
60 59 65 63 66 62 55 51 52 59 64 67 72 77 78 82 85 84 89 91 89 95 96 99 98 97 96 97 98 95 87 85 78 68 61 54 49 42 36 30 26 28 25
68 70 73 69 74 75 68 62 59 59 62 66 67 68 72 74 75 78 92 96 91 98 98 99 96 94 94 94 87 80 76 68 57 47 38 29 25 22 20 18 19 23 25
78 81 83 82 82 82 77 68 65 63 66 71 73 76 76 74 88 82 84 95 98 96 94 97 95 94 89 82 76 64 53 47 43 37 28 25 23 19 20 20 20 19 19
83 89 91 93 88 90 82 73 70 69 68 73 75 78 77 79 98 91 96 96 97 97 96 90 85 82 73 59 54 45 37 30 26 23 22 24 26 26 25 22 21 23 25
93 99 98 96 98 92 85 76 73 70 72 75 76 81 87 97 98 98 95 92 90 86 77 70 59 51 43 36 32 28 26 24 22 20 26 26 30 28 28 27 28 30 31
98 94 96 96 95 94 92 91 84 78 78 84 95 92 87 90 93 91 88 78 66 50 41 38 36 30 25 25 24 18 20 20 23 30 33 31 32 33 34 37 37 34 31
96 98 97 96 96 97 97 95 96 98 96 90 93 89 92 84 71 55 40 32 28 23 22 23 23 22 21 20 19 18 21 30 35 37 38 35 40 42 45 48 46 44 40
95 96 93 95 93 93 89 87 93 93 94 87 78 62 48 39 31 23 18 17 18 21 17 15 12 11 11 11 13 27 34 38 37 37 40 42 46 49 52 54 54 54 53
96 97 98 98 97 98 93 81 68 56 49 42 38 30 24 16 12 16 20 20 19 17 15 11 15 11 13 24 33 35 37 38 39 37 41 43 48 55 52 58 61 62 62

GFSMA_prec_cthk_051.txt.gz
RH
54 55 50 48 46 49 47 48 48 45 44 43 44 46 45 44 42 39 38 35 31 29 26 26 27 26 26 25 26 27 29 30 31 31 31 30 29 30 31 31 30 29 28
55 55 57 54 53 51 50 49 46 43 41 43 45 47 47 46 43 40 38 38 34 32 32 30 28 28 26 27 28 30 30 32 33 33 33 32 32 32 32 33 33 33 32
59 57 58 55 54 57 54 54 52 45 39 39 43 47 49 49 45 42 40 40 39 36 34 32 31 29 29 30 30 30 31 32 34 35 35 34 33 33 32 30 28 29 30
63 62 61 62 60 58 58 57 56 55 46 39 40 46 50 50 47 45 43 41 42 38 36 34 32 31 33 33 32 33 33 34 36 37 37 36 34 32 31 30 29 28 27
60 61 63 64 68 66 60 59 58 55 53 49 43 43 48 52 50 49 46 42 40 40 39 36 34 33 34 35 35 36 37 37 37 38 38 37 37 35 34 33 32 31 31
48 53 58 62 67 69 69 66 64 60 55 55 53 46 46 50 51 52 51 46 43 41 40 40 37 36 35 36 36 38 39 40 41 41 40 38 38 37 35 35 34 34 38
45 48 51 58 60 63 64 65 65 63 60 59 60 57 52 51 52 56 57 52 48 46 43 41 40 38 37 38 39 41 42 42 43 44 43 42 40 39 39 39 42 46 45
38 43 46 46 52 56 60 64 66 66 65 64 63 65 62 58 55 59 64 63 59 59 54 49 47 46 44 44 45 46 47 47 46 46 47 45 44 43 44 48 49 48 48
41 44 42 47 50 55 57 60 64 66 66 67 70 69 70 66 64 62 69 70 68 66 69 65 65 62 56 58 58 57 56 54 52 51 51 51 51 49 46 47 52 51 50
33 39 44 48 52 56 56 56 58 65 71 70 75 76 76 72 75 72 69 71 75 73 73 77 73 72 72 67 63 62 64 62 61 58 59 58 55 54 54 53 56 56 54
32 31 37 45 48 54 59 67 61 61 65 72 74 81 85 84 81 81 79 76 78 81 82 81 79 76 74 71 66 64 67 69 71 69 65 62 58 59 60 63 64 66 63
37 40 41 42 47 50 52 55 61 65 67 74 75 76 79 84 85 87 91 88 87 87 88 88 82 79 79 74 69 70 66 71 75 76 73 68 66 65 68 68 66 63 62
35 38 37 40 43 48 53 59 61 62 66 70 76 77 80 82 88 90 94 95 92 91 91 91 86 82 79 80 73 73 74 82 77 76 73 68 67 73 73 70 69 67 62
45 48 48 43 44 48 54 58 59 60 68 67 68 77 83 86 86 93 95 96 96 94 94 92 91 91 87 82 79 81 90 87 84 75 76 80 83 81 77 74 71 67 63
40 42 47 51 49 53 56 60 64 63 65 66 70 76 76 82 88 97 97 93 95 96 93 86 90 90 91 85 89 90 90 88 90 85 85 91 91 84 75 72 69 65 61
38 40 47 51 50 50 59 68 68 73 76 74 76 81 84 84 89 96 99 98 97 96 91 92 96 92 93 92 87 88 94 93 94 95 96 93 87 80 71 68 65 62 57
40 44 51 53 56 52 55 57 68 75 76 78 84 83 86 91 96 97 98 96 95 96 98 91 89 92 97 96 93 94 94 96 93 94 89 85 78 70 61 56 53 49 47
40 43 48 54 60 63 66 71 69 70 72 72 77 85 87 87 88 90 90 91 90 88 88 83 97 95 98 96 98 97 97 94 87 82 79 73 66 58 50 41 37 33 33
42 48 53 63 69 75 75 76 77 76 78 76 71 71 74 82 83 81 82 82 78 84 91 78 82 87 91 94 97 95 95 89 83 75 68 58 45 37 31 29 26 24 25
48 51 64 74 77 84 88 85 84 79 81 81 78 75 74 74 77 76 76 77 80 75 88 98 92 98 97 92 87 81 75 71 62 46 38 33 26 24 22 20 19 19 19
55 61 72 80 85 92 89 91 90 85 88 87 82 77 76 78 80 78 83 80 80 80 88 92 96 89 82 79 69 59 48 38 30 24 24 20 21 20 18 18 20 21 22
66 71 81 82 88 93 94 90 93 97 95 90 82 72 72 79 80 80 78 83 91 97 94 82 71 70 60 46 38 32 23 21 16 15 19 16 20 20 21 23 24 26 29
76 80 88 91 95 98 98 97 98 98 92 86 84 83 75 80 84 98 95 89 76 66 56 40 34 33 27 22 21 18 16 15 14 18 25 22 24 25 26 28 31 33 34
78 80 82 83 91 94 97 97 98 98 98 94 93 91 89 89 85 74 60 46 33 28 24 20 18 15 17 17 17 16 16 17 25 30 33 27 27 27 27 30 36 38 40
77 81 83 85 88 92 95 96 92 93 91 89 81 72 62 51 41 34 26 21 15 17 19 15 12 10 9 9 9 10 22 30 31 31 32 33 32 33 31 30 35 40 44
73 78 80 75 72 64 60 55 49 44 40 37 32 28 24 19 15 13 12 16 18 17 16 12 12 13 11 13 22 29 32 32 35 37 39 39 39 39 33 30 33 40 44

GFSMA_prec_cthk_054.txt.gz
RH
47 48 48 48 44 42 41 41 44 41 40 38 38 38 39 41 41 40 38 37 34 30 29 28 26 26 26 25 23 24 24 24 26 27 29 30 30 30 30 30 30 28 28
49 50 50 54 53 49 49 46 48 48 47 44 41 38 39 41 43 43 39 38 36 34 32 31 31 29 27 26 26 26 26 27 27 28 29 30 31 32 31 30 30 29 29
50 51 51 53 55 55 59 58 53 51 51 47 48 48 41 42 43 45 41 38 37 35 34 33 33 31 29 29 29 30 30 29 30 30 31 32 32 32 32 31 30 29 28
45 48 50 53 57 57 59 60 63 63 55 53 51 49 49 46 43 45 45 40 40 38 36 34 33 33 32 31 32 33 33 33 34 34 34 34 34 34 32 32 31 30 30
38 43 46 51 56 58 59 61 62 64 64 63 58 54 51 51 51 47 46 45 42 41 40 38 36 34 33 33 33 34 35 35 37 38 38 38 37 35 34 33 33 32 31
40 39 41 46 50 55 58 59 60 62 65 67 64 63 56 54 57 56 49 46 47 45 43 42 41 38 37 36 36 35 36 37 39 41 42 41 42 41 39 36 35 35 36
40 40 40 42 48 51 51 57 60 61 62 64 63 63 61 59 59 60 61 53 51 52 49 50 49 48 44 40 40 41 39 40 42 44 45 45 44 44 44 43 41 41 43
41 41 45 45 46 51 55 56 56 59 61 61 61 63 62 62 63 63 65 66 62 58 59 58 58 58 58 53 53 54 49 48 49 52 52 51 49 48 48 49 48 47 49
38 42 48 48 48 53 55 60 59 59 64 69 71 65 68 65 68 66 68 71 73 70 66 66 63 65 67 70 69 65 63 64 64 63 61 61 61 57 57 57 57 54 54
26 31 40 47 50 50 51 54 60 62 67 69 72 67 69 70 72 71 74 76 76 76 77 72 68 70 72 73 76 74 73 71 70 67 65 65 67 68 67 63 59 59 61
32 30 32 36 42 48 54 58 65 67 66 69 72 71 74 74 73 75 77 80 81 81 82 83 80 78 79 81 79 79 78 76 71 69 70 68 68 73 73 73 69 66 63
31 33 32 36 40 44 46 50 58 64 72 73 70 70 74 77 77 79 82 84 87 89 90 88 89 87 86 87 84 82 81 80 76 76 71 70 76 75 72 70 70 72 70
38 40 41 47 50 56 56 55 55 58 62 66 71 72 73 75 81 87 88 88 91 92 92 90 86 91 89 89 89 86 82 83 85 82 80 81 84 83 77 77 76 78 79
34 40 45 44 44 55 58 60 66 68 75 77 76 76 76 74 81 87 89 92 94 94 94 94 94 95 95 95 94 88 91 93 85 90 88 91 86 84 84 87 87 85 75
28 28 30 34 40 42 51 57 59 64 75 82 85 89 90 82 78 88 87 85 87 89 91 94 98 97 96 94 83 94 96 95 88 88 95 90 89 89 93 92 88 82 72
26 28 31 35 40 46 48 50 54 58 65 76 83 91 95 92 87 89 94 93 93 92 90 93 98 97 96 91 98 97 96 92 96 94 96 96 96 95 92 82 77 71 65
30 30 31 34 38 41 45 50 57 60 69 70 77 84 96 99 98 98 99 95 94 94 92 90 98 98 95 97 97 97 90 94 93 95 97 96 94 88 83 75 65 62 57
31 32 33 35 38 45 53 59 64 72 77 81 84 84 84 89 95 98 98 99 97 98 97 99 97 100 90 86 81 87 83 84 83 88 90 84 83 81 71 64 57 50 46
33 34 36 40 44 50 54 59 69 79 84 86 91 92 90 89 88 87 89 93 89 83 84 80 78 73 71 71 79 89 94 97 95 90 81 71 61 53 50 42 37 34 34
39 40 41 44 48 59 61 67 76 88 91 91 93 93 92 95 91 86 82 80 79 78 76 74 71 78 84 79 85 85 83 80 77 63 51 43 36 31 21 19 23 21 20
45 46 50 52 55 60 64 74 82 80 80 86 90 95 92 92 90 89 83 81 79 78 80 91 85 83 85 85 81 71 60 49 34 28 22 14 14 14 14 16 17 18 19
56 56 61 60 59 62 69 75 83 88 91 90 92 93 94 96 92 86 86 90 85 79 89 85 83 72 62 52 41 34 27 18 14 11 11 9 16 15 18 20 22 23 24
60 63 63 63 64 68 74 80 83 89 91 97 98 98 89 91 93 86 79 84 82 76 66 53 43 31 27 27 19 16 15 13 10 10 15 15 21 22 23 23 24 24 26
59 62 64 67 69 72 77 82 85 87 92 97 98 97 94 93 86 79 71 57 44 33 27 21 17 14 13 13 13 12 11 10 10 20 25 22 24 24 26 27 27 27 28
56 59 62 61 57 59 59 57 53 51 51 50 48 46 44 38 33 27 21 16 15 15 16 14 12 11 10 10 10 10 10 17 24 26 27 27 29 30 31 32 31 30 31
29 27 27 26 25 24 23 21 19 18 17 17 16 14 12 11 11 11 11 12 15 16 15 14 12 11 10 10 12 20 26 28 29 30 32 34 36 37 34 37 37 37 38

GFSMA_prec_cthk_057.txt.gz
RH
40 43 43 43 41 43 46 47 45 42 40 38 39 40 42 40 35 35 38 41 37 35 30 27 27 26 26 26 24 23 24 23 24 24 24 25 26 28 28 29 29 29 29
40 41 43 45 46 46 47 51 54 55 55 48 44 44 43 45 46 39 36 40 40 37 34 30 29 29 28 27 25 26 27 28 28 26 26 27 28 28 29 30 30 29 29
42 42 43 42 44 47 50 51 54 56 58 60 62 55 51 48 46 48 44 38 43 41 37 34 31 30 29 29 27 28 30 30 31 30 31 31 31 31 31 30 29 29 28
39 38 39 40 42 46 49 52 53 55 56 57 58 59 58 58 54 50 49 47 40 42 41 39 37 34 32 31 30 31 31 32 33 33 33 34 34 34 32 31 31 30 30
36 39 37 35 39 42 44 50 53 56 55 57 59 59 57 59 61 58 55 53 54 46 43 41 40 40 38 35 34 34 35 34 34 34 34 36 37 37 37 36 34 32 32
37 37 40 42 41 43 44 46 49 52 56 57 59 60 60 59 60 60 58 57 58 59 52 44 43 44 43 40 39 39 38 38 37 37 38 39 41 41 41 40 40 40 38
42 45 45 44 45 48 47 51 52 54 56 63 67 65 64 62 57 55 57 60 62 63 65 59 49 49 51 51 50 52 48 43 44 45 43 44 46 47 47 46 46 45 44
42 43 47 43 45 50 52 57 62 63 67 72 75 77 74 68 66 66 66 64 65 66 67 71 68 59 56 59 58 61 65 61 58 57 54 53 54 58 59 58 56 53 56
29 31 37 43 45 52 54 54 61 69 69 73 73 76 73 71 72 72 71 70 71 72 72 75 78 77 71 65 65 66 70 71 73 69 66 67 67 68 67 67 67 63 62
29 30 32 34 42 48 54 54 63 66 62 66 73 74 77 73 72 71 73 73 74 74 79 81 84 84 84 78 72 69 71 77 78 75 75 74 74 71 72 72 69 66 69
29 31 33 34 34 34 38 44 51 51 60 63 66 69 73 74 77 81 81 78 77 76 79 86 88 89 88 85 83 82 79 83 85 83 78 81 78 74 72 71 71 74 73
23 24 26 29 33 38 42 47 52 61 65 66 69 73 79 83 87 83 80 82 86 86 87 89 90 93 92 91 84 85 87 88 91 90 82 84 81 78 76 76 78 78 76
24 29 33 39 39 38 43 47 52 56 59 63 67 71 78 87 90 87 89 83 85 91 93 92 93 93 90 91 94 88 85 95 93 92 92 88 86 91 89 86 85 83 82
27 28 31 34 31 32 33 36 41 46 51 55 61 71 78 88 93 86 95 95 91 89 92 94 95 95 95 93 88 93 96 95 98 97 96 96 96 97 91 90 90 88 85
27 26 27 27 29 31 33 37 41 40 46 48 51 55 64 70 88 96 95 97 98 96 87 91 93 91 89 87 93 97 98 97 98 98 98 98 97 96 97 92 90 90 88
24 24 24 26 28 30 34 36 37 38 42 45 48 56 62 68 76 88 97 96 96 94 90 84 88 93 90 94 95 98 98 98 98 99 98 95 95 94 93 89 90 87 85
25 27 28 27 27 29 31 35 36 41 47 51 58 65 74 78 81 82 94 92 88 97 98 92 89 95 98 95 99 98 95 93 95 91 88 83 88 90 85 87 85 80 76
26 26 27 28 31 32 33 37 43 46 49 56 67 73 83 87 88 86 84 88 92 95 97 98 97 96 99 97 96 95 87 85 83 83 83 82 89 89 88 88 84 71 62
32 33 33 32 36 37 37 40 47 53 59 66 72 76 82 86 89 90 86 86 91 95 94 97 95 97 95 91 88 84 80 81 85 85 87 89 86 83 73 58 47 40 40
42 42 40 39 41 43 43 47 53 58 64 68 73 78 75 78 83 85 87 87 85 86 87 88 85 81 78 79 80 83 87 84 82 75 71 61 47 31 20 19 20 19 17
48 48 47 47 50 50 51 55 62 65 69 71 74 79 78 78 85 86 88 90 90 88 90 84 85 81 83 87 88 83 67 57 45 35 25 17 12 11 11 13 13 15 16
55 53 51 52 52 53 56 59 64 67 69 71 77 82 86 86 86 87 90 92 90 86 82 90 87 84 77 66 51 36 30 28 19 14 10 8 11 12 15 17 19 21 22
54 53 52 52 53 55 59 63 65 67 71 75 80 83 86 90 93 98 97 93 91 87 78 58 43 33 26 20 16 15 16 15 13 10 10 10 16 19 22 23 24 24 24
51 51 51 49 46 43 39 36 36 38 39 42 48 53 55 58 57 47 40 33 25 20 16 13 11 12 13 14 15 14 13 11 9 9 17 21 23 24 26 28 28 28 27
38 32 30 26 22 20 18 16 15 15 15 15 15 13 12 11 11 10 10 11 12 13 14 15 17 16 14 13 12 11 10 11 18 24 26 26 27 28 31 32 33 34 32
23 21 21 20 19 18 16 15 15 15 15 16 16 16 15 12 12 13 13 15 17 18 19 19 16 13 11 11 12 14 21 24 27 28 30 31 32 32 33 35 38 39 36

GFSMA_prec_cthk_060.txt.gz
RH
34 36 40 42 42 41 41 41 41 43 48 50 50 51 47 43 40 41 43 42 38 37 37 34 30 27 26 26 26 25 25 24 24 24 24 24 24 26 27 28 28 28 28
37 38 41 43 43 43 43 43 42 43 47 50 51 51 53 56 54 50 46 45 45 41 39 38 35 31 29 28 28 28 27 27 28 28 28 27 27 28 28 29 29 29 29
38 39 40 40 41 42 43 44 46 47 48 51 53 54 53 52 52 55 58 54 51 50 45 40 38 36 34 32 30 30 30 31 32 32 32 31 31 31 31 31 31 29 28
37 35 33 31 34 37 37 38 42 46 49 53 56 59 58 55 51 51 54 58 61 59 55 53 43 39 37 37 36 33 32 33 34 35 34 34 34 34 35 34 33 31 30
37 35 34 34 40 41 41 42 41 44 45 47 50 55 57 59 58 54 54 54 57 61 63 61 60 50 41 41 41 41 37 38 38 38 37 37 36 37 38 38 38 38 36
40 39 44 51 52 52 50 49 49 50 52 52 56 58 60 63 66 65 61 61 62 60 60 67 68 66 58 45 46 50 47 42 42 42 42 41 40 40 41 41 42 42 42
54 56 58 55 51 55 57 58 59 57 61 64 72 72 72 72 73 74 72 70 67 68 67 65 69 74 71 66 53 51 59 55 52 53 51 47 47 46 45 46 46 47 48
40 38 39 43 42 42 46 53 52 55 60 66 70 76 75 74 76 76 77 76 73 73 71 72 72 74 77 75 71 65 58 63 64 63 65 62 58 57 55 56 56 57 58
30 33 34 32 29 30 33 40 51 59 61 61 67 75 75 70 72 70 71 73 75 75 76 77 79 80 80 82 78 73 70 66 67 72 71 70 68 68 68 67 70 70 70
23 26 28 30 34 34 38 39 40 44 52 58 63 67 74 74 72 69 69 73 76 75 76 79 81 84 87 90 91 86 78 74 72 71 71 84 89 81 77 78 79 81 80
21 24 26 28 33 41 38 37 36 36 39 44 57 60 67 71 75 74 72 70 76 78 84 89 86 87 89 91 91 94 86 83 78 78 80 84 88 92 92 93 91 87 83
16 17 20 24 26 27 32 37 41 45 48 51 54 53 63 70 75 78 79 77 86 92 92 94 91 94 92 92 93 92 93 94 91 91 89 88 96 98 96 96 90 86 85
19 20 22 26 30 31 34 37 37 40 41 43 49 53 53 60 66 71 74 74 78 83 91 93 89 92 94 94 93 96 97 98 96 96 94 95 97 97 96 93 95 96 97
27 27 26 26 28 30 30 30 29 33 36 37 40 40 46 45 50 60 67 74 77 85 82 90 85 96 95 96 96 95 96 96 98 97 97 98 98 98 98 98 98 98 98
27 26 26 25 24 24 25 28 30 31 35 37 36 37 43 43 50 55 63 71 77 86 82 85 98 97 97 98 97 95 96 98 96 98 98 98 97 98 98 98 97 97 97
26 25 24 24 24 25 27 28 30 32 34 35 32 38 41 48 52 64 67 81 88 94 91 81 93 96 98 98 95 98 97 93 98 98 96 94 94 96 97 94 91 92 89
24 23 24 25 24 25 26 27 30 33 34 34 39 43 47 50 57 61 69 80 87 90 88 89 90 91 97 98 93 98 98 99 95 94 95 96 89 87 87 88 87 85 83
29 30 28 26 26 26 28 31 34 33 34 40 43 49 55 58 60 62 69 77 85 89 87 89 92 93 97 90 96 98 94 96 95 92 92 87 87 87 85 85 83 83 83
37 36 33 33 32 32 35 38 38 37 42 48 51 56 60 61 61 62 69 74 79 85 87 85 83 90 87 94 91 91 90 93 93 88 89 85 79 83 81 75 73 67 59
43 42 40 38 37 39 43 44 42 43 49 54 55 58 60 63 67 67 70 75 80 84 87 91 89 87 88 88 89 90 92 89 86 82 77 71 68 59 48 37 25 16 13
47 47 48 47 45 46 45 45 46 49 55 58 58 60 65 68 71 74 77 81 85 84 83 88 91 84 84 85 90 90 86 82 73 57 39 26 19 16 11 9 9 11 12
53 53 52 49 47 46 46 48 50 53 56 57 60 63 67 70 72 76 80 83 87 88 92 93 93 90 81 68 51 36 29 22 17 15 13 11 12 9 10 11 12 14 17
54 53 52 49 46 42 40 37 34 32 33 33 35 37 40 43 49 58 53 50 48 39 32 27 23 21 21 19 16 16 15 15 15 15 11 8 10 13 15 19 22 23 24
51 47 40 30 22 20 18 16 15 14 13 14 14 14 13 12 11 11 11 11 11 12 12 13 13 15 15 16 17 16 16 15 13 11 11 13 19 22 23 24 24 26 28
31 25 22 21 19 17 16 15 15 14 14 14 14 15 15 15 15 14 13 13 13 15 17 18 19 20 19 18 19 15 13 13 12 17 23 25 24 25 26 28 29 30 31
24 24 23 21 20 19 19 18 19 19 19 19 19 20 20 21 21 21 20 19 18 18 19 20 20 18 14 14 15 15 16 20 25 26 27 27 27 28 29 31 32 34 36

GFSMA_prec_cthk_063.txt.gz
RH
30 31 33 34 37 39 39 38 38 39 41 42 44 46 48 48 49 53 56 57 54 50 49 43 40 37 32 29 28 28 27 27 26 26 26 26 26 25 25 26 26 27 28
35 37 38 39 42 44 45 44 45 43 42 42 44 46 47 45 48 45 48 51 56 58 58 55 50 42 38 34 32 30 29 29 29 30 30 31 30 29 29 29 29 29 29
39 41 42 41 41 40 39 39 41 42 42 44 46 49 51 53 53 54 51 49 50 52 58 62 60 55 48 38 37 36 33 32 31 33 34 35 34 33 32 32 32 32 31
39 41 37 36 37 36 35 37 42 42 43 45 47 50 53 56 56 56 56 55 55 54 55 56 61 66 61 55 42 40 39 38 36 37 37 38 38 37 36 35 35 35 33
34 35 35 36 39 38 45 48 48 51 50 50 51 52 53 54 57 61 64 68 68 67 67 65 64 64 67 67 62 55 43 40 40 40 40 41 41 41 40 39 38 38 38
37 41 46 43 46 56 62 60 58 55 55 56 57 54 57 59 63 64 68 73 76 77 77 75 73 72 72 68 68 68 66 53 42 41 42 42 42 43 44 42 41 41 41
48 59 58 57 56 60 52 53 51 52 52 53 56 53 58 66 65 68 74 78 77 80 83 81 78 76 77 77 78 75 72 70 63 49 45 48 50 50 51 48 47 46 46
40 41 42 44 49 46 43 40 38 38 40 48 58 61 62 60 60 64 67 70 72 75 76 78 80 79 83 84 84 85 81 78 75 70 60 52 54 57 64 64 62 59 61
29 33 34 34 32 31 31 29 30 34 39 42 43 56 58 53 54 58 63 66 68 71 74 78 79 82 85 88 90 91 91 88 83 81 74 70 66 66 69 76 79 77 74
22 22 23 25 27 29 29 30 32 38 41 40 41 42 45 47 52 51 55 58 65 69 77 78 79 83 88 90 90 92 94 93 90 87 89 86 79 76 77 77 81 83 81
21 22 21 22 23 26 28 30 34 39 39 39 40 44 50 54 56 54 51 57 66 68 77 78 80 84 87 90 95 94 95 98 94 97 91 94 90 89 87 88 95 96 90
18 18 18 18 19 22 26 29 31 36 42 48 50 47 48 52 54 57 51 52 59 59 60 74 73 76 82 84 88 95 99 98 97 96 97 97 95 96 94 93 96 97 97
21 21 21 21 23 26 30 35 38 40 41 38 38 38 40 41 41 48 48 48 51 51 57 60 68 75 83 81 89 95 98 98 96 99 98 96 98 97 96 97 97 98 98
27 26 27 28 29 29 31 35 38 38 38 36 36 38 41 42 39 42 42 49 54 53 51 55 60 67 72 74 76 81 91 96 98 98 98 98 98 98 96 98 97 98 98
29 28 27 27 27 27 26 26 28 30 32 34 36 38 38 35 34 39 46 57 59 61 59 56 69 77 82 79 74 85 94 97 98 98 98 98 99 96 96 98 98 98 97
26 25 25 25 25 25 25 26 27 28 30 31 33 34 35 34 39 44 48 52 51 55 63 65 73 80 86 86 82 87 94 98 98 98 99 98 98 96 98 93 90 92 95
25 26 26 26 25 26 26 27 27 27 29 31 33 33 36 40 43 49 52 52 54 57 60 67 74 83 88 95 94 92 95 97 98 98 95 96 94 93 95 92 91 87 88
29 30 30 30 31 28 28 28 28 30 33 36 35 40 44 48 52 54 55 55 56 59 63 67 73 80 82 90 90 89 89 90 89 94 97 92 88 88 90 90 88 87 84
35 35 36 37 36 34 32 33 33 35 38 39 41 46 48 51 54 56 57 58 58 62 68 74 77 79 87 88 86 82 86 83 82 87 87 86 85 86 86 80 77 78 76
41 41 42 43 42 39 40 42 43 43 43 43 48 50 52 53 56 58 58 59 61 65 70 76 77 81 85 85 81 84 84 86 85 88 86 85 79 71 66 62 56 47 39
48 48 48 46 44 46 47 47 46 47 47 48 50 51 51 53 56 57 57 60 61 65 69 70 74 81 84 85 85 80 71 69 66 61 54 48 44 40 32 24 17 12 10
53 52 50 49 49 48 48 47 45 42 41 38 37 36 34 35 35 39 48 45 42 43 43 44 43 43 43 42 40 36 33 30 27 21 17 14 12 10 9 8 8 9 10
55 54 52 50 43 35 29 24 20 17 16 16 17 18 19 19 19 18 16 14 14 14 13 13 14 15 15 15 16 15 16 16 15 13 11 9 9 8 9 10 11 13 16
52 50 39 26 23 21 19 16 15 14 14 14 14 14 14 15 15 14 14 15 15 15 15 15 16 16 17 16 16 15 14 13 13 13 13 11 11 14 17 19 20 21 22
35 26 23 22 21 19 19 18 18 18 18 18 19 19 19 20 21 20 20 20 21 21 22 23 22 22 22 21 20 18 17 16 15 15 17 19 21 22 23 22 23 24 26
26 25 24 23 22 22 23 22 22 22 23 23 24 25 25 25 25 25 25 24 24 23 22 22 23 22 21 19 19 20 19 19 22 24 26 27 27 27 25 24 27 30 32

GFSMA_prec_cthk_066.txt.gz
RH
31 28 29 31 34 36 37 36 36 35 37 38 39 39 40 42 43 42 41 43 44 47 52 54 55 52 50 41 34 33 30 28 28 28 28 28 28 27 28 27 26 27 27
30 33 34 36 39 41 40 41 41 40 41 41 42 43 45 46 46 47 48 48 50 50 50 51 53 58 59 55 49 38 34 32 31 31 31 33 33 33 32 31 30 29 30
35 36 39 40 42 39 38 38 37 35 37 40 42 47 49 52 53 55 56 56 57 56 55 58 58 59 60 62 59 54 47 38 33 34 33 35 36 37 36 36 34 33 32
33 35 38 41 42 39 40 39 37 43 49 52 51 50 51 53 56 57 56 59 63 67 70 69 68 68 68 70 69 66 59 52 45 36 34 36 37 38 39 39 39 37 36
35 34 34 37 42 44 46 45 49 56 58 54 54 50 50 51 55 56 58 61 66 67 74 79 81 79 76 75 76 75 76 70 57 49 43 37 39 41 41 41 41 40 39
35 36 35 37 42 52 55 56 60 58 54 50 49 48 49 49 53 58 61 67 69 70 75 78 80 82 82 78 76 76 78 82 79 67 54 50 44 43 43 44 45 45 44
36 38 41 44 53 55 51 51 51 49 44 45 44 37 35 39 49 53 60 61 60 63 68 72 76 76 81 82 79 79 79 84 85 86 73 61 56 53 49 51 53 54 54
37 35 34 36 39 41 47 45 44 40 36 32 35 38 41 40 38 40 50 53 56 60 62 65 68 73 77 80 80 82 84 87 91 92 91 82 71 63 62 62 63 67 70
33 32 31 29 30 31 32 33 32 33 32 32 35 44 47 42 41 41 39 39 45 47 54 57 62 69 76 78 80 82 84 86 91 96 94 95 89 74 70 70 73 74 77
27 26 26 25 24 25 26 29 32 32 32 31 35 40 44 44 43 43 46 50 50 48 50 55 60 64 67 74 77 79 81 86 93 95 92 98 93 94 81 76 76 83 86
26 25 23 22 22 23 23 24 27 30 31 33 38 44 43 47 47 48 45 43 44 44 44 46 48 54 61 66 70 79 86 87 89 95 96 97 93 94 97 91 86 86 87
25 23 21 20 18 18 18 21 25 29 32 37 39 41 46 49 44 41 39 38 39 38 36 37 40 45 48 50 57 65 78 86 87 94 91 96 98 98 97 98 97 96 93
25 24 22 21 21 21 22 23 27 31 37 40 43 44 40 37 38 40 41 44 37 38 39 42 43 47 48 48 51 56 64 71 80 94 95 97 96 96 97 98 97 98 98
25 24 24 26 28 29 29 30 32 35 39 40 41 38 37 37 37 39 40 40 38 42 45 47 49 47 47 50 55 63 71 81 82 82 85 91 93 95 97 97 97 98 97
25 26 28 29 29 28 27 27 28 30 34 35 36 36 38 38 40 40 38 37 41 45 48 48 47 49 51 56 61 72 79 84 90 82 87 91 97 98 98 98 98 98 95
28 29 28 28 27 24 25 26 27 30 33 33 34 36 36 37 36 37 40 42 46 49 49 48 51 52 56 58 65 75 88 92 92 87 95 98 98 98 98 98 98 98 95
31 31 30 28 26 27 27 28 29 30 30 31 32 33 36 37 38 43 47 48 49 49 48 50 52 56 61 63 69 76 89 90 94 97 98 98 98 98 98 98 98 98 97
35 32 31 31 32 33 34 33 32 32 32 35 37 40 39 39 44 48 49 50 50 50 48 50 54 58 61 68 69 75 85 82 87 90 91 95 96 97 94 91 88 89 90
35 36 36 36 37 37 38 38 37 36 38 42 44 43 44 45 47 48 48 50 51 51 51 51 53 57 61 65 70 72 75 76 82 84 84 85 90 88 87 90 88 88 86
40 42 42 42 44 44 44 44 45 47 48 49 48 50 49 48 49 49 50 49 50 48 50 51 51 50 52 54 57 62 68 68 66 65 68 67 67 68 68 66 63 59 56
46 47 47 49 47 48 49 49 51 52 51 50 50 48 45 43 39 36 34 40 40 34 32 35 33 37 41 42 42 42 43 43 43 44 45 47 50 49 48 45 39 33 25
51 51 51 52 50 49 51 50 45 37 32 29 27 26 26 25 23 22 21 20 21 21 22 24 26 25 23 22 22 23 24 24 24 22 20 18 16 14 12 10 10 10 10
55 53 53 51 45 36 28 22 19 17 16 15 15 14 14 15 14 15 15 16 16 17 17 17 17 17 17 17 18 18 18 18 16 15 15 12 13 13 12 11 11 11 12
57 55 45 31 25 23 21 19 18 18 18 19 19 19 20 20 20 19 20 21 21 21 22 22 22 22 20 20 20 19 19 18 16 15 15 14 13 15 16 16 16 18 20
50 37 27 23 23 22 22 22 23 24 24 24 24 25 25 25 25 25 24 24 25 25 25 25 24 24 24 24 23 20 19 18 16 15 16 18 18 20 21 23 23 23 24
26 24 24 24 24 25 27 28 30 31 31 31 31 30 30 29 29 28 27 28 28 26 25 25 24 23 22 21 20 20 19 19 20 22 24 25 25 26 26 26 26 26 27

GFSMA_prec_cthk_069.txt.gz
RH
27 29 28 29 30 32 34 36 36 34 35 35 35 37 40 41 43 44 46 47 49 48 47 48 48 50 51 55 55 51 40 33 32 31 27 26 28 28 29 30 30 29 27
27 29 30 33 35 37 38 39 38 39 38 36 38 42 46 47 47 48 50 52 56 56 54 54 54 55 55 56 59 61 57 50 42 34 34 32 29 31 32 32 33 33 32
31 33 36 38 41 41 40 37 37 38 36 37 45 49 48 47 46 46 48 51 55 56 59 62 63 61 61 63 65 66 67 63 55 49 41 36 37 35 36 37 36 36 36
35 34 35 38 41 41 40 39 40 42 42 46 48 47 45 46 47 49 50 51 54 58 61 66 69 69 70 71 69 68 72 73 70 59 54 50 43 41 40 39 40 40 40
40 39 36 37 39 40 41 42 44 50 51 51 53 48 47 46 47 47 47 48 55 59 61 64 67 68 68 69 69 69 69 70 75 75 69 58 55 50 46 45 43 44 44
41 40 35 35 38 40 41 45 52 54 50 49 49 47 43 42 42 39 39 42 50 53 58 62 63 65 67 67 66 65 68 70 71 75 78 75 65 60 56 53 51 47 47
38 37 36 36 38 40 43 44 46 46 44 47 45 39 29 27 28 32 38 40 41 45 52 55 58 61 62 64 64 66 66 70 72 77 79 83 84 72 65 63 62 60 57
36 36 35 37 35 32 31 33 35 37 37 34 35 34 33 30 32 37 40 41 41 39 42 46 48 54 58 62 63 64 67 69 74 77 77 79 86 88 80 76 74 71 72
32 32 32 33 32 31 28 28 30 32 34 33 33 35 37 35 38 40 40 35 36 40 45 46 48 50 52 54 57 62 66 70 73 76 78 83 79 86 92 89 77 74 75
28 28 28 28 27 27 26 26 26 29 31 31 32 30 33 37 44 45 44 46 46 40 36 39 40 42 45 48 53 56 58 62 71 73 74 82 93 93 92 97 90 87 83
25 25 25 25 24 24 25 24 22 23 26 30 32 33 34 39 42 45 48 45 39 38 35 38 38 36 38 41 46 50 53 55 59 61 71 86 97 95 98 94 97 92 94
24 24 25 25 26 25 23 21 19 19 22 29 34 37 40 43 44 46 42 39 40 40 38 34 35 39 42 42 45 45 47 49 53 58 66 76 84 92 95 97 98 93 95
27 27 27 28 27 26 24 21 21 25 28 32 36 41 41 42 43 42 41 40 41 40 42 37 41 44 45 46 44 45 46 50 54 60 67 78 86 90 91 91 98 96 96
31 30 28 27 25 24 25 27 30 32 34 35 36 40 39 40 39 39 40 42 42 42 43 45 45 47 47 45 47 47 49 53 60 68 71 82 90 98 89 91 96 98 97
30 28 26 23 24 25 27 28 28 28 28 32 33 37 36 36 35 38 39 41 40 42 45 50 48 48 46 45 48 50 54 56 63 73 82 94 95 93 89 93 92 96 96
28 26 26 26 26 26 25 25 25 25 27 32 34 34 35 36 37 39 39 39 42 46 48 50 48 45 47 48 51 53 55 62 67 74 85 93 97 97 94 97 97 97 98
31 30 29 29 29 28 28 27 27 29 30 31 34 34 35 37 39 41 40 44 48 48 49 49 47 46 48 48 50 51 54 61 67 69 82 87 90 93 96 97 97 97 97
35 33 33 34 33 33 31 32 34 34 33 34 36 37 40 42 43 43 46 49 49 49 50 49 47 46 46 48 50 50 55 59 63 67 71 75 81 91 96 98 98 97 97
39 38 38 38 35 35 36 37 38 39 39 40 42 45 45 47 47 48 48 49 50 50 48 46 45 46 42 42 44 44 46 51 56 57 61 64 72 77 83 86 87 87 86
43 44 43 40 41 42 43 44 45 46 48 49 49 49 49 49 48 46 43 37 41 43 36 30 30 33 30 32 34 34 36 38 40 40 42 43 45 48 49 53 59 62 63
47 46 46 46 47 48 49 47 51 51 50 47 42 37 34 32 30 29 27 26 25 26 27 26 28 28 29 29 30 29 29 30 31 33 36 37 40 42 43 44 45 44 44
52 52 51 50 51 52 53 50 41 35 28 26 22 19 17 16 15 15 15 15 16 17 18 18 19 19 20 20 20 20 19 19 18 17 17 16 15 14 14 14 14 13 13
58 58 54 53 52 43 31 24 20 19 18 18 19 19 20 20 20 20 21 21 21 21 21 21 22 22 22 22 21 20 20 19 18 18 17 15 14 14 13 12 12 12 12
61 57 49 40 31 25 22 21 21 21 23 24 24 25 25 25 25 24 24 24 24 24 24 24 25 25 24 23 22 21 21 19 18 18 17 17 16 16 17 17 17 18 19
61 52 40 30 24 23 23 23 25 26 29 30 32 33 33 33 33 31 30 29 29 28 28 28 28 27 25 25 23 22 21 20 19 19 20 22 22 22 23 22 23 24 25
52 38 28 25 26 25 26 27 30 32 34 37 38 39 40 40 40 39 38 36 34 33 32 31 29 28 26 25 24 24 24 23 24 27 28 29 28 28 28 29 29 29 29

GFSMA_prec_cthk_072.txt.gz
RH
27 28 27 26 27 28 30 33 34 34 33 34 35 35 36 42 46 46 43 40 40 43 45 47 47 48 49 51 52 53 54 50 47 42 37 36 33 29 30 29 29 31 31
29 28 28 27 29 31 34 37 39 38 37 38 39 38 42 46 44 41 41 43 44 45 47 49 51 53 55 57 54 55 55 58 56 51 49 44 40 38 35 35 35 34 34
34 33 33 34 35 36 37 38 39 37 36 37 39 44 45 46 44 42 41 42 44 46 48 51 55 57 58 60 62 63 62 59 60 58 54 50 47 44 44 41 40 39 38
37 37 38 39 38 37 38 38 39 38 38 41 47 49 46 44 45 46 44 42 42 43 44 49 53 55 58 58 59 61 63 64 64 63 63 58 55 52 49 47 47 44 43
41 40 39 41 42 39 37 38 40 40 42 47 49 47 47 47 48 48 44 43 40 39 42 45 51 54 59 58 56 57 59 60 62 64 62 65 65 58 56 54 52 51 49
44 41 40 41 42 40 38 40 41 43 41 46 49 47 46 44 41 38 31 31 32 34 38 43 45 48 54 54 54 55 57 60 61 61 64 69 69 69 64 60 60 59 59
42 40 39 39 41 43 42 44 43 43 43 45 47 42 39 31 26 27 31 32 34 39 40 43 44 46 49 51 52 55 56 59 62 63 63 65 70 73 75 75 66 67 70
37 37 37 35 35 36 36 36 35 35 32 34 38 41 37 32 33 30 30 32 37 38 37 38 39 39 42 44 48 51 53 55 57 61 67 72 71 75 78 77 78 77 73
33 32 30 31 32 33 33 33 33 35 34 35 36 38 40 37 37 35 32 36 38 40 44 44 40 40 41 43 46 47 49 52 56 60 65 70 73 77 78 78 81 86 80
29 28 28 28 28 28 28 28 28 27 28 34 31 35 36 36 38 41 40 41 41 44 43 39 34 33 36 38 39 41 46 49 50 54 58 63 69 75 74 78 86 89 98
27 26 25 24 24 25 25 25 25 25 26 27 31 35 34 40 42 45 46 45 47 42 36 36 36 33 32 34 36 38 40 42 45 49 51 53 57 68 77 98 86 95 95
28 27 27 26 25 25 25 25 25 25 25 23 24 31 41 47 50 45 45 47 42 40 39 37 37 35 37 39 41 40 40 39 41 43 46 50 57 68 79 91 88 90 91
32 30 29 28 28 28 28 28 27 25 23 26 33 37 44 46 48 46 48 45 43 39 40 41 38 38 41 43 43 42 41 42 42 45 48 50 55 61 67 78 93 89 86
35 33 33 33 32 32 30 28 26 26 28 32 36 36 42 45 47 43 43 39 40 40 41 42 40 43 43 44 42 40 41 43 46 47 50 54 59 66 71 81 90 92 95
37 37 36 34 32 29 27 25 25 27 27 31 33 38 40 41 42 41 38 39 40 45 43 44 46 46 45 43 42 42 43 45 48 50 56 59 66 77 86 90 90 98 97
36 35 34 33 30 28 26 26 27 26 27 31 33 35 37 38 38 37 38 40 42 42 46 48 48 47 44 45 44 43 45 45 48 53 57 59 68 72 83 96 93 97 97
38 36 35 34 32 31 30 30 29 29 31 30 32 35 36 37 38 38 41 41 43 48 49 49 48 46 46 44 46 44 46 46 50 52 55 58 64 65 74 85 94 97 97
39 37 37 36 35 34 33 33 34 36 34 34 35 35 36 38 41 44 44 45 49 50 48 49 49 48 46 45 41 42 44 43 44 48 51 48 53 61 70 76 84 90 95
42 41 41 40 39 37 36 39 37 36 38 38 38 40 43 45 46 47 47 47 45 47 47 44 32 31 35 36 33 35 36 36 35 38 40 41 43 42 46 52 59 73 81
45 44 44 43 43 44 44 42 44 44 44 46 48 49 47 47 48 43 37 32 29 29 29 30 29 29 29 29 29 29 31 32 33 34 36 38 39 40 41 43 44 46 50
48 49 50 50 50 48 49 52 51 50 50 46 40 35 32 29 30 29 27 25 24 23 24 24 25 25 25 25 24 23 22 22 22 24 26 27 31 33 35 38 40 41 42
57 62 59 53 53 52 52 57 55 44 36 29 27 23 19 18 19 19 19 18 18 19 19 20 20 21 22 22 22 22 22 21 23 20 18 18 17 17 17 17 17 18 19
67 67 65 63 58 58 55 42 31 23 21 19 19 22 23 23 24 24 25 24 24 23 23 23 24 24 25 24 25 26 24 23 23 23 19 18 17 17 16 16 15 14 14
69 69 67 65 55 38 30 25 23 22 22 24 26 26 27 29 30 31 31 32 31 31 30 30 30 30 30 29 27 26 25 24 24 22 20 20 19 19 19 19 18 18 18
72 67 59 46 38 30 27 25 25 26 27 29 30 32 34 36 36 37 38 37 36 35 34 32 31 31 31 30 29 29 30 29 31 30 26 27 27 26 26 25 25 25 25
71 62 52 40 33 29 27 26 28 30 32 34 36 37 38 38 38 38 39 39 39 38 37 36 35 34 33 33 33 33 32 32 33 39 35 34 33 33 32 31 32 32 31

GFSMA_prec_cthk_075.txt.gz
RH
33 32 31 30 30 30 32 34 36 36 36 35 35 37 39 38 40 40 38 37 36 37 38 40 40 39 41 43 43 46 48 51 52 47 44 43 41 39 37 37 37 34 33
33 30 31 28 27 28 33 36 37 39 40 39 38 37 38 40 41 39 37 37 38 39 38 40 41 41 43 47 51 52 50 50 52 56 54 49 46 44 43 41 41 42 39
33 33 33 34 33 33 34 36 37 37 38 38 37 37 40 43 40 41 40 41 42 40 40 41 42 41 41 46 48 52 52 53 52 52 55 56 53 50 47 47 47 46 46
36 35 36 37 38 38 38 39 39 38 38 39 39 43 44 44 44 44 45 46 44 41 38 37 39 40 41 44 46 50 52 51 52 57 56 55 57 54 50 50 49 51 52
43 40 39 40 41 41 42 41 39 38 39 43 46 46 44 45 47 47 43 42 37 34 32 34 34 36 41 45 47 49 51 51 51 53 55 57 59 59 60 56 53 51 54
47 45 45 45 46 44 42 42 43 45 49 51 45 45 44 44 45 42 34 30 31 37 38 36 39 39 41 44 45 48 49 48 51 54 55 59 61 62 64 66 64 60 57
48 46 44 45 44 43 44 44 46 48 47 42 43 38 34 39 40 35 34 33 35 37 36 38 39 40 39 39 41 44 45 48 54 58 62 64 65 66 68 70 71 74 72
41 40 39 40 42 41 39 40 42 44 44 44 44 43 39 36 38 42 36 33 33 39 38 37 40 43 43 43 43 43 45 47 46 49 56 65 73 75 74 74 74 74 78
37 37 36 35 34 36 38 38 40 42 41 37 38 40 41 42 44 43 39 35 39 39 40 41 44 43 36 33 35 35 36 41 42 45 49 51 59 68 71 72 73 77 74
34 32 32 31 31 31 30 29 29 31 35 34 34 32 37 39 45 43 40 39 41 45 46 45 44 36 32 32 35 32 34 35 39 41 42 43 48 55 65 73 83 77 83
33 33 33 31 30 28 26 26 27 26 26 28 30 33 31 33 35 40 49 48 49 46 46 43 41 37 35 32 32 36 36 36 35 35 36 39 40 46 50 62 74 87 85
35 35 34 32 30 29 28 28 28 27 28 29 28 32 32 37 37 46 51 51 48 47 46 43 39 39 36 35 36 39 38 38 36 35 35 36 39 43 48 55 67 76 93
39 37 35 34 32 32 32 32 31 31 32 31 31 34 34 38 42 44 50 52 48 48 43 42 40 40 40 40 41 41 40 39 35 35 36 37 37 43 47 52 64 76 84
39 38 37 36 36 36 35 35 35 34 31 30 28 33 37 39 40 45 49 55 47 47 41 42 42 42 43 46 45 43 39 37 36 38 38 39 41 44 50 59 64 77 84
41 40 40 39 38 37 36 34 33 31 30 28 30 34 36 41 42 50 47 47 44 44 43 45 44 44 47 48 45 41 40 38 37 39 40 41 45 47 53 60 60 74 85
44 42 41 39 37 36 35 34 32 31 31 30 31 34 35 42 42 40 43 41 42 43 46 44 45 48 47 44 43 41 42 40 39 40 42 43 46 48 53 60 65 80 92
44 43 42 41 39 38 37 35 34 34 34 33 32 33 38 38 38 39 39 41 43 44 45 48 48 47 47 46 43 40 41 40 40 39 39 42 43 45 46 50 62 72 84
48 46 45 44 42 40 39 38 37 37 36 36 38 39 38 38 39 40 43 46 47 48 47 47 45 39 35 36 40 39 34 34 34 33 33 34 37 39 41 41 46 50 61
49 47 46 45 44 44 43 42 42 40 39 41 41 41 40 41 44 48 47 48 47 39 38 39 38 33 28 26 27 26 25 27 29 32 33 33 36 38 38 40 44 46 49
50 49 49 48 47 46 45 46 46 46 46 45 46 49 48 50 50 49 42 37 32 31 31 31 31 30 29 28 28 28 28 28 28 29 31 33 35 37 37 37 40 44 46
57 54 53 51 49 49 51 52 52 53 54 58 55 51 48 38 33 31 29 29 27 26 25 26 26 24 24 23 21 22 22 22 24 23 23 23 23 26 31 35 35 36 39
60 58 55 55 55 58 59 57 54 57 53 46 41 32 24 20 19 20 21 21 22 22 23 23 23 25 28 25 25 24 25 26 27 28 23 21 21 20 19 18 18 19 22
66 65 65 63 65 65 65 67 58 47 39 35 26 23 23 23 25 25 25 26 27 28 29 28 30 29 30 29 29 29 29 27 26 26 23 22 23 21 21 19 18 17 16
73 74 74 72 68 67 61 48 41 36 30 26 27 27 27 28 29 30 31 33 34 34 33 34 33 32 32 31 31 31 30 29 30 32 27 27 28 26 26 26 23 23 22
75 78 78 74 65 53 47 38 34 30 31 30 29 30 32 34 34 35 35 35 36 35 36 36 34 33 33 31 31 32 32 33 33 37 32 33 33 33 32 31 31 30 30
77 77 72 64 52 45 40 35 33 32 32 31 33 36 37 37 36 36 35 36 37 39 40 38 35 34 34 33 33 33 33 32 33 38 40 39 37 36 34 31 27 26 27

GFSMA_prec_cthk_078.txt.gz
RH
37 31 29 28 26 24 24 26 28 29 31 34 35 35 34 34 34 37 34 33 34 36 37 38 37 37 38 39 40 42 44 45 46 47 48 48 47 44 42 40 38 37 35
39 33 29 27 26 25 25 27 29 32 33 34 36 35 34 34 36 38 38 38 38 40 41 40 40 38 39 39 39 38 44 48 51 49 48 50 47 46 45 45 43 41 41
40 35 31 32 31 31 33 33 34 35 35 34 34 35 37 37 38 40 41 43 43 42 41 39 38 38 39 40 40 40 41 45 51 53 50 50 51 51 46 44 44 45 45
43 39 37 38 37 36 36 37 37 38 37 36 37 40 43 44 44 42 43 45 46 42 35 29 28 32 36 39 40 47 50 47 45 49 51 52 52 51 53 52 47 44 45
48 46 45 44 43 43 41 41 40 40 42 45 48 48 50 46 45 44 41 41 42 39 39 38 39 33 36 40 42 44 48 50 52 50 51 51 53 53 54 56 56 52 50
56 55 51 50 48 46 44 43 43 44 46 48 47 47 47 42 38 36 37 35 36 39 38 38 37 37 38 40 43 43 44 44 46 52 61 64 64 62 62 63 64 63 61
60 58 57 52 49 48 46 46 49 49 49 50 49 47 44 40 37 34 36 40 40 40 35 33 39 38 39 43 43 42 42 44 44 47 53 61 63 68 72 74 74 74 74
53 50 48 46 44 44 42 42 40 39 41 43 46 45 43 36 33 35 39 43 43 39 38 39 39 41 44 46 41 36 34 37 38 39 43 47 53 64 72 73 72 73 76
53 47 44 42 41 41 40 39 39 39 39 37 42 47 47 42 39 41 44 40 39 40 42 42 46 43 42 38 34 32 34 37 37 38 38 40 39 45 53 63 69 81 88
47 44 40 37 34 33 33 34 33 33 33 32 34 37 40 42 46 42 36 40 41 43 48 52 48 44 39 37 34 32 32 33 35 35 35 37 41 41 41 45 57 68 83
45 43 40 36 35 34 33 33 32 32 31 30 31 32 37 38 40 40 39 35 42 49 48 54 45 45 41 38 36 34 35 36 38 37 36 37 35 34 39 42 45 53 70
46 42 40 39 37 35 34 35 34 34 33 32 33 34 39 39 39 40 43 48 48 58 56 53 45 42 40 37 39 38 40 41 40 39 37 36 34 34 35 37 42 49 54
48 45 42 41 39 38 38 37 37 36 36 37 38 41 40 41 42 42 47 47 46 55 47 51 44 39 39 42 41 42 43 41 40 38 37 36 34 35 35 36 38 42 54
48 47 45 43 41 39 39 38 38 39 38 36 35 35 34 37 39 41 45 45 50 52 50 45 39 39 42 43 47 46 45 42 38 38 38 36 36 37 38 40 41 47 50
52 50 47 44 43 43 41 41 40 38 36 35 35 35 34 35 40 40 52 50 52 48 49 41 43 44 46 47 46 46 42 40 40 41 38 36 37 38 40 42 46 46 49
57 51 49 47 45 45 44 42 39 38 38 36 34 34 36 37 40 42 43 50 44 44 43 46 46 49 46 46 45 43 41 40 41 40 39 38 38 37 37 39 40 41 47
55 55 52 50 45 44 44 43 42 41 39 37 34 36 39 38 38 39 41 41 40 42 46 48 49 47 46 43 42 40 38 39 38 36 34 30 30 31 33 35 40 41 47
53 52 51 49 48 47 47 45 44 44 41 41 39 38 40 41 41 43 41 40 43 47 48 48 46 43 36 31 28 31 35 32 30 30 30 29 29 31 32 35 39 42 45
57 57 53 51 50 49 48 47 46 45 45 42 41 42 42 43 44 43 45 49 49 48 44 33 35 35 31 29 27 26 25 26 25 26 28 31 33 36 38 35 36 38 42
62 61 58 54 51 51 51 50 50 48 46 48 48 47 48 50 52 54 53 54 42 32 29 30 29 28 28 27 26 25 25 23 22 22 22 24 29 32 35 38 37 37 39
61 64 64 64 62 59 56 54 52 52 53 54 55 56 57 58 57 51 40 33 29 27 28 28 27 27 25 25 24 24 24 24 25 25 26 26 24 23 23 25 29 34 37
60 60 62 64 65 62 62 62 61 63 61 58 55 47 42 36 33 28 27 22 22 23 23 25 26 27 28 28 28 27 27 27 27 28 27 26 24 24 23 22 21 20 20
65 67 67 68 66 68 69 68 67 68 64 55 48 36 33 33 29 30 26 26 28 28 29 31 32 31 31 29 28 28 29 28 28 28 28 27 26 27 25 25 24 23 21
72 69 69 71 73 75 75 75 69 53 46 42 42 40 37 34 33 30 29 32 35 35 35 33 32 31 31 31 30 29 29 29 30 30 30 29 29 29 29 30 29 29 27
74 75 75 76 76 77 74 59 51 46 45 43 39 39 37 36 32 34 36 38 39 37 35 34 35 36 34 32 32 32 30 30 29 33 31 33 33 33 34 34 33 31 26
75 78 79 77 75 67 60 54 48 47 45 43 40 38 38 36 37 38 39 40 41 39 39 40 39 37 37 36 35 34 33 33 32 36 37 39 38 38 38 34 26 23 23

GFSMA_prec_cthk_081.txt.gz
RH
40 36 31 27 25 24 22 22 23 24 25 27 30 30 31 31 32 33 35 37 39 41 41 42 43 40 37 36 37 38 40 40 44 46 48 48 45 42 41 42 40 38 37
44 39 34 29 27 26 26 27 28 30 31 32 33 32 31 33 35 36 37 39 40 43 45 45 43 40 37 35 39 45 46 43 43 47 49 51 48 46 45 43 41 39 39
46 41 38 34 32 31 33 33 34 34 34 36 35 35 37 39 39 42 43 45 43 42 42 41 37 34 35 35 39 51 46 54 56 52 49 50 49 47 46 47 44 42 41
45 43 42 41 39 39 39 39 39 39 39 39 39 41 45 46 49 48 46 45 43 41 43 42 45 39 41 34 35 37 49 63 65 60 58 55 54 51 50 49 50 44 44
46 46 46 46 46 46 45 43 43 42 42 42 45 45 47 47 47 48 45 40 42 43 43 41 40 39 38 38 38 38 40 48 58 58 59 59 59 61 63 60 59 57 53
53 53 52 52 53 52 51 48 45 45 45 46 46 45 44 46 45 41 37 35 39 44 43 43 40 39 38 36 36 39 41 42 42 43 51 59 63 66 66 65 65 67 68
56 55 55 56 56 50 51 49 48 47 44 44 44 40 40 41 38 37 34 34 43 48 43 43 38 38 36 38 41 44 42 40 41 41 42 46 57 66 69 72 73 74 74
59 57 58 56 51 47 45 43 43 41 39 39 44 42 39 38 36 35 35 37 46 51 45 43 41 38 43 46 43 40 37 35 34 36 37 38 41 46 56 68 74 73 73
69 65 57 52 46 47 46 43 41 39 38 38 41 44 43 41 40 39 44 46 48 47 45 46 44 47 45 46 45 40 35 32 32 34 35 36 38 39 39 42 54 67 72
65 62 58 52 46 44 41 38 36 36 34 34 34 34 39 42 47 44 41 42 45 43 48 45 46 47 46 42 41 37 35 33 33 35 38 38 36 37 42 44 41 45 55
64 59 52 48 48 46 42 40 38 36 35 34 34 33 33 34 38 44 44 38 42 45 47 51 48 51 47 44 39 37 37 36 37 39 40 39 37 35 35 34 35 40 48
60 57 55 53 50 46 42 39 38 37 36 35 34 35 36 38 40 43 46 44 44 48 52 52 59 52 48 43 40 38 40 41 43 41 41 41 35 35 34 33 33 34 37
54 54 53 50 48 46 43 42 41 40 39 37 38 39 42 43 42 43 46 45 47 50 51 51 51 49 48 41 39 41 42 46 45 42 42 38 37 37 35 34 34 34 34
57 58 57 54 51 48 45 44 43 41 41 41 40 39 39 41 42 42 44 50 46 48 50 49 52 50 42 40 43 45 45 44 43 40 38 39 39 37 36 36 37 37 39
65 61 58 58 54 50 52 49 45 43 43 43 42 39 38 38 39 40 40 42 47 51 53 52 50 46 46 47 48 47 43 42 40 39 40 38 37 36 36 37 39 38 37
68 64 62 60 57 55 52 50 49 46 44 42 40 39 38 39 39 38 44 46 53 50 54 53 46 48 49 50 47 44 41 40 38 38 39 38 36 33 33 32 33 33 30
76 66 59 56 55 54 51 49 49 48 46 44 43 42 41 42 41 41 42 44 46 47 49 46 48 50 50 47 39 33 35 36 40 38 34 31 27 25 28 28 31 36 36
67 64 61 57 55 54 53 52 51 50 48 48 46 45 44 44 43 42 44 43 43 45 44 49 51 50 46 41 35 28 25 25 25 24 24 25 25 26 27 29 34 37 41
66 61 60 60 60 59 58 56 54 53 51 52 50 47 46 45 44 46 45 45 46 47 51 54 44 35 35 33 30 29 27 27 28 27 27 28 28 29 30 35 35 38 40
62 63 62 61 62 62 62 61 59 56 54 53 53 52 50 47 50 49 49 52 55 55 51 35 33 31 30 29 28 27 26 25 24 23 23 23 24 26 29 31 35 36 37
56 57 57 56 58 60 62 65 66 65 64 63 58 54 55 55 56 58 62 58 48 40 32 31 29 28 25 25 26 26 25 26 25 24 27 26 26 25 24 23 24 28 33
60 60 60 59 59 59 61 66 66 70 70 66 65 65 63 60 52 45 42 39 35 30 28 25 26 28 29 30 32 30 28 27 27 26 27 26 25 25 24 24 23 23 23
64 63 63 65 66 65 67 71 72 72 73 73 68 58 48 42 40 40 39 37 33 33 29 30 32 35 35 34 32 30 29 29 27 27 28 27 27 27 27 27 26 26 24
61 64 67 70 71 72 71 74 74 76 76 65 53 47 45 47 47 43 40 36 39 34 36 38 38 37 35 34 33 31 30 30 30 29 30 29 29 30 31 30 30 31 31
66 66 67 71 77 78 78 78 76 63 53 50 48 49 49 47 46 44 39 41 40 44 43 41 40 38 38 37 35 34 33 33 33 31 32 34 34 34 35 35 35 35 34
71 71 71 73 80 83 80 71 60 55 52 50 49 50 50 47 45 46 45 45 46 45 44 43 44 45 43 41 39 38 38 36 36 37 38 39 39 40 40 39 39 37 29

GFSMA_prec_cthk_084.txt.gz
RH
41 40 36 31 26 24 23 23 25 26 27 28 30 31 31 30 31 34 35 37 40 42 44 45 45 44 40 38 36 41 43 45 46 43 41 44 45 48 45 40 38 37 38
42 42 39 34 31 28 26 26 28 30 31 33 34 34 34 34 36 39 42 43 44 44 44 43 44 44 38 34 36 45 60 59 55 56 57 51 46 47 47 44 39 38 39
42 43 41 38 37 33 32 33 35 35 36 37 37 37 38 40 42 44 48 49 46 45 44 44 45 46 51 42 37 43 46 55 66 67 67 61 56 53 52 50 47 44 41
41 43 44 42 43 43 42 41 41 40 40 40 40 40 41 44 46 46 47 49 52 43 43 43 47 45 42 39 34 35 36 40 56 68 69 65 61 58 55 52 53 55 50
43 43 46 46 46 48 48 49 50 48 45 43 43 43 43 42 42 45 45 45 43 41 41 42 41 41 40 37 37 37 37 38 42 48 55 61 63 64 63 65 65 63 61
50 48 49 51 52 53 54 55 52 50 47 47 43 43 43 41 42 37 38 38 39 40 43 42 43 41 39 37 36 38 40 42 41 42 43 44 56 70 72 71 71 69 70
54 54 52 53 52 51 52 52 51 51 47 45 46 39 36 38 39 36 34 32 35 39 42 52 45 44 42 40 40 42 41 41 39 35 35 36 42 50 67 77 74 74 73
66 62 55 55 60 57 53 52 54 47 45 47 45 46 39 37 37 37 35 35 38 44 51 52 49 46 44 44 45 45 42 38 34 32 32 33 34 37 41 54 69 77 80
81 74 67 66 64 59 52 49 48 48 46 44 44 46 46 45 42 41 44 43 45 47 53 53 48 49 47 47 46 41 40 36 32 30 31 31 32 33 37 41 43 45 63
83 78 72 69 61 56 52 49 47 46 46 44 42 40 40 43 48 43 41 43 48 48 48 49 46 51 51 49 46 43 40 36 32 32 33 35 37 39 39 38 43 45 45
71 67 65 62 60 55 53 52 50 47 44 42 40 38 37 37 39 42 41 42 45 46 48 47 47 51 49 59 48 45 42 38 35 34 37 42 43 37 36 35 35 35 36
69 63 59 57 54 53 52 50 47 45 42 40 39 40 39 38 39 42 45 48 49 50 50 51 50 51 59 56 50 46 39 38 38 40 45 41 40 36 34 35 35 33 33
66 66 60 57 55 52 50 48 47 48 46 43 42 42 41 42 43 45 47 48 49 53 54 53 52 54 58 51 49 46 41 39 41 44 43 40 35 36 36 37 34 33 33
62 61 64 65 61 58 56 52 50 48 47 47 46 44 43 43 45 48 48 49 52 48 54 50 53 56 54 53 48 45 45 43 44 40 38 35 37 37 35 34 34 34 35
68 69 69 67 68 66 60 59 57 55 52 48 48 48 46 43 44 44 46 45 47 53 51 55 55 56 55 53 47 47 47 45 41 38 38 37 37 36 34 34 35 35 32
73 73 76 78 77 74 67 58 54 52 49 48 48 47 46 45 46 48 46 46 46 48 50 51 57 57 52 49 49 51 46 40 39 35 38 38 36 33 27 26 28 32 31
81 85 84 82 76 71 62 59 54 53 53 51 50 49 50 49 50 50 48 48 50 49 52 55 51 54 50 50 51 48 35 28 33 36 38 30 27 25 23 24 26 31 34
90 85 77 72 68 63 60 60 59 56 54 54 52 52 51 50 53 53 50 48 48 48 52 52 52 51 52 52 50 42 34 26 27 25 25 24 23 24 25 28 30 33 39
75 72 68 64 61 61 61 60 57 58 58 58 56 56 54 51 53 55 52 51 52 51 52 53 54 55 48 44 37 32 31 30 28 27 25 25 26 27 28 29 31 33 38
62 60 59 57 56 55 55 56 56 56 58 61 63 61 59 58 58 57 58 56 54 56 59 59 61 45 36 32 31 30 28 27 25 24 23 22 23 23 24 26 28 31 33
53 52 53 54 54 53 53 54 56 56 57 61 67 69 68 66 67 64 63 60 61 64 63 52 41 36 30 30 27 26 27 28 26 26 25 24 25 24 23 22 22 23 28
55 55 55 56 58 58 57 58 59 62 63 65 67 70 72 74 68 73 74 72 66 52 43 39 41 38 34 30 31 31 32 31 29 28 27 26 25 24 24 24 23 22 23
56 55 56 58 58 60 61 64 66 69 69 69 71 72 69 60 49 45 42 42 42 42 41 42 37 37 37 38 37 35 34 33 31 30 28 27 26 26 25 26 25 25 26
61 62 62 62 63 64 66 69 73 73 75 75 76 68 54 51 49 47 47 52 50 42 44 40 46 44 46 42 40 39 37 36 34 32 30 29 29 29 29 30 30 30 31
67 68 69 69 68 68 68 70 74 80 78 71 57 51 50 51 49 57 54 51 50 48 49 50 48 49 47 45 44 42 40 38 36 36 36 34 34 35 35 35 35 35 36
74 71 71 71 72 72 73 77 85 74 64 56 54 52 51 57 60 56 53 50 52 55 53 52 51 50 52 53 51 47 44 42 40 40 40 41 40 40 40 40 40 40 40

GFSMA_prec_cthk_087.txt.gz
RH
44 42 38 35 31 26 25 25 25 27 28 30 31 33 34 33 33 35 38 41 45 47 47 46 44 41 39 37 40 41 46 55 55 53 53 54 52 48 43 42 39 37 35
41 43 44 41 36 32 29 28 29 31 32 33 33 34 35 37 38 39 43 44 46 48 47 46 42 44 44 51 53 43 58 56 58 59 60 62 61 57 52 48 46 40 37
41 43 43 44 41 39 36 34 35 35 36 37 37 38 39 40 41 44 45 46 46 47 51 43 45 41 53 45 43 42 36 43 45 55 65 67 65 63 60 55 50 47 41
45 43 43 44 44 44 44 43 44 44 43 43 42 42 42 42 42 42 42 44 45 46 44 40 43 45 42 41 38 35 33 34 36 40 53 66 66 63 62 58 56 53 53
55 46 43 44 46 48 50 51 51 51 49 49 46 47 42 43 43 43 42 43 45 43 40 41 42 42 44 41 38 34 33 35 38 40 42 47 57 65 64 65 66 64 63
61 52 49 45 48 52 53 54 55 53 52 51 48 47 46 45 42 39 40 39 40 40 42 41 47 49 49 45 39 37 39 39 40 41 40 42 43 46 60 72 69 68 68
65 62 57 51 50 52 50 53 52 54 53 53 51 42 40 38 38 37 37 36 35 36 40 44 48 52 55 48 41 40 43 44 42 37 35 35 35 36 40 48 67 72 70
79 72 64 55 52 56 58 61 57 52 50 48 47 47 45 43 39 39 40 39 40 40 44 46 55 53 52 47 47 42 44 42 40 37 35 33 32 33 36 38 40 53 81
93 85 85 79 77 68 65 61 60 54 52 51 51 52 52 50 47 46 46 43 41 46 46 51 55 54 53 50 56 48 47 40 39 36 33 32 32 34 36 38 41 44 46
85 85 85 84 83 76 71 67 62 58 56 52 51 47 45 45 49 45 43 42 43 45 47 50 53 54 52 51 56 51 51 46 41 36 32 32 36 39 40 38 36 38 41
87 89 87 77 74 71 67 61 58 55 52 51 49 47 47 44 43 44 44 45 44 46 51 52 51 54 54 51 52 58 52 46 40 37 36 39 41 43 39 36 35 34 33
90 88 79 76 73 67 62 59 57 57 52 51 50 48 46 42 43 43 44 46 47 49 53 55 59 55 54 54 51 54 51 45 39 38 41 46 45 42 41 37 35 33 31
83 83 79 74 67 61 63 60 56 56 53 51 51 50 48 49 50 48 51 50 53 56 56 55 55 58 57 54 54 55 48 45 42 41 42 45 41 36 37 40 38 35 30
82 81 77 66 61 61 60 61 62 67 66 58 55 56 55 54 51 50 52 52 56 57 56 61 56 59 55 55 58 55 52 47 45 42 40 40 35 36 37 37 34 32 30
81 78 69 64 63 70 72 73 74 71 66 58 54 54 51 52 51 49 50 53 57 59 56 55 61 57 58 59 57 55 50 48 46 42 39 38 36 35 37 36 34 34 31
77 71 69 71 76 81 81 77 75 70 65 58 56 52 52 52 51 51 52 52 54 59 58 55 57 54 57 61 59 54 51 50 43 40 38 36 38 36 35 29 25 27 29
77 82 86 88 89 81 76 71 66 62 59 59 58 58 58 55 53 51 54 55 59 59 57 60 61 61 61 59 57 56 57 45 31 31 31 35 30 27 25 23 24 26 26
82 84 86 86 82 81 69 66 64 62 58 57 56 56 58 59 56 56 57 56 57 58 59 58 58 61 60 58 60 58 56 43 36 27 26 25 23 20 21 24 28 30 34
72 72 77 73 71 65 58 55 54 54 53 52 52 54 55 58 61 62 61 61 59 59 58 58 61 59 61 63 61 53 47 40 31 28 27 25 23 22 23 26 29 32 36
63 63 61 58 55 52 49 49 49 48 49 50 52 54 56 58 60 64 69 70 67 65 62 60 62 64 67 65 46 43 42 34 30 25 24 24 24 23 22 23 26 29 33
57 54 51 51 50 51 51 50 51 52 52 54 56 58 59 63 65 67 69 71 74 73 72 70 73 70 53 43 41 38 33 30 28 27 28 29 28 26 25 24 23 23 25
54 54 53 53 53 51 51 52 53 55 57 59 62 64 66 68 69 72 76 76 79 78 81 74 58 48 46 39 36 39 36 35 34 35 34 33 30 28 26 25 24 22 22
56 55 53 51 53 54 55 57 59 60 62 65 69 72 74 73 66 57 52 54 55 50 46 47 49 46 41 46 46 39 42 42 40 37 36 34 32 30 29 28 26 25 25
59 56 56 57 58 60 63 64 64 65 66 66 69 76 76 63 53 51 50 49 49 50 49 46 49 53 50 53 49 49 48 45 42 38 37 36 34 33 32 32 30 30 30
62 62 62 64 66 69 69 67 68 68 70 71 78 74 60 54 51 52 49 52 56 57 55 51 52 52 56 52 54 54 51 48 43 41 40 39 38 38 38 37 36 35 36
69 70 71 69 67 67 66 67 69 72 75 74 62 56 55 54 53 54 57 60 63 61 61 60 61 58 56 59 58 58 58 54 48 45 44 43 44 43 43 42 42 42 41

GFSMA_prec_cthk_090.txt.gz
RH
42 42 40 37 32 28 26 27 27 27 28 30 31 32 33 34 35 36 37 40 44 45 46 45 43 40 40 45 55 52 53 52 50 51 53 52 53 52 52 50 47 43 40
44 44 43 43 40 35 31 30 30 32 34 36 36 37 37 38 39 40 41 42 44 46 46 49 44 40 44 54 47 48 54 45 46 48 50 56 59 58 56 56 52 50 46
45 43 42 44 46 41 38 36 35 37 39 39 40 40 40 41 41 40 42 42 42 44 42 45 43 42 44 47 41 48 42 35 34 37 46 54 61 62 61 58 57 53 52
53 49 46 44 46 47 44 44 45 46 47 47 47 46 44 44 44 43 42 43 42 44 45 45 43 40 44 41 41 41 37 34 32 34 35 43 52 60 58 59 60 59 61
66 62 54 50 46 46 49 50 51 52 54 53 51 48 49 48 48 47 43 40 40 42 42 42 42 44 44 48 47 44 39 36 35 35 38 40 43 48 58 59 59 63 67
73 69 61 56 54 49 51 54 57 57 56 51 51 47 47 45 43 41 41 40 39 38 39 42 44 46 52 48 52 43 42 39 39 39 38 38 38 40 42 45 62 70 69
79 72 67 64 65 58 55 56 53 55 55 51 48 46 46 43 42 40 39 40 40 39 40 40 45 46 50 52 51 49 46 45 41 37 37 34 33 34 36 36 39 54 70
86 83 75 71 70 61 54 55 56 58 54 52 52 49 48 47 44 42 42 43 44 43 42 45 47 47 54 53 53 51 51 49 43 39 37 33 35 32 31 33 36 38 46
92 89 89 87 86 82 70 63 57 58 59 56 54 54 55 53 50 50 50 46 44 44 45 47 48 53 54 56 56 54 52 50 48 45 38 33 35 35 35 33 34 40 43
88 86 94 89 91 91 89 85 77 72 66 59 56 55 54 54 55 52 51 48 47 46 46 50 54 55 57 52 58 57 55 51 52 47 37 35 40 39 37 38 41 38 38
92 93 94 95 92 93 90 86 79 68 59 56 54 56 54 52 50 50 47 46 45 46 46 50 55 57 59 61 60 58 56 51 53 48 40 44 46 42 44 42 42 38 36
91 90 93 92 91 90 86 80 70 65 63 62 61 58 57 54 53 52 49 48 50 50 51 54 54 56 61 63 58 61 56 52 55 48 41 41 43 44 45 48 42 37 36
96 96 90 88 87 89 81 72 67 65 61 60 61 59 62 60 55 54 55 57 55 52 53 57 58 57 60 60 63 60 55 56 53 50 44 43 43 41 43 41 37 36 35
95 91 88 86 89 83 74 68 70 70 70 69 68 69 63 54 51 52 52 53 53 52 55 58 60 59 62 61 67 60 60 59 53 48 45 43 40 39 40 38 37 33 32
82 86 88 85 81 74 73 76 76 74 74 75 72 69 62 56 56 54 53 52 52 55 56 58 63 62 62 65 65 65 60 59 53 50 47 42 42 41 41 37 37 36 35
77 80 81 79 74 74 76 80 81 80 76 70 64 63 61 59 58 59 59 57 56 57 59 58 59 61 62 63 62 64 65 62 55 54 49 47 39 42 39 38 34 29 31
72 75 75 75 78 82 83 84 83 77 68 68 64 61 59 59 58 57 57 59 60 63 62 62 61 59 64 66 65 66 61 60 58 50 39 36 41 37 34 32 24 21 25
69 73 74 83 85 85 84 80 80 72 64 61 58 54 53 51 51 49 50 54 59 65 67 64 64 64 69 68 64 64 58 63 62 50 35 32 27 23 22 20 21 22 26
59 67 71 75 73 72 69 65 60 55 50 48 47 46 46 47 47 49 51 52 55 59 63 67 72 72 68 68 67 67 67 66 63 43 38 36 25 22 21 23 25 28 31
55 59 61 63 64 55 54 50 47 45 44 45 46 47 48 49 50 53 54 58 62 64 66 69 72 74 76 72 72 74 58 54 49 44 40 26 26 24 22 23 24 26 31
51 54 54 51 50 48 47 46 46 45 44 45 47 50 53 55 56 59 62 64 67 69 72 76 75 76 79 81 70 55 51 47 42 37 30 31 29 28 29 28 27 26 26
50 52 53 52 50 48 47 46 44 43 45 50 53 55 57 59 62 64 66 69 71 74 76 79 83 82 70 58 48 50 46 40 37 37 34 36 38 36 34 31 29 27 25
50 52 52 51 49 48 47 48 50 53 55 57 59 61 63 62 64 62 56 53 66 72 73 67 60 53 51 57 55 47 47 50 46 44 47 45 43 41 37 35 32 31 29
56 55 56 55 53 53 56 58 59 61 62 63 63 64 66 66 62 54 52 50 49 47 47 50 50 53 52 54 55 53 54 52 51 53 51 48 45 40 38 37 36 35 35
61 63 64 62 62 63 64 67 68 64 62 62 64 66 68 63 51 53 53 52 50 52 56 60 63 62 57 56 60 60 58 61 58 55 53 50 47 44 42 42 41 40 39
70 72 69 69 70 69 69 67 64 61 64 64 67 64 58 51 51 51 53 52 56 59 61 64 66 62 64 64 59 63 65 61 62 61 58 55 52 50 47 46 45 45 45

GFSMA_prec_cthk_093.txt.gz
RH
36 36 36 35 32 28 26 25 25 25 25 27 29 31 32 33 34 36 38 40 40 43 45 44 44 42 40 52 50 51 47 54 49 45 47 48 49 50 51 50 49 47 43
42 43 42 39 38 35 30 29 30 30 31 33 34 35 36 36 37 38 38 39 39 40 42 40 41 42 39 47 47 46 42 48 46 35 39 44 48 53 55 54 54 53 50
46 46 45 43 43 42 38 35 33 34 36 38 39 40 40 40 40 39 39 38 41 41 39 43 45 45 41 39 43 43 40 41 35 33 32 35 39 48 56 57 55 57 55
46 46 45 46 46 47 46 41 42 43 44 45 45 46 45 44 43 41 43 40 38 39 41 40 40 44 44 46 46 45 41 38 36 35 33 35 39 44 53 58 56 58 57
56 54 52 53 53 49 48 47 48 50 54 53 53 49 47 44 44 43 41 42 41 40 40 39 40 44 47 48 50 49 47 40 40 39 38 38 39 41 42 49 58 59 61
67 64 62 61 59 55 50 51 52 55 55 54 52 48 47 45 45 42 41 37 36 37 38 37 39 44 46 48 53 47 46 42 44 45 38 39 39 39 40 42 44 58 69
73 71 72 70 67 65 62 58 55 57 51 51 54 49 50 48 43 40 38 36 36 39 40 40 40 44 50 50 50 51 48 50 46 50 44 37 36 36 36 36 38 39 48
85 84 81 80 76 75 74 72 64 56 55 56 56 55 54 50 46 47 45 44 45 44 44 44 46 49 51 54 56 52 54 54 52 51 46 41 36 36 37 38 39 36 38
94 93 91 93 92 85 83 87 83 69 62 60 58 57 55 54 52 52 56 57 53 50 46 47 48 49 50 56 55 58 56 57 55 54 51 44 37 40 42 38 37 38 39
94 95 92 96 98 97 93 95 92 88 80 73 63 55 54 56 62 61 57 57 55 51 49 49 52 53 53 57 58 58 58 58 55 53 52 50 45 44 43 39 38 37 41
95 95 97 98 98 96 93 92 93 91 87 75 67 63 62 61 61 61 62 57 56 54 51 51 54 56 57 60 61 61 62 58 57 53 51 50 45 42 43 50 47 45 44
97 95 98 96 97 96 93 90 92 91 84 75 69 69 69 67 64 61 58 54 54 53 55 57 57 55 56 60 60 65 62 63 59 54 54 49 45 44 45 50 49 45 41
88 93 94 96 96 93 91 90 86 79 76 78 73 69 67 64 63 64 61 57 56 55 53 53 53 56 57 60 64 62 65 66 59 59 57 50 46 44 44 49 46 42 37
87 90 92 89 88 87 86 85 80 80 78 75 73 71 69 66 65 68 65 59 59 57 54 54 55 59 59 61 62 61 65 67 61 61 57 50 48 45 45 47 44 42 36
78 79 83 80 82 84 81 79 75 75 71 71 75 74 69 63 64 63 60 62 60 59 60 58 60 61 62 58 64 64 64 67 64 62 61 52 47 48 48 47 44 38 34
68 70 70 73 76 78 77 74 72 69 71 76 75 69 64 64 63 62 62 62 59 59 58 60 64 64 64 64 67 67 65 64 66 66 62 55 49 51 50 44 44 39 35
61 64 68 70 70 71 69 74 78 76 78 74 76 72 69 65 60 57 54 52 51 51 50 53 55 59 62 65 63 67 66 68 68 66 64 54 44 47 47 44 39 35 27
60 61 66 68 67 68 72 74 78 76 73 70 65 58 52 49 48 45 43 43 47 48 51 54 56 58 60 64 70 71 72 70 70 68 67 53 40 35 33 28 20 20 23
49 53 58 60 61 63 65 70 70 65 60 52 48 45 43 42 43 43 43 46 50 51 53 57 59 63 65 70 71 74 76 71 72 74 69 55 43 33 37 24 21 22 26
48 52 55 56 57 57 59 58 54 50 45 42 41 41 41 42 42 46 49 52 55 57 60 62 64 67 70 74 75 76 77 77 66 63 55 47 43 42 29 24 24 22 26
45 47 50 51 51 52 51 48 48 44 42 39 39 39 41 45 48 50 53 55 57 60 64 66 68 71 72 74 78 80 78 64 57 57 50 45 39 36 29 31 27 25 26
44 47 47 49 53 51 50 49 47 44 42 40 43 47 50 52 55 56 58 57 56 63 67 71 74 77 81 84 75 60 52 51 48 43 46 39 42 37 36 36 35 34 30
49 51 51 56 56 54 50 47 46 47 47 48 51 54 56 58 58 59 56 48 50 61 70 75 77 73 64 56 57 59 56 57 53 53 49 47 48 48 48 46 44 40 36
56 56 57 58 58 56 53 53 51 53 55 59 61 61 59 58 60 56 48 47 46 46 45 46 47 49 51 55 57 60 60 59 58 61 58 56 57 55 51 48 46 43 39
64 61 60 59 60 59 58 58 60 63 63 63 59 58 59 61 62 51 47 49 48 48 49 50 54 55 58 60 59 58 63 63 65 66 66 63 59 55 52 50 47 45 43
70 68 67 69 69 67 65 66 67 67 67 61 57 59 63 63 50 45 46 47 49 49 50 55 59 61 59 60 64 63 63 71 68 66 69 70 65 61 57 54 52 50 48

GFSMA_prec_cthk_096.txt.gz
RH
29 29 30 30 29 28 27 26 25 25 24 25 27 29 31 33 34 34 35 35 37 38 39 41 42 42 42 44 46 47 44 41 43 44 39 38 44 48 49 52 52 50 45
35 34 35 36 35 33 30 28 27 29 29 31 34 34 35 36 36 37 38 38 36 37 37 40 41 46 48 47 44 43 43 40 40 39 35 32 37 44 49 53 55 53 51
42 40 42 41 40 39 36 33 31 32 32 34 36 37 39 40 40 42 41 41 37 36 38 40 40 44 51 53 43 44 46 43 40 36 35 33 33 38 44 51 57 58 54
47 49 51 52 47 47 44 42 38 36 39 40 43 44 45 44 43 44 45 44 45 43 42 39 41 41 43 48 48 53 49 48 46 41 38 35 36 38 44 54 55 59 58
48 49 53 55 50 54 49 49 49 49 50 49 49 52 52 49 49 49 47 43 42 39 39 43 41 42 44 48 51 52 51 48 47 43 42 41 39 40 39 42 51 62 63
49 51 62 59 55 58 52 51 54 57 57 58 53 49 52 47 47 46 46 43 39 37 38 38 38 43 45 50 54 54 53 48 49 45 47 48 44 38 38 39 41 43 52
58 63 69 71 66 63 61 61 62 62 59 59 50 54 54 50 47 44 43 42 42 42 41 40 42 48 48 54 55 54 55 54 52 53 50 52 48 43 34 38 40 41 45
77 73 76 85 77 76 75 73 70 79 70 62 59 56 56 53 52 44 44 44 44 46 43 43 49 53 56 58 57 55 60 55 58 57 56 53 51 47 37 42 42 42 41
79 83 91 89 92 92 86 82 81 81 78 77 70 63 60 57 54 55 50 49 50 52 54 54 53 55 57 57 57 60 60 58 59 57 56 53 54 53 47 45 44 43 40
86 95 91 96 95 98 98 95 91 91 87 81 79 66 58 53 56 58 59 60 60 61 59 58 57 55 59 60 60 63 61 58 61 62 56 55 51 55 49 47 44 42 38
97 92 95 97 96 98 98 98 94 96 93 88 79 69 67 67 66 67 65 68 67 61 58 55 54 53 54 58 57 59 62 63 63 63 61 57 52 52 47 45 52 54 49
93 93 95 97 98 99 92 90 90 89 93 92 90 87 84 80 75 70 67 66 65 62 60 55 54 54 56 58 58 56 61 66 66 67 63 58 55 54 47 45 47 50 50
95 94 92 91 87 88 91 87 86 86 87 87 88 86 83 77 73 66 63 65 64 64 65 54 54 54 56 59 59 61 61 61 64 69 69 64 61 55 46 46 46 49 48
93 94 95 94 90 91 85 89 83 81 74 72 74 74 73 71 68 66 67 66 66 64 62 62 57 57 59 63 63 66 64 65 64 64 68 65 61 56 48 48 46 47 45
76 80 87 89 88 86 81 80 79 71 70 69 68 68 66 63 63 65 62 61 64 63 63 65 60 58 58 60 62 65 66 68 72 66 66 65 64 61 52 53 48 47 47
66 72 77 80 81 79 78 77 71 70 68 64 66 67 68 70 67 65 65 64 62 62 57 54 49 48 48 51 54 57 60 63 64 62 65 66 63 59 52 56 51 52 52
59 64 66 68 71 71 70 68 71 66 67 68 69 69 67 68 68 63 57 53 51 50 47 44 43 45 49 51 56 59 63 66 67 68 68 69 64 60 54 55 51 54 53
56 58 63 66 67 65 60 62 63 64 64 65 64 61 59 55 51 50 47 44 43 45 44 44 46 50 52 55 59 62 68 70 71 73 74 68 68 55 45 44 45 38 40
46 47 50 55 57 58 59 57 59 61 59 59 54 50 47 45 43 41 41 42 42 44 45 47 51 54 56 59 62 66 70 73 75 77 75 75 72 51 38 37 33 31 31
39 42 47 50 51 54 54 58 57 54 53 49 49 45 42 39 39 39 39 41 45 47 49 51 54 57 60 63 66 69 73 77 79 81 75 75 61 45 43 37 41 37 27
41 44 45 46 47 50 52 52 50 50 49 45 42 42 41 39 40 43 44 45 49 51 53 55 56 60 64 67 69 72 75 79 77 66 63 55 44 47 50 48 42 32 31
45 44 46 47 47 48 49 50 50 49 51 46 40 40 43 45 47 50 50 53 53 52 52 54 60 65 69 73 77 79 70 60 57 55 54 54 50 50 43 44 36 34 35
47 47 47 48 49 50 52 54 54 53 49 47 44 43 47 51 53 55 55 53 50 47 49 58 65 69 73 70 63 58 56 58 58 56 55 54 52 51 49 45 42 42 40
55 54 54 57 57 56 58 59 57 54 52 53 50 51 54 55 54 56 55 47 40 38 38 47 51 55 54 52 54 56 55 57 60 59 58 62 59 56 56 53 52 51 49
66 62 61 61 60 62 62 62 61 58 57 58 56 57 59 55 53 55 51 43 42 39 37 40 43 44 48 51 54 56 58 61 64 65 66 68 66 64 61 59 57 54 51
70 72 74 74 74 72 70 69 68 65 62 62 64 64 64 56 56 58 47 43 41 42 41 45 46 49 53 57 58 59 59 60 65 66 64 65 70 73 69 64 59 55 52

GFSMA_prec_cthk_099.txt.gz
RH
33 35 34 34 33 32 32 30 29 29 27 29 28 28 30 32 35 35 35 34 34 35 36 37 37 38 44 54 52 46 44 45 42 39 42 41 37 38 46 50 51 52 51
36 36 36 36 35 33 32 32 31 31 30 31 31 34 35 35 35 36 36 36 36 35 34 36 37 38 46 52 58 54 43 45 41 41 40 35 35 38 39 45 49 54 54
38 36 40 37 36 35 35 34 34 33 34 36 36 39 39 41 41 39 42 40 39 36 38 37 38 37 43 45 51 53 51 50 45 45 44 39 35 37 45 50 50 49 56
40 40 40 40 40 39 39 44 46 37 35 38 41 44 44 44 43 43 43 42 43 43 43 40 39 39 40 42 48 52 51 52 50 47 44 43 40 36 39 42 51 61 59
45 46 46 48 48 47 47 57 51 46 44 46 48 51 55 52 49 46 47 48 46 43 40 39 40 39 38 39 46 49 53 53 50 48 49 43 42 44 40 40 41 48 60
56 54 56 56 55 53 54 63 53 58 57 57 63 60 54 49 51 49 46 44 44 39 40 40 41 43 40 42 46 54 58 57 51 53 50 48 47 46 46 38 40 43 45
63 61 61 57 61 62 59 68 53 59 55 57 64 62 59 53 53 48 43 45 45 44 46 44 43 48 44 46 48 55 56 55 55 56 51 50 49 48 46 42 40 41 42
63 66 65 66 68 66 68 74 70 62 61 74 73 66 66 63 58 49 46 46 48 49 51 48 45 48 53 56 60 62 60 56 61 58 56 54 53 51 50 51 47 45 45
73 76 75 69 75 73 84 85 86 78 81 84 85 83 79 70 64 59 59 54 54 57 56 54 52 54 57 58 61 63 63 61 66 62 60 59 57 55 54 53 50 46 43
78 82 79 78 79 82 88 92 90 94 95 93 91 84 75 71 64 64 66 66 65 65 63 60 61 59 59 56 59 59 59 60 62 63 64 63 61 58 59 55 50 45 50
85 84 85 86 87 93 91 92 92 96 98 95 89 83 81 77 77 80 77 76 71 70 68 64 65 62 60 55 52 54 57 57 59 60 62 64 64 60 60 59 53 47 54
87 84 88 86 83 94 94 96 90 90 86 89 89 89 90 87 86 87 86 84 78 71 67 63 60 61 61 59 58 58 58 59 60 61 66 65 62 60 60 57 54 52 50
85 88 88 89 88 94 97 86 89 87 92 89 85 82 81 85 83 79 76 74 70 64 65 62 58 58 58 58 57 60 62 62 62 63 64 64 64 63 62 60 50 50 52
95 94 96 94 94 94 92 91 91 91 86 82 78 71 67 68 69 69 67 65 63 61 60 60 63 59 58 57 58 58 56 54 55 56 60 59 58 55 59 57 50 51 53
81 84 89 92 95 94 94 93 92 92 84 77 64 64 63 60 61 61 61 58 58 61 63 64 62 58 52 49 51 50 49 48 50 56 59 58 56 57 56 54 50 54 53
67 74 76 83 87 92 89 89 85 79 74 67 66 60 56 59 58 59 57 58 61 59 56 52 49 47 44 41 42 45 48 48 53 53 57 61 59 63 62 55 50 56 56
62 67 64 70 78 79 79 75 72 75 66 62 59 60 58 58 55 56 56 53 50 50 47 45 41 42 42 43 45 47 49 53 56 60 61 66 67 67 65 58 48 53 55
61 61 62 68 74 80 78 70 67 64 62 63 61 59 57 53 49 47 43 42 43 43 42 42 42 43 45 47 48 51 55 57 62 64 67 68 70 68 69 53 44 46 45
58 57 59 59 61 65 61 64 63 62 62 58 58 55 54 48 44 42 41 39 38 36 38 41 41 44 46 48 51 53 56 59 62 66 68 71 71 73 66 48 37 35 37
45 47 48 49 55 57 60 64 66 63 61 60 60 56 53 45 40 38 37 38 38 38 40 42 45 48 52 53 54 56 59 62 66 68 69 72 67 65 51 46 41 41 42
41 43 46 50 53 56 57 60 61 60 57 57 56 51 49 42 38 38 38 41 42 43 46 47 48 52 53 54 57 60 62 65 70 72 64 57 53 49 50 50 49 45 50
44 45 47 50 52 53 53 56 55 56 58 58 54 51 49 42 39 40 43 47 48 49 50 49 49 52 56 59 62 65 68 68 63 51 49 49 50 52 53 55 54 52 46
46 48 50 50 52 52 53 54 57 57 58 57 54 51 46 45 44 45 49 50 51 50 48 48 48 53 59 60 64 63 56 57 55 50 48 49 51 51 51 52 48 53 45
50 52 53 54 54 52 55 55 57 57 58 58 57 53 48 48 50 52 52 50 47 43 40 45 47 51 51 48 51 50 54 53 52 53 52 54 57 56 56 57 56 56 52
56 59 59 61 62 58 59 60 60 60 62 62 60 58 55 54 56 56 56 51 44 40 38 38 38 37 39 43 46 49 49 51 52 55 58 61 62 64 66 63 59 60 57
63 65 65 67 70 71 71 71 74 73 69 65 65 62 61 60 62 59 61 55 44 43 41 40 40 39 40 44 48 51 52 53 55 56 56 60 63 64 68 70 71 66 62

GFSMA_prec_cthk_102.txt.gz
RH
30 31 29 30 31 31 30 32 32 31 28 26 28 27 29 31 34 35 33 34 34 32 30 31 32 32 37 44 47 48 47 43 39 36 35 35 35 32 33 38 43 47 49
31 34 33 32 33 33 33 32 30 31 30 29 29 31 32 35 36 37 36 36 37 34 33 32 33 34 38 44 46 49 49 46 44 42 40 40 38 36 39 42 43 42 44
34 35 35 33 31 32 32 32 33 33 32 33 36 37 36 36 41 42 46 45 39 39 40 38 37 37 38 41 42 45 52 49 48 47 45 43 42 40 37 38 46 57 57
36 34 35 35 34 35 37 36 34 36 35 37 42 42 40 40 40 41 41 43 43 43 41 38 38 40 40 41 44 43 51 49 48 47 46 45 46 42 41 39 38 42 55
37 36 37 39 40 41 41 42 42 50 41 45 50 44 47 49 53 50 47 46 47 43 41 40 41 43 42 41 45 48 50 51 52 52 52 49 44 44 44 43 40 40 43
40 41 43 46 47 48 49 49 51 53 49 61 62 54 61 52 51 50 48 47 42 41 41 43 44 46 47 46 48 50 52 56 58 55 54 58 54 49 46 44 44 42 44
50 51 53 53 53 53 54 58 60 54 56 70 75 63 69 57 54 52 52 51 47 46 45 48 46 47 50 46 48 52 57 60 58 59 58 61 58 54 50 47 50 50 45
63 64 64 59 57 61 65 72 64 65 64 68 77 65 65 61 66 59 56 54 52 51 50 52 52 51 50 54 56 62 63 68 64 63 57 62 56 57 57 57 53 51 47
64 64 66 68 72 79 77 73 71 72 73 80 85 91 77 80 80 75 66 63 62 61 60 60 60 59 57 61 62 67 64 65 62 59 58 55 61 62 59 56 52 50 51
77 78 82 84 83 82 79 80 77 78 85 87 96 96 91 90 83 77 76 74 72 73 73 71 68 63 60 58 59 58 62 60 62 61 59 60 61 60 61 56 57 54 53
89 83 93 90 89 85 82 82 80 83 92 94 92 97 91 84 80 81 85 81 82 81 79 78 69 64 62 60 58 57 59 61 61 62 63 64 67 66 64 60 59 58 54
92 88 94 92 88 85 82 84 85 90 92 91 91 89 90 88 84 80 78 80 78 77 73 73 68 64 59 55 53 54 57 59 60 61 61 60 60 57 54 54 50 50 49
92 94 95 90 90 88 87 86 82 89 95 89 82 89 88 85 83 81 78 72 66 65 65 61 61 57 52 52 53 53 55 55 58 57 54 52 50 51 50 50 48 46 45
90 95 94 93 95 89 94 91 83 88 93 93 87 86 84 81 75 71 65 61 57 57 58 56 56 55 54 52 53 52 51 49 50 50 48 51 51 51 52 52 48 48 44
95 96 93 92 92 92 92 92 89 87 91 93 91 87 82 71 65 60 57 57 57 55 52 55 56 60 55 48 45 44 42 42 46 46 43 49 50 55 55 52 51 49 48
85 85 83 79 81 85 92 92 94 94 97 94 85 76 67 69 64 59 59 56 54 52 54 53 51 50 48 45 42 39 41 41 45 45 48 50 53 55 54 58 55 49 48
68 69 69 71 70 76 78 85 85 87 85 80 74 71 64 60 58 60 58 52 48 47 47 47 45 44 43 41 40 40 43 45 47 48 51 52 59 59 59 59 58 50 49
61 62 64 62 65 68 71 75 82 86 88 78 72 63 61 66 62 55 51 44 42 42 42 40 38 39 39 39 41 43 45 46 47 52 54 58 62 61 63 63 58 43 43
57 57 57 57 59 62 66 68 75 83 86 76 63 63 62 60 60 53 47 43 41 39 38 36 38 39 40 40 43 45 46 46 51 53 57 62 63 64 64 65 48 40 38
40 42 43 46 50 50 55 58 61 71 69 69 69 68 62 62 59 55 49 41 39 39 39 39 41 41 42 45 45 46 46 48 50 54 57 61 66 60 56 46 43 41 39
38 40 40 42 46 47 50 54 60 64 71 72 72 71 64 62 60 54 50 41 39 41 40 42 44 44 45 46 46 49 51 53 55 58 62 60 54 49 41 44 47 46 47
38 42 43 45 47 49 54 58 62 62 63 65 65 62 62 61 57 53 49 43 42 44 50 49 50 48 43 44 50 51 54 58 59 52 46 43 45 43 45 48 49 51 51
43 47 50 51 53 54 58 60 63 63 61 61 60 61 61 60 57 55 51 45 45 48 50 52 49 46 43 45 51 54 55 51 45 48 44 41 44 45 48 49 47 48 48
37 44 49 54 58 60 65 66 64 62 62 63 63 62 62 63 61 57 52 51 52 54 51 48 43 44 44 45 48 46 46 45 46 49 47 48 49 51 53 54 54 53 52
37 42 47 52 56 61 68 74 76 74 69 68 69 69 68 68 65 60 57 56 61 61 50 42 39 43 42 44 44 45 42 43 47 49 52 56 57 57 61 62 61 59 58
40 44 49 55 61 62 68 75 82 85 85 83 80 76 73 71 67 64 64 66 65 64 52 45 41 40 38 35 38 41 43 44 50 52 56 56 56 60 62 64 67 68 66

GFSMA_prec_cthk_105.txt.gz
RH
55 54 44 34 28 28 28 29 29 29 27 25 26 26 28 30 30 30 31 31 30 30 29 26 27 30 32 38 43 46 47 47 46 43 42 39 35 34 35 38 39 40 43
64 49 36 30 29 30 31 31 30 29 28 26 26 28 30 32 33 34 33 35 35 34 33 31 30 32 35 37 41 42 46 48 49 47 44 42 37 37 37 38 44 51 48
55 42 31 30 31 32 34 34 34 33 31 30 29 30 31 35 37 41 36 41 37 37 35 35 34 34 36 40 44 45 46 49 51 48 46 44 40 42 42 39 39 39 48
48 33 32 32 34 36 36 35 35 36 35 35 35 35 36 39 42 44 39 39 41 42 40 39 39 37 39 41 44 49 49 50 51 49 49 48 47 47 43 42 41 40 40
41 36 37 38 39 38 38 39 40 39 40 40 40 42 45 50 57 49 46 44 45 46 45 41 38 40 44 43 44 50 53 53 51 52 54 53 52 49 50 46 43 43 40
44 41 41 40 40 42 43 43 44 46 44 44 47 52 54 65 67 58 57 48 47 46 45 43 44 45 47 46 46 52 56 55 55 57 58 58 57 57 52 50 48 48 49
44 44 44 45 45 47 49 50 51 49 48 49 57 64 59 72 75 64 60 52 45 43 44 47 52 50 50 48 52 58 58 59 61 60 62 59 56 54 52 53 55 52 50
48 48 49 51 52 55 56 56 54 54 55 60 69 64 64 67 68 69 67 59 50 54 54 58 57 56 56 57 63 64 65 67 62 65 59 60 56 52 52 54 55 54 53
59 56 55 56 59 60 61 62 67 71 76 78 75 72 72 73 77 83 87 72 65 67 67 67 64 65 65 65 65 65 63 65 65 62 62 62 59 59 59 60 58 57 55
78 77 71 67 68 70 74 77 78 81 83 84 79 79 78 77 80 85 88 82 79 78 80 79 72 69 68 67 66 65 62 60 62 60 65 64 61 60 60 63 59 55 48
75 74 79 83 82 86 88 87 88 91 91 91 90 91 92 87 90 85 84 85 83 80 82 76 71 69 72 71 65 62 58 59 56 57 58 60 59 57 55 54 50 47 45
86 90 91 86 92 88 87 89 86 85 91 86 90 89 89 91 88 85 79 79 80 82 75 70 69 66 63 60 57 54 52 53 54 56 55 54 51 49 47 46 47 46 46
93 94 89 92 90 89 89 90 88 88 89 89 82 89 90 95 83 84 87 85 81 75 68 63 60 57 55 51 50 49 49 52 51 48 49 48 44 43 46 44 45 46 44
91 91 92 94 97 93 92 96 93 94 91 93 83 83 87 90 92 88 85 84 76 70 66 59 56 52 51 51 50 49 48 47 45 44 45 43 43 45 47 47 46 48 45
92 92 92 97 93 92 93 93 92 93 92 90 86 84 84 88 88 85 77 71 65 61 58 57 56 54 53 52 49 46 43 42 39 39 42 44 43 44 46 48 46 50 48
85 89 87 91 91 88 90 91 90 93 93 92 91 89 90 85 83 76 69 63 59 61 59 54 52 51 50 48 45 43 40 38 38 40 43 44 44 47 47 49 50 52 49
75 75 76 77 75 75 77 79 81 86 90 92 94 90 93 79 71 67 64 60 60 58 54 51 47 46 45 43 41 39 39 39 40 43 43 43 45 49 52 50 55 53 50
61 62 63 64 65 71 73 71 73 78 80 82 86 88 91 84 69 64 57 61 59 56 50 44 44 43 41 39 39 40 41 43 47 46 45 45 48 50 52 55 57 53 40
52 55 57 58 62 66 69 70 72 75 77 79 81 90 91 87 78 65 65 63 58 53 48 45 42 40 40 40 43 44 46 47 48 47 48 50 51 52 52 56 57 42 36
36 37 39 41 46 48 55 58 63 66 67 74 83 89 90 90 86 73 65 62 61 57 49 42 42 41 43 44 45 47 47 49 49 48 51 53 53 54 52 53 41 38 36
34 36 37 39 40 41 45 48 51 55 61 67 76 84 85 83 82 81 72 65 63 58 54 45 45 44 45 46 48 49 51 50 50 52 53 54 53 48 43 39 37 39 39
28 31 34 37 38 41 45 50 52 56 59 65 66 75 82 87 89 88 83 71 65 58 54 46 44 48 50 49 51 48 51 50 53 56 52 46 40 38 36 40 39 42 43
25 27 30 33 36 38 42 47 52 54 57 62 66 70 70 70 72 76 80 68 65 61 54 49 49 54 53 49 48 52 53 54 55 49 41 38 34 37 38 43 43 41 43
25 26 27 31 36 42 45 50 52 55 58 61 64 68 67 68 68 70 69 67 67 61 55 53 53 55 51 50 49 53 57 54 50 44 43 43 40 44 46 48 46 46 48
26 28 31 32 35 38 45 51 55 58 59 63 68 70 75 74 72 72 71 74 69 65 61 59 60 59 54 50 51 53 52 47 48 45 44 48 49 54 54 54 55 54 54
32 34 35 39 40 42 49 53 58 58 62 65 72 75 77 81 85 78 75 75 73 73 67 64 62 57 55 50 52 51 53 46 45 43 46 53 57 56 57 57 59 60 61

GFSMA_prec_cthk_108.txt.gz
RH
82 87 66 56 51 41 34 27 27 28 28 28 27 26 25 24 25 27 28 28 29 30 29 27 26 27 30 31 34 38 39 43 44 45 44 42 40 35 33 34 42 44 44
86 85 76 62 52 42 34 30 30 29 30 29 27 27 27 30 30 29 30 32 35 33 34 31 29 30 30 32 34 39 41 43 45 47 47 45 45 40 38 39 39 38 44
97 83 61 52 54 44 34 33 33 33 31 30 29 29 31 32 33 34 34 36 38 37 36 33 34 35 34 35 38 42 47 47 47 48 49 48 49 45 45 46 43 42 40
80 74 63 68 55 41 35 36 35 33 33 34 33 33 34 34 35 36 37 40 42 40 38 38 43 41 40 40 42 45 53 54 53 50 50 52 53 52 50 51 48 45 45
81 78 74 62 53 39 37 37 36 35 37 38 38 39 38 39 39 39 42 50 47 50 46 42 42 40 43 46 48 50 58 58 56 56 57 56 57 58 55 52 50 48 48
89 76 73 60 44 41 40 39 38 41 42 44 45 45 46 48 48 49 55 55 58 54 49 46 38 39 43 46 51 56 62 60 63 61 59 59 59 57 54 52 49 48 48
95 87 66 50 47 43 43 42 45 45 48 52 50 51 54 55 56 56 64 63 65 59 49 45 39 44 49 56 56 60 62 66 69 64 65 61 65 59 55 52 52 50 49
88 86 59 49 47 47 47 46 49 52 57 58 57 60 60 64 64 64 69 67 64 67 63 58 55 56 60 62 61 67 69 70 69 68 62 66 66 61 58 56 54 52 51
79 67 53 48 49 51 53 53 58 60 61 65 64 68 75 73 77 76 73 73 73 71 65 68 65 63 69 68 67 65 68 67 69 69 67 61 58 60 54 54 51 51 52
73 57 51 51 53 56 61 64 68 67 68 75 74 79 80 88 91 84 81 77 80 79 79 73 77 78 78 75 69 64 67 69 64 62 58 59 61 55 54 51 48 46 44
83 74 67 60 60 63 64 72 82 87 91 89 92 91 92 93 93 92 90 88 86 85 81 82 85 83 75 75 67 64 62 62 58 52 55 53 52 50 48 44 40 40 39
93 95 88 80 87 84 85 89 88 91 90 94 91 90 89 89 93 89 87 86 83 80 83 82 82 77 72 67 61 55 51 48 48 49 50 52 50 46 40 40 39 39 42
95 94 95 91 87 91 89 90 88 91 88 91 91 91 91 89 95 92 97 90 87 82 82 82 72 64 64 59 52 49 47 47 46 48 47 45 43 42 41 40 39 40 40
95 95 95 95 96 93 93 93 91 90 93 92 90 93 96 93 93 91 91 94 90 87 79 75 68 64 58 56 51 48 48 48 47 46 42 40 42 42 41 39 40 42 40
97 97 96 91 90 89 90 93 90 93 95 93 91 92 92 91 89 89 89 90 89 86 81 71 65 64 63 58 55 52 50 45 41 40 38 38 42 42 40 38 39 41 41
97 93 92 91 91 93 97 94 89 89 93 92 88 89 88 87 87 88 88 89 86 78 70 67 65 59 55 53 51 49 46 42 39 36 38 38 42 42 40 39 41 43 44
88 87 88 88 84 82 83 84 81 83 86 88 90 89 86 92 93 92 91 85 76 72 70 67 64 60 59 52 48 46 45 40 36 37 38 41 42 41 41 42 42 44 45
64 65 68 72 74 75 75 75 72 74 76 82 87 93 95 98 98 92 95 84 73 73 70 69 62 57 53 48 45 44 43 40 41 40 43 45 43 43 44 43 45 47 48
52 54 55 57 58 60 62 65 69 71 74 75 78 89 96 94 94 88 98 88 77 80 70 70 68 61 53 46 45 44 42 43 43 42 44 45 46 45 44 46 48 50 40
34 36 37 39 42 45 48 49 54 56 63 67 72 81 89 92 97 98 98 88 93 84 87 76 67 63 57 47 46 46 46 46 47 48 50 48 47 47 47 46 46 40 32
23 23 25 28 30 31 35 39 42 46 51 56 58 62 65 69 80 90 97 93 96 93 89 87 72 63 58 50 45 46 48 48 48 50 50 49 49 49 48 42 35 30 32
19 20 21 22 26 29 31 33 35 38 41 43 47 55 58 63 70 70 80 91 94 93 93 90 87 74 59 49 47 47 49 48 50 50 52 51 48 41 37 35 32 33 35
18 18 19 19 21 25 29 34 38 41 45 47 48 51 55 59 66 72 75 81 82 88 92 90 87 78 60 51 51 51 49 47 49 53 52 50 41 32 30 32 35 37 38
17 18 18 20 20 23 28 33 36 39 43 47 52 59 62 63 66 69 73 72 74 75 76 77 77 74 61 55 55 55 53 52 53 55 50 45 40 36 36 40 40 43 43
20 19 20 20 22 24 29 34 38 42 44 49 55 59 64 69 73 76 81 84 81 78 78 77 74 72 66 60 59 58 55 54 54 50 50 48 43 38 40 46 47 51 53
20 23 23 25 28 29 32 37 40 43 45 47 55 59 66 69 75 81 80 90 84 84 82 78 77 75 73 68 63 63 60 59 54 50 50 50 45 45 47 53 56 58 58

GFSMA_prec_cthk_111.txt.gz
RH
71 65 80 71 56 48 48 45 39 30 27 27 27 26 25 25 24 26 28 28 29 29 28 27 26 26 27 29 30 33 37 40 40 42 46 47 45 44 41 41 39 39 41
70 72 81 81 59 55 47 48 42 34 30 30 29 28 28 28 28 28 29 31 32 31 33 33 29 30 30 30 33 36 42 44 45 47 50 52 50 48 47 44 45 44 42
81 79 83 84 65 56 52 50 44 36 32 31 30 29 29 30 31 31 32 33 34 35 36 36 36 35 37 38 39 43 48 50 51 51 52 52 52 51 51 49 48 47 46
95 93 87 89 67 63 62 51 46 36 34 33 32 32 32 33 34 34 35 37 36 36 39 41 41 44 42 38 40 45 53 56 56 58 57 55 55 55 55 52 50 49 47
97 98 93 87 74 66 64 56 49 39 38 36 36 37 37 38 37 36 37 39 41 42 44 47 47 47 44 43 43 43 49 57 63 63 60 60 62 61 57 56 51 48 47
96 99 97 84 78 67 66 65 58 42 41 39 43 44 45 45 45 45 47 49 51 53 58 58 55 50 45 44 46 45 54 65 67 67 65 65 67 61 59 57 52 50 48
85 98 96 91 82 71 74 66 57 45 46 46 48 49 50 50 51 52 55 58 63 64 64 63 60 55 56 58 56 55 60 69 72 67 67 71 70 65 61 58 55 56 55
88 93 92 87 85 78 67 66 53 48 48 51 52 55 55 54 55 57 60 63 67 68 68 67 63 60 60 60 62 63 63 71 70 69 67 68 66 65 59 56 54 50 48
87 93 94 91 80 73 68 61 53 52 54 55 58 59 62 57 60 65 69 73 69 76 76 76 68 66 64 66 70 71 71 74 73 71 67 66 65 60 57 53 48 46 42
91 93 95 94 89 73 65 55 57 59 59 60 66 69 68 68 70 74 76 83 87 87 87 83 76 70 71 75 77 78 77 75 71 65 62 61 53 51 51 49 46 42 37
94 96 91 94 87 72 63 61 61 65 66 70 77 76 80 86 92 93 90 92 91 92 92 89 85 80 81 84 82 78 71 70 64 60 51 52 52 50 48 44 41 38 36
91 93 91 87 80 74 67 74 78 82 84 84 85 90 89 88 95 93 92 93 91 93 94 94 84 86 86 86 81 70 65 59 52 48 52 51 52 48 46 42 38 38 38
95 91 89 89 89 87 87 91 90 86 85 88 88 89 91 91 90 91 92 95 94 92 95 93 89 91 92 80 72 66 61 55 51 49 49 48 45 42 45 41 39 38 37
95 95 97 98 98 98 97 93 94 93 90 88 83 85 88 93 96 96 96 96 93 96 94 89 90 96 86 77 70 66 60 57 53 51 50 46 43 41 39 38 40 38 36
93 92 92 92 94 94 95 93 93 94 89 90 87 93 96 96 97 97 92 97 99 98 96 95 95 93 83 77 72 63 62 58 55 51 47 45 42 38 37 39 40 38 37
96 97 97 96 96 95 95 92 92 92 92 95 93 94 94 98 98 93 88 86 92 94 92 95 93 85 81 80 74 67 61 55 52 48 43 39 38 37 37 38 39 39 40
97 96 95 93 92 92 91 91 84 93 93 91 90 92 93 94 93 91 90 89 93 96 93 97 90 83 81 77 69 62 55 53 47 43 39 39 38 38 39 37 39 40 41
76 75 76 78 78 81 79 80 78 79 81 78 78 79 83 91 95 98 91 95 96 98 97 87 82 79 78 74 69 63 52 44 42 41 40 38 38 39 39 39 41 42 40
52 54 55 55 54 55 58 59 60 61 63 66 67 73 75 76 81 88 95 98 98 98 98 91 92 84 80 76 73 68 52 45 45 44 41 40 40 40 41 40 41 42 40
28 28 29 29 30 30 33 35 38 43 49 52 55 57 61 66 74 77 86 87 96 98 95 97 95 91 92 89 86 78 63 51 49 48 44 43 43 42 40 40 42 40 35
22 22 21 21 22 22 24 26 28 29 31 33 37 41 46 51 54 61 72 81 86 89 94 96 98 97 94 94 91 86 79 69 55 54 47 49 46 46 43 42 40 34 26
17 17 18 17 17 18 20 22 25 26 29 30 33 36 39 43 47 52 55 58 72 73 82 86 93 97 95 96 97 90 81 69 62 55 56 53 48 48 45 41 36 28 27
13 13 14 14 14 15 18 19 21 24 27 31 34 36 41 46 49 53 57 61 59 71 75 79 78 91 88 95 98 90 83 76 63 58 55 52 53 50 42 34 29 28 29
12 11 12 14 14 16 18 20 22 24 26 28 32 36 40 44 52 57 60 63 66 70 73 78 90 87 92 90 89 85 80 72 68 62 60 57 54 44 40 34 34 35 33
14 14 14 15 17 18 19 22 26 27 28 31 35 39 43 47 49 55 59 68 76 74 75 76 81 79 87 79 76 75 72 65 64 63 63 61 54 48 42 38 38 40 39
12 13 15 18 19 17 17 19 26 28 28 32 35 40 46 51 58 64 68 73 74 79 87 97 92 97 87 85 81 78 73 68 67 64 65 63 55 50 44 43 45 46 48

GFSMA_prec_cthk_114.txt.gz
RH
77 80 75 68 68 70 49 47 48 45 43 32 25 24 23 23 24 24 26 28 28 28 27 28 30 27 27 30 29 32 34 40 43 43 44 46 48 49 49 47 43 42 42
77 81 86 74 75 82 58 54 52 50 49 38 29 28 26 25 26 26 28 30 31 32 30 30 30 29 31 36 36 35 40 45 49 49 50 50 53 55 53 48 46 44 45
72 76 87 84 82 88 62 60 54 55 51 43 34 31 30 28 28 30 32 34 35 35 35 35 34 36 38 39 39 40 45 52 50 51 49 49 54 58 55 54 52 49 45
60 74 80 85 79 92 69 64 62 59 54 49 39 34 34 31 30 33 35 36 38 39 40 40 40 40 41 41 41 41 45 52 56 55 55 59 63 64 61 63 59 52 49
58 66 74 80 86 91 88 70 62 59 60 54 47 39 37 36 35 36 36 37 40 42 45 45 46 49 51 46 42 45 48 58 65 63 63 67 66 65 68 67 64 57 54
54 58 73 80 90 98 98 80 64 67 61 62 56 44 40 41 43 42 42 45 47 50 55 56 58 57 55 49 50 52 54 61 65 67 66 66 70 69 68 66 66 59 55
59 59 67 77 95 96 94 82 80 71 66 64 62 54 47 46 46 45 46 49 53 54 60 61 63 65 63 53 55 55 60 70 70 69 69 69 76 73 69 68 65 58 56
52 55 61 79 92 95 94 90 86 78 71 70 64 62 55 48 48 49 52 56 59 62 67 67 72 72 69 63 63 65 65 70 71 73 77 79 77 67 63 64 59 55 49
58 64 60 67 83 93 92 91 92 84 76 75 68 66 66 60 56 55 59 60 66 76 76 75 77 80 77 77 76 74 73 74 77 80 83 81 78 70 63 60 52 49 46
77 81 76 72 78 86 88 88 88 85 80 74 71 65 68 70 67 63 69 75 80 79 82 81 85 88 87 83 79 78 77 80 83 78 75 76 73 67 58 54 49 46 40
80 83 85 82 87 96 88 83 81 77 75 74 76 73 71 66 70 74 83 83 87 91 90 91 92 92 90 88 84 80 83 81 76 72 71 67 63 57 50 50 45 44 38
88 92 92 88 92 99 94 93 87 77 74 76 76 77 77 82 89 90 87 87 88 88 90 90 90 93 92 91 89 90 91 79 77 65 63 57 52 50 50 47 40 38 37
95 96 99 98 95 95 94 91 89 86 87 87 88 91 91 93 92 94 93 88 88 86 89 92 93 93 95 95 94 93 87 83 74 67 59 53 50 48 47 41 37 35 32
98 97 98 98 97 95 92 92 88 84 86 88 89 98 95 93 91 93 93 93 92 90 92 97 94 96 97 98 98 97 87 87 75 64 56 51 51 47 42 37 36 32 32
99 98 97 96 96 96 93 91 88 88 92 94 95 95 93 92 93 95 94 94 96 97 96 90 95 95 96 95 98 94 89 86 78 68 60 58 49 45 43 40 35 33 32
96 94 94 96 94 95 97 95 96 96 95 93 93 93 92 94 96 97 96 95 99 98 94 90 91 92 97 98 97 91 92 86 80 70 62 57 48 47 46 40 36 35 33
97 98 98 98 98 98 98 95 95 97 95 92 87 93 94 94 94 94 94 94 92 99 89 91 89 97 96 95 95 93 92 87 82 75 65 57 51 47 42 39 36 35 33
95 91 91 92 94 92 90 87 88 89 82 79 78 78 79 80 78 77 78 80 85 88 98 95 93 95 97 98 94 96 91 88 82 74 63 60 52 45 42 43 39 36 34
65 64 62 61 61 62 62 63 61 59 56 54 54 54 56 59 60 63 67 72 77 84 88 93 89 95 95 95 96 98 95 92 85 76 71 65 58 50 44 45 51 44 44
32 29 27 26 26 27 27 27 28 29 30 32 35 38 41 43 48 51 55 60 66 70 72 80 85 92 90 92 97 98 97 98 97 88 81 74 68 61 57 51 53 45 46
21 20 21 20 21 21 20 20 21 21 22 24 26 28 30 33 36 39 43 45 49 56 63 70 73 77 83 90 89 95 95 98 97 91 87 80 76 71 65 57 59 58 42
13 12 12 12 11 12 12 13 14 14 15 16 18 20 24 27 31 35 39 43 46 51 55 58 71 64 71 79 87 95 92 98 96 91 80 74 67 63 62 63 61 51 41
10 10 11 11 11 12 13 14 14 16 18 19 21 21 22 25 29 32 36 40 44 52 57 61 66 66 70 78 78 76 95 96 92 90 86 77 73 68 62 59 51 40 35
10 11 11 11 11 13 14 15 15 16 17 18 20 22 25 27 30 35 40 45 48 52 60 65 72 79 82 80 89 82 90 93 90 86 81 73 67 63 62 59 45 38 35
12 12 13 13 13 13 14 15 15 15 14 14 15 19 21 22 26 34 39 43 49 57 68 70 72 74 87 82 97 94 98 98 92 84 77 68 66 62 60 53 46 41 43
13 13 13 13 14 14 15 15 16 18 18 18 19 20 22 26 30 36 45 47 48 50 65 81 77 73 98 78 80 83 86 86 82 82 78 71 70 67 58 50 48 48 48

GFSMA_prec_cthk_117.txt.gz
RH
65 70 76 82 77 77 67 52 52 51 49 47 45 40 28 25 25 25 26 27 28 28 29 30 31 30 27 27 30 32 31 39 43 45 45 45 46 47 47 49 51 48 43
65 71 77 81 84 78 75 66 58 54 51 52 52 49 36 28 28 27 28 29 31 32 32 31 32 32 31 32 33 31 32 41 46 47 48 51 51 53 55 56 57 53 51
72 70 74 79 80 88 85 85 71 63 56 57 55 52 45 35 30 29 29 31 33 35 37 36 36 37 36 38 39 36 35 39 46 50 49 53 56 58 62 62 62 61 59
67 65 67 68 76 86 89 83 85 72 61 60 59 56 54 44 34 32 31 33 36 38 40 41 41 40 39 40 39 39 40 44 45 55 58 60 62 64 64 66 68 64 61
58 62 61 62 67 77 80 84 86 85 72 69 65 63 61 57 40 36 35 37 39 41 44 47 48 49 51 51 48 43 45 48 52 57 59 62 65 65 65 71 73 68 62
46 53 57 54 63 67 74 90 88 83 81 79 71 66 63 62 52 44 42 44 45 47 51 53 57 58 61 61 57 48 47 49 53 59 64 65 66 67 67 70 73 66 63
40 42 44 48 55 62 61 79 96 95 92 84 74 67 65 63 58 56 53 50 49 51 53 56 62 66 66 68 63 60 60 59 66 69 71 71 71 72 74 72 71 65 61
36 36 37 38 47 59 62 70 87 94 94 89 86 80 77 70 61 61 61 58 52 54 55 60 73 76 74 75 75 71 66 74 74 74 72 75 75 76 76 77 70 62 53
34 33 38 42 46 53 64 70 86 92 93 90 89 88 87 79 68 65 64 62 62 57 66 75 79 86 88 89 88 80 83 84 81 76 74 79 77 73 76 76 67 59 49
41 44 50 61 68 70 70 70 72 83 90 87 93 93 90 85 78 74 73 73 75 76 76 78 79 81 87 87 91 92 87 83 84 80 82 85 76 74 70 67 62 52 46
52 53 61 70 73 77 76 74 66 69 89 89 88 88 90 86 85 80 77 76 79 82 83 85 89 87 89 93 94 91 90 88 87 85 86 81 74 73 67 59 51 47 42
62 60 70 72 76 81 79 79 74 81 90 89 86 85 91 90 85 86 90 92 92 90 88 89 89 87 89 90 95 94 93 90 92 91 85 81 78 75 65 56 50 47 40
67 73 76 79 86 87 88 89 81 82 90 88 88 91 90 91 94 96 96 94 96 92 90 88 88 88 90 95 96 95 94 94 95 93 85 82 80 74 63 56 50 46 39
77 78 83 86 97 98 95 96 95 94 96 95 96 93 92 90 93 94 95 96 97 93 88 86 86 89 93 95 96 98 99 99 98 94 87 82 79 74 65 57 51 47 44
86 89 89 93 96 96 98 97 99 97 96 95 95 92 91 93 91 92 97 98 98 94 88 86 92 96 95 92 94 96 97 98 98 95 90 81 80 73 65 57 50 49 47
96 97 97 97 98 98 97 98 96 94 94 95 95 94 93 89 90 96 93 95 95 96 90 84 87 88 90 89 91 92 96 98 97 95 92 86 79 74 64 57 56 51 50
99 98 97 98 97 97 98 97 96 96 96 99 98 94 85 85 84 87 88 87 86 88 82 84 82 85 83 88 89 92 92 96 95 94 95 89 82 76 66 60 58 55 51
98 98 96 97 97 96 94 94 95 95 93 89 87 81 74 70 69 67 66 67 67 67 68 66 65 70 75 78 82 89 89 88 91 94 94 91 85 78 70 65 62 59 51
88 80 78 77 75 73 73 72 72 70 67 64 58 54 52 50 46 45 46 47 52 54 56 57 59 62 65 69 76 78 86 86 91 91 94 96 89 82 79 70 67 62 56
45 40 37 33 31 28 27 27 27 26 26 26 26 26 27 28 29 32 34 34 36 38 41 45 50 52 59 65 70 71 77 79 86 85 91 93 93 90 83 79 73 69 62
24 22 20 19 18 18 17 16 17 17 16 17 17 19 20 22 25 27 28 30 32 34 38 43 44 48 53 57 68 66 72 76 85 84 92 97 97 90 87 80 72 69 64
11 10 9 9 9 10 10 11 12 12 13 14 15 16 18 19 21 23 26 29 34 34 36 43 46 48 50 54 72 71 76 89 75 78 89 96 97 91 86 78 70 65 60
9 10 10 10 10 10 10 11 11 12 13 14 14 15 15 16 18 18 19 23 27 32 35 41 45 46 57 64 66 69 73 97 89 81 87 90 93 87 82 77 73 68 62
9 10 10 10 11 12 13 13 13 14 15 16 16 17 17 17 16 19 20 21 22 28 34 39 43 44 51 65 68 77 83 93 95 91 97 94 93 89 83 75 73 68 57
11 11 11 12 12 13 14 15 16 16 17 17 18 18 20 23 23 22 23 26 27 28 32 42 47 55 54 61 87 91 87 85 94 92 86 93 98 89 82 74 68 62 46
12 13 14 15 16 17 18 19 20 20 19 20 20 19 18 18 24 25 27 27 26 30 33 40 47 57 62 63 66 72 96 99 98 99 99 99 99 91 85 76 67 55 44